[[{"header":{"parameterUnit":"m.s-1","parameterCategory":1,"la1":30.6,"la2":28.766,"lo1":-90.7593,"lo2":-88.6598,"dy":0.0162,"dx":0.0183,"nx":116,"ny":114,"refTime":"2024-03-28T12:00:00:Z","depth":0,"parameterNumber":2,"parameterNumberName":"U-component_of_WINDS"},"data":[0.0,0.0,0.0,0.0,0.0,0.0,0.0,0.0,0.0,0.0,0.0,0.0,0.0,0.0,0.0,0.0,0.0,0.0,0.0,0.0,0.0,0.0,0.0,0.0,0.0,0.0,0.0,0.0,0.0,0.0,0.0,0.0,0.0,0.0,0.0,0.0,0.0,0.0,0.0,0.0,0.0,0.0,0.0,0.0,0.0,0.0,0.0,0.0,0.0,0.0,0.0,0.0,0.0,0.0,0.0,0.0,0.0,0.0,0.0,0.0,0.0,0.0,0.0,0.0,0.0,0.0,0.0,0.0,0.0,0.0,0.0,0.0,0.0,0.0,0.0,0.0,0.0,0.0,0.0,0.0,0.0,0.0,0.0,0.0,0.0,0.0,0.0,0.0,0.0,0.0,0.0,0.0,0.0,0.0,0.0,0.0,0.0,0.0,0.0,0.0,0.0,0.0,0.0,0.0,0.0,0.0,0.0,0.0,0.0,0.0,0.0,0.0,0.0,0.0,0.0,0.0,0.0,0.0,0.0,0.0,0.0,0.0,0.0,0.0,0.0,0.0,0.0,0.0,0.0,0.0,0.0,0.0,0.0,0.0,0.0,0.0,0.0,0.0,0.0,0.0,0.0,0.0,0.0,0.0,0.0,0.0,0.0,0.0,0.0,0.0,0.0,0.0,0.0,0.0,0.0,0.0,0.0,0.0,0.0,0.0,0.0,0.0,0.0,0.0,0.0,0.0,0.0,0.0,0.0,0.0,0.0,0.0,0.0,0.0,0.0,0.0,0.0,0.0,0.0,0.0,0.0,0.0,0.0,0.0,0.0,0.0,0.0,0.0,0.0,0.0,0.0,0.0,0.0,0.0,0.0,0.0,0.0,0.0,0.0,0.0,0.0,0.0,0.0,0.0,0.0,0.0,0.0,0.0,0.0,0.0,0.0,0.0,0.0,0.0,0.0,0.0,0.0,0.0,0.0,0.0,0.0,0.0,0.0,0.0,0.0,0.0,0.0,0.0,0.0,0.0,0.0,0.0,0.0,0.0,0.0,0.0,0.0,0.0,0.0,0.0,0.0,0.0,0.0,0.0,0.0,0.0,0.0,0.0,0.0,0.0,0.0,0.0,0.0,0.0,0.0,0.0,0.0,0.0,0.0,0.0,0.0,0.0,0.0,0.0,0.0,0.0,0.0,0.0,0.0,0.0,0.0,0.0,0.0,0.0,0.0,0.0,0.0,0.0,0.0,0.0,0.0,0.0,0.0,0.0,0.0,0.0,0.0,0.0,0.0,0.0,0.0,0.0,0.0,0.0,0.0,0.0,0.0,0.0,0.0,0.0,0.0,0.0,0.0,0.0,0.0,0.0,0.0,0.0,0.0,0.0,0.0,0.0,0.0,0.0,0.0,0.0,0.0,0.0,0.0,0.0,0.0,0.0,0.0,0.0,0.0,0.0,0.0,0.0,0.0,0.0,0.0,0.0,0.0,0.0,0.0,0.0,0.0,0.0,0.0,0.0,0.0,0.0,0.0,0.0,0.0,0.0,0.0,0.0,0.0,0.0,0.0,0.0,0.0,0.0,0.0,0.0,0.0,0.0,0.0,0.0,0.0,0.0,0.0,0.0,0.0,0.0,0.0,0.0,0.0,0.0,0.0,0.0,0.0,0.0,0.0,0.0,0.0,0.0,0.0,0.0,0.0,0.0,0.0,0.0,0.0,0.0,0.0,0.0,0.0,0.0,0.0,0.0,0.0,0.0,0.0,0.0,0.0,0.0,0.0,0.0,0.0,0.0,0.0,0.0,0.0,0.0,0.0,0.0,0.0,0.0,0.0,0.0,0.0,0.0,0.0,0.0,0.0,0.0,0.0,0.0,0.0,0.0,0.0,0.0,0.0,0.0,0.0,0.0,0.0,0.0,0.0,0.0,0.0,0.0,0.0,0.0,0.0,0.0,0.0,0.0,0.0,0.0,0.0,0.0,0.0,0.0,0.0,0.0,0.0,0.0,0.0,0.0,0.0,0.0,0.0,0.0,0.0,0.0,0.0,0.0,0.0,0.0,0.0,0.0,0.0,0.0,0.0,0.0,0.0,0.0,0.0,0.0,0.0,0.0,0.0,0.0,0.0,0.0,0.0,0.0,0.0,0.0,0.0,0.0,0.0,0.0,0.0,0.0,0.0,0.0,0.0,0.0,0.0,0.0,0.0,0.0,0.0,0.0,0.0,0.0,0.0,0.0,0.0,0.0,0.0,0.0,0.0,0.0,0.0,0.0,0.0,0.0,0.0,0.0,0.0,0.0,0.0,0.0,0.0,0.0,0.0,0.0,0.0,0.0,0.0,0.0,0.0,0.0,0.0,0.0,0.0,0.0,0.0,0.0,0.0,0.0,0.0,0.0,0.0,0.0,0.0,0.0,0.0,0.0,0.0,0.0,0.0,0.0,0.0,0.0,0.0,0.0,0.0,0.0,0.0,0.0,0.0,0.0,0.0,0.0,0.0,0.0,0.0,0.0,0.0,0.0,0.0,0.0,0.0,0.0,0.0,0.0,0.0,0.0,0.0,0.0,0.0,0.0,0.0,0.0,0.0,0.0,0.0,0.0,0.0,0.0,0.0,0.0,0.0,0.0,0.0,0.0,0.0,0.0,0.0,0.0,0.0,0.0,0.0,0.0,0.0,0.0,0.0,0.0,0.0,0.0,0.0,0.0,0.0,0.0,0.0,0.0,0.0,0.0,0.0,0.0,0.0,0.0,0.0,0.0,0.0,0.0,0.0,0.0,0.0,0.0,0.0,0.0,0.0,0.0,0.0,0.0,0.0,0.0,0.0,0.0,0.0,0.0,0.0,0.0,0.0,0.0,0.0,0.0,0.0,0.0,0.0,0.0,0.0,0.0,0.0,0.0,0.0,0.0,0.0,0.0,0.0,0.0,0.0,0.0,0.0,0.0,0.0,0.0,0.0,0.0,0.0,0.0,0.0,0.0,0.0,0.0,0.0,0.0,0.0,0.0,0.0,0.0,0.0,0.0,0.0,0.0,0.0,0.0,0.0,0.0,0.0,0.0,0.0,0.0,0.0,0.0,0.0,0.0,0.0,0.0,0.0,0.0,0.0,0.0,0.0,0.0,0.0,0.0,0.0,0.0,0.0,0.0,0.0,0.0,0.0,0.0,0.0,0.0,0.0,0.0,0.0,0.0,0.0,0.0,0.0,0.0,0.0,0.0,0.0,0.0,0.0,0.0,0.0,0.0,0.0,0.0,0.0,0.0,0.0,0.0,0.0,0.0,0.0,0.0,0.0,0.0,0.0,0.0,0.0,0.0,0.0,0.0,0.0,0.0,0.0,0.0,0.0,0.0,0.0,0.0,0.0,0.0,0.0,0.0,0.0,0.0,0.0,0.0,0.0,0.0,0.0,0.0,0.0,0.0,0.0,0.0,0.0,0.0,0.0,0.0,0.0,0.0,0.0,0.0,0.0,0.0,0.0,0.0,0.0,0.0,0.0,0.0,0.0,0.0,0.0,0.0,0.0,0.0,0.0,0.0,0.0,0.0,0.0,0.0,0.0,0.0,0.0,0.0,0.0,0.0,0.0,0.0,0.0,0.0,0.0,0.0,0.0,0.0,0.0,0.0,0.0,0.0,0.0,0.0,0.0,0.0,0.0,0.0,0.0,0.0,0.0,0.0,0.0,0.0,0.0,0.0,0.0,0.0,0.0,0.0,0.0,0.0,0.0,0.0,0.0,0.0,0.0,0.0,0.0,0.0,0.0,0.0,0.0,0.0,0.0,0.0,0.0,0.0,0.0,0.0,0.0,0.0,0.0,0.0,0.0,0.0,0.0,0.0,0.0,0.0,0.0,0.0,0.0,0.0,0.0,0.0,0.0,0.0,0.0,0.0,0.0,0.0,0.0,0.0,0.0,0.0,0.0,0.0,0.0,0.0,0.0,0.0,0.0,0.0,0.0,0.0,0.0,0.0,0.0,0.0,0.0,0.0,0.0,0.0,0.0,0.0,0.0,0.0,0.0,0.0,0.0,0.0,0.0,0.0,0.0,0.0,0.0,0.0,0.0,0.0,0.0,0.0,0.0,0.0,0.0,0.0,0.0,0.0,0.0,0.0,0.0,0.0,0.0,0.0,0.0,0.0,0.0,0.0,0.0,0.0,0.0,0.0,0.0,0.0,0.0,0.0,0.0,0.0,0.0,0.0,0.0,0.0,0.0,0.0,0.0,0.0,0.0,0.0,0.0,0.0,0.0,0.0,0.0,0.0,0.0,0.0,0.0,0.0,0.0,0.0,0.0,0.0,0.0,0.0,0.0,0.0,0.0,0.0,0.0,0.0,0.0,0.0,0.0,0.0,0.0,0.0,0.0,0.0,0.0,0.0,0.0,0.0,0.0,0.0,0.0,0.0,0.0,0.0,0.0,0.0,0.0,0.0,0.0,0.0,0.0,0.0,0.0,0.0,0.0,0.0,0.0,0.0,0.0,0.0,0.0,0.0,0.0,0.0,0.0,0.0,0.0,0.0,0.0,0.0,0.0,0.0,0.0,0.0,0.0,0.0,0.0,0.0,0.0,0.0,0.0,0.0,0.0,0.0,0.0,0.0,0.0,0.0,0.0,0.0,0.0,0.0,0.0,0.0,0.0,0.0,0.0,0.0,0.0,0.0,0.0,0.0,0.0,0.0,0.0,0.0,0.0,0.0,0.0,0.0,0.0,0.0,0.0,0.0,0.0,0.0,0.0,0.0,0.0,0.0,0.0,0.0,0.0,0.0,0.0,0.0,0.0,0.0,0.0,0.0,0.0,0.0,0.0,0.0,0.0,0.0,0.0,0.0,0.0,0.0,0.0,0.0,0.0,0.0,0.0,0.0,0.0,0.0,0.0,0.0,0.0,0.0,0.0,0.0,0.0,0.0,0.0,0.0,0.0,0.0,0.0,0.0,0.0,0.0,0.0,0.0,0.0,0.0,0.0,0.0,0.0,0.0,0.0,0.0,0.0,0.0,0.0,0.0,0.0,0.0,0.0,0.0,0.0,0.0,0.0,0.0,0.0,0.0,0.0,0.0,0.0,0.0,0.0,0.0,0.0,0.0,0.0,0.0,0.0,0.0,0.0,0.0,0.0,0.0,0.0,0.0,0.0,0.0,0.0,0.0,0.0,0.0,0.0,0.0,0.0,0.0,0.0,0.0,0.0,0.0,0.0,0.0,0.0,0.0,0.0,0.0,0.0,0.0,0.0,0.0,0.0,0.0,0.0,0.0,0.0,0.0,0.0,0.0,0.0,0.0,0.0,0.0,0.0,0.0,0.0,0.0,0.0,0.0,0.0,0.0,0.0,0.0,0.0,0.0,0.0,0.0,0.0,0.0,0.0,0.0,0.0,0.0,0.0,0.0,0.0,0.0,0.0,0.0,0.0,0.0,0.0,0.0,0.0,0.0,0.0,0.0,0.0,0.0,0.0,0.0,0.0,0.0,0.0,0.0,0.0,0.0,0.0,0.0,0.0,0.0,0.0,0.0,0.0,0.0,0.0,0.0,0.0,0.0,0.0,0.0,0.0,0.0,0.0,0.0,0.0,0.0,0.0,0.0,0.0,0.0,0.0,0.0,0.0,0.0,0.0,0.0,0.0,0.0,0.0,0.0,0.0,0.0,0.0,0.0,0.0,0.0,0.0,0.0,0.0,0.0,0.0,0.0,0.0,0.0,0.0,0.0,0.0,0.0,0.0,0.0,0.0,0.0,0.0,0.0,0.0,0.0,0.0,0.0,0.0,0.0,0.0,0.0,0.0,0.0,0.0,0.0,0.0,0.0,0.0,0.0,0.0,0.0,0.0,0.0,0.0,0.0,0.0,0.0,0.0,0.0,0.0,0.0,0.0,0.0,0.0,0.0,0.0,0.0,0.0,0.0,0.0,0.0,0.0,0.0,0.0,0.0,0.0,0.0,0.0,0.0,0.0,0.0,0.0,0.0,0.0,0.0,0.0,0.0,0.0,0.0,0.0,0.0,0.0,0.0,0.0,0.0,0.0,0.0,0.0,0.0,0.0,0.0,0.0,0.0,0.0,0.0,0.0,0.0,0.0,0.0,0.0,0.0,0.0,0.0,0.0,0.0,0.0,0.0,0.0,0.0,-4.6871,-4.5068,0.0,0.0,0.0,0.0,0.0,0.0,0.0,0.0,0.0,0.0,0.0,0.0,0.0,0.0,0.0,0.0,0.0,0.0,0.0,0.0,0.0,0.0,0.0,-4.2537,-4.3282,-4.4513,-4.4628,-4.4819,-4.5288,0.0,0.0,0.0,0.0,0.0,-4.5076,-4.4922,-4.4978,-4.5189,-4.4787,-4.4934,-4.557,-4.5765,-4.5391,-4.4581,0.0,0.0,0.0,0.0,0.0,0.0,0.0,0.0,0.0,0.0,0.0,0.0,0.0,0.0,0.0,0.0,0.0,0.0,0.0,0.0,0.0,0.0,0.0,0.0,0.0,0.0,0.0,0.0,0.0,0.0,0.0,0.0,0.0,0.0,0.0,0.0,0.0,0.0,0.0,0.0,0.0,0.0,0.0,0.0,0.0,0.0,0.0,0.0,0.0,0.0,0.0,0.0,0.0,0.0,0.0,0.0,0.0,0.0,0.0,0.0,0.0,0.0,0.0,0.0,0.0,0.0,0.0,0.0,0.0,0.0,-5.0158,-4.8516,0.0,0.0,0.0,0.0,0.0,0.0,0.0,0.0,0.0,0.0,0.0,0.0,0.0,0.0,0.0,0.0,0.0,0.0,0.0,0.0,0.0,-4.1255,-4.2661,-4.2958,-4.3656,-4.5173,-4.5288,-4.5288,-4.5288,-4.5288,0.0,0.0,0.0,-4.4788,-4.4788,-4.4533,-4.4693,-4.5334,-4.5028,-4.5694,-4.7286,-4.7394,-4.6627,-4.5196,-4.46,0.0,0.0,0.0,0.0,0.0,0.0,0.0,0.0,0.0,0.0,0.0,0.0,0.0,0.0,0.0,0.0,0.0,0.0,0.0,0.0,0.0,0.0,0.0,0.0,0.0,0.0,0.0,0.0,0.0,0.0,0.0,0.0,0.0,0.0,0.0,0.0,0.0,0.0,0.0,0.0,0.0,0.0,0.0,0.0,0.0,0.0,0.0,0.0,0.0,0.0,0.0,0.0,0.0,0.0,0.0,0.0,0.0,0.0,0.0,0.0,0.0,0.0,0.0,-5.4588,-5.5464,-5.6071,-5.4734,-5.4911,-5.6136,-5.4012,-5.2999,-5.2639,-5.0269,0.0,0.0,0.0,0.0,0.0,0.0,0.0,0.0,0.0,0.0,0.0,0.0,0.0,0.0,0.0,0.0,0.0,0.0,0.0,-4.1869,-4.2784,-4.3503,-4.4306,-4.5211,-4.5288,-4.5288,-4.5288,-4.5288,-4.5288,-4.5288,-4.4969,-4.4788,-4.4788,-4.4533,-4.4331,-4.4197,-4.5909,-4.7592,-4.9231,-4.9948,-5.0054,-4.9608,-4.6591,-4.6408,-4.824,0.0,0.0,0.0,0.0,0.0,0.0,0.0,0.0,0.0,0.0,0.0,0.0,0.0,0.0,0.0,0.0,0.0,0.0,0.0,0.0,0.0,0.0,0.0,0.0,0.0,0.0,0.0,0.0,0.0,0.0,0.0,0.0,0.0,0.0,0.0,0.0,0.0,0.0,0.0,0.0,0.0,-5.2185,-5.1587,0.0,0.0,0.0,0.0,0.0,0.0,0.0,0.0,0.0,0.0,0.0,0.0,0.0,-5.2645,-5.4086,-5.5056,-5.5285,-5.4687,-5.6921,-5.8021,-5.8093,-5.7914,-5.8251,-5.8932,-5.7891,0.0,-5.4007,-5.2279,0.0,0.0,0.0,0.0,0.0,0.0,0.0,0.0,0.0,0.0,0.0,0.0,0.0,0.0,0.0,0.0,0.0,0.0,0.0,0.0,0.0,-4.4087,-4.5331,-4.6668,-4.804,-4.822,-4.6806,-4.715,-4.6817,-4.5364,-4.4838,-4.4572,-4.4572,-4.4558,-4.5177,-4.6411,-4.8713,-5.0472,-5.1646,-5.1977,-5.236,-5.2611,-5.0191,-4.8901,-4.844,-4.6966,0.0,0.0,0.0,0.0,0.0,0.0,0.0,0.0,0.0,0.0,0.0,0.0,0.0,0.0,0.0,0.0,0.0,0.0,0.0,0.0,0.0,0.0,0.0,0.0,0.0,0.0,0.0,0.0,0.0,0.0,0.0,0.0,0.0,0.0,0.0,0.0,0.0,0.0,0.0,-5.1251,-5.2943,-5.1317,-5.2803,-5.2498,0.0,0.0,0.0,0.0,0.0,0.0,0.0,0.0,0.0,-5.5187,-5.5557,-5.6281,-5.7424,-5.8317,-5.8594,-5.8267,-5.8902,-5.9394,-5.9815,-5.8959,-5.8959,-5.9598,-5.8376,-5.7215,-5.6027,-5.4619,-5.2123,-4.8984,0.0,0.0,0.0,0.0,-4.5675,-4.6651,0.0,0.0,0.0,0.0,0.0,0.0,0.0,0.0,0.0,0.0,0.0,0.0,-4.344,-4.5285,-4.7077,-4.8728,-5.075,-5.0944,-4.8602,-4.864,-4.7777,-4.5584,-4.4814,-4.4355,-4.4308,-4.4778,-4.6397,-4.926,-5.1316,-5.2931,-5.4142,-5.4326,-5.4766,-5.528,-5.4289,-5.2538,-5.0232,-4.8749,-4.7411,-4.611,0.0,0.0,0.0,0.0,0.0,0.0,0.0,0.0,0.0,0.0,0.0,0.0,0.0,0.0,0.0,0.0,0.0,0.0,0.0,0.0,0.0,0.0,0.0,0.0,0.0,0.0,0.0,0.0,0.0,0.0,0.0,0.0,0.0,0.0,0.0,0.0,0.0,-5.2352,-5.404,-5.1448,-5.4052,-5.4296,0.0,0.0,0.0,0.0,0.0,0.0,-5.4311,-5.4653,-5.6018,-5.8611,-5.9104,-5.9792,-6.0879,-6.1113,-6.1051,-6.0724,-5.9911,-5.9729,-6.0078,-5.8768,-5.8539,-5.9177,-5.7825,-5.7341,-5.7421,-5.6224,-5.3986,-5.1121,-4.9606,-4.8324,-4.7332,-4.7623,-4.8155,-4.9065,0.0,0.0,0.0,0.0,0.0,0.0,0.0,0.0,0.0,0.0,0.0,-4.2646,-4.51,-4.7588,-4.9736,-5.1381,-5.2326,-5.2073,-5.0283,-4.8716,-4.7316,-4.6101,-4.4974,-4.4294,-4.4017,-4.5233,-4.7792,-5.1793,-5.2711,-5.4304,-5.6638,-5.7409,-5.7776,-5.785,-5.8524,-5.79,-5.5992,-5.0497,-4.9431,-5.1005,0.0,0.0,0.0,0.0,0.0,0.0,0.0,0.0,0.0,0.0,0.0,0.0,0.0,0.0,0.0,0.0,0.0,0.0,0.0,0.0,0.0,0.0,0.0,0.0,0.0,0.0,0.0,0.0,0.0,0.0,0.0,0.0,0.0,0.0,0.0,0.0,0.0,0.0,0.0,-5.2669,-5.7842,0.0,0.0,0.0,0.0,-5.3577,-5.5092,-5.6605,-5.7801,-5.8324,-6.0151,-6.3519,-6.2389,-6.2568,-6.4319,-6.303,-6.1672,-6.022,-5.9426,-5.87,-5.8009,-5.7249,-5.7257,-5.7745,-5.6907,-5.6911,-5.7438,-5.6608,-5.4794,-5.2411,-5.138,-4.9693,-4.7984,-4.9086,-4.9658,-5.0119,0.0,0.0,0.0,0.0,0.0,-3.7999,-3.751,-3.8373,-3.9115,-3.9283,-4.17,-4.4154,-4.6174,-4.9605,-5.2636,-5.4829,-5.5744,-5.5465,-5.3757,-5.1319,-4.9239,-4.7757,-4.5894,-4.5488,-4.6744,-4.8253,-5.0545,-5.3555,-5.4876,-5.6235,-5.7593,-5.7886,-5.7997,-5.8033,-5.8841,-5.9148,-5.8877,-5.5273,-5.3286,-5.227,-4.8936,-4.6774,0.0,0.0,0.0,0.0,0.0,0.0,0.0,0.0,0.0,0.0,0.0,0.0,0.0,0.0,0.0,0.0,0.0,0.0,0.0,0.0,0.0,0.0,0.0,0.0,0.0,0.0,0.0,0.0,0.0,0.0,0.0,0.0,0.0,0.0,0.0,0.0,0.0,-5.619,-6.0506,0.0,-5.6428,-5.8074,-5.8624,-5.6567,-5.8793,-6.0398,-6.0838,-6.1173,-6.2358,-6.4496,-6.4239,-6.3875,-6.3568,-6.3068,-6.1821,-5.9798,-5.8564,-5.7844,-5.7535,-5.6401,-5.6014,-5.6203,-5.5501,-5.534,-5.5553,-5.5274,-5.4422,-5.3271,-5.2441,-5.1354,-5.0232,-5.0137,-5.0183,-5.0318,0.0,0.0,0.0,0.0,-3.6975,-3.7496,-3.6731,-3.8041,-3.9164,-3.9301,-4.2502,-4.5624,-4.7932,-5.1893,-5.5292,-5.7547,-5.8169,-5.7596,-5.5643,-5.2552,-4.9997,-4.8115,-4.6371,-4.6613,-4.9077,-5.0508,-5.2527,-5.5207,-5.6271,-5.7079,-5.7593,-5.7886,-5.785,-5.7629,-5.8707,-5.9625,-6.0309,-5.8694,-5.6703,-5.4422,-5.149,-4.9708,-4.8547,0.0,0.0,0.0,0.0,0.0,0.0,0.0,0.0,0.0,0.0,0.0,0.0,0.0,0.0,0.0,0.0,0.0,0.0,0.0,0.0,0.0,0.0,0.0,0.0,0.0,0.0,0.0,0.0,0.0,0.0,0.0,0.0,0.0,0.0,-5.7476,-6.052,-5.849,-6.2922,-6.4343,-5.9844,-6.167,-6.2448,-6.0655,-6.2821,-6.414,-6.3903,-6.4227,-6.4822,-6.5651,-6.5295,-6.4527,-6.3376,-6.3102,-6.1702,-5.9208,-5.8217,-5.7397,-5.6713,-5.5512,-5.5061,-5.506,-5.4608,-5.4399,-5.4399,-5.4124,-5.3857,-5.35,-5.3006,-5.2369,-5.167,-5.1033,-5.0514,-5.0058,0.0,0.0,0.0,-3.6004,-3.5999,-3.5981,-3.5936,-3.73,-3.8598,-3.9334,-4.3096,-4.7018,-5.0366,-5.4521,-5.7681,-5.9314,-5.9331,-5.8195,-5.5719,-5.2229,-4.9239,-4.7003,-4.6362,-4.7572,-5.0802,-5.1683,-5.3665,-5.6822,-5.6822,-5.6859,-5.6859,-5.7593,-5.7556,-5.6932,-5.8487,-5.9648,-6.0382,-6.0419,-5.9538,-5.7776,-5.3775,-5.2559,-5.2709,0.0,0.0,0.0,0.0,0.0,0.0,0.0,0.0,0.0,0.0,0.0,0.0,0.0,0.0,0.0,0.0,0.0,0.0,0.0,0.0,0.0,0.0,0.0,0.0,0.0,0.0,0.0,0.0,0.0,0.0,0.0,0.0,0.0,-5.4905,-5.9877,-6.2516,-5.9674,-6.5155,-6.7455,-6.3057,-6.5256,-6.6609,-6.5831,-6.7117,-6.759,-6.6846,-6.7489,-6.7642,-6.718,-6.5685,-6.4608,-6.4025,-6.3273,-6.1394,-5.8456,-5.8388,-5.7295,-5.5339,-5.455,-5.4303,-5.4428,-5.4269,-5.4139,-5.407,-5.3347,-5.3069,-5.3063,-5.2956,-5.2619,-5.2097,-5.167,-5.0651,-4.9275,0.0,0.0,-3.6009,-3.6009,-3.6001,-3.6176,-3.6676,-3.8152,-3.9451,-4.0242,-4.5032,-4.9163,-5.1318,-5.5395,-5.8615,-6.0258,-5.8661,-5.722,-5.6508,-5.1687,-4.8288,-4.7107,-4.8604,-5.0435,-5.2527,-5.3885,-5.5317,-5.6822,-5.7373,-5.7666,-5.7666,-5.7299,-5.7336,-5.7703,-5.8744,-5.9294,-5.9588,-6.0786,-6.1006,-6.0346,-5.7483,-5.5757,-5.4649,0.0,0.0,0.0,0.0,0.0,0.0,0.0,0.0,0.0,0.0,0.0,0.0,0.0,0.0,0.0,0.0,0.0,0.0,0.0,0.0,0.0,0.0,0.0,0.0,0.0,0.0,0.0,0.0,0.0,0.0,0.0,-5.548,-5.8423,-5.9336,-6.2719,-6.5392,-6.6237,-6.891,-6.9992,-6.8233,-6.9282,-6.9316,-6.7421,-6.8199,-6.8199,-6.688,-6.7015,-6.6821,-6.6117,-6.5169,-6.3854,-6.2101,-6.074,-5.9146,-5.7247,-5.6196,-5.5348,-5.4805,-5.4124,-5.364,-5.3254,-5.335,-5.3169,-5.2747,-5.2506,-5.2467,-5.2398,-5.185,-5.1538,-5.1247,-5.0035,-4.8673,-4.721,0.0,-3.6014,-3.6011,-3.6011,-3.6315,-3.6689,-3.7134,-3.8797,-4.0359,-4.1197,-4.6028,-5.0048,-5.1731,-5.5088,-5.7742,-5.9088,-5.7159,-5.5516,-5.4768,-5.0616,-4.8294,-4.8526,0.0,-5.2197,-5.4179,-5.5464,-5.6492,-5.7299,-5.7776,-5.7813,-5.7483,-5.7373,-5.7373,-5.7519,-5.8327,-5.9098,-5.9735,-6.0713,-6.1484,-6.1998,-6.0566,-5.9465,-5.8364,-5.5939,-5.4159,-5.2819,-5.1602,-5.1031,-5.0486,-4.8346,0.0,0.0,0.0,0.0,0.0,0.0,0.0,0.0,0.0,0.0,0.0,0.0,0.0,0.0,0.0,0.0,0.0,0.0,0.0,0.0,0.0,0.0,0.0,0.0,-5.8186,-6.1637,-6.3768,-6.5831,-6.7726,-6.935,-7.0601,-7.1142,-7.0703,-7.1075,-7.0635,-6.8977,-6.9282,-6.8876,-6.7354,-6.6981,-6.6474,-6.5696,-6.4072,-6.2448,-6.0825,-5.9302,-5.7645,-5.5852,-5.531,-5.4635,-5.3854,-5.3477,-5.3026,-5.2529,-5.2532,-5.2289,-5.197,-5.16,-5.1291,0.0,0.0,0.0,0.0,0.0,-4.7121,-4.5906,-3.6133,-3.6131,-3.6167,-3.6283,-3.6861,-3.736,-3.7555,-3.9484,-4.1272,-4.2121,-4.6422,-5.001,-5.1577,-5.4049,-5.5857,-5.6637,-5.5198,-5.3558,-5.1858,-4.9828,-4.9399,-5.0937,-5.2119,-5.3729,-5.5853,-5.6675,-5.7373,-5.7997,-5.7997,-5.7629,-5.6969,-5.7556,-5.7593,-5.7116,-5.7813,-5.8988,-6.0419,-6.0603,-6.1447,-6.2658,-6.2658,-6.2658,-6.234,-5.937,-5.8174,-5.7747,-5.5473,-5.3099,-5.0954,-5.0567,0.0,0.0,0.0,0.0,0.0,0.0,0.0,0.0,0.0,0.0,0.0,0.0,0.0,0.0,0.0,0.0,0.0,0.0,0.0,0.0,0.0,0.0,0.0,0.0,-6.1366,-6.4783,-6.7726,-6.8842,-6.9586,-7.0229,-7.0906,-7.1312,-7.1312,-7.1312,-7.0973,-7.0128,-7.006,-6.9383,-6.7861,-6.7151,0.0,0.0,0.0,-6.0926,-5.9844,-5.8389,-5.6596,-5.46,-5.5175,-5.4534,-5.2891,-5.2789,-5.2535,-5.2127,-5.1747,-5.1555,-5.1449,-5.0676,-4.9926,-4.9325,-4.9619,-4.9631,-4.9252,-4.7217,-4.5906,-4.4949,-3.7069,-3.7067,-3.726,-3.7959,-3.7678,-3.775,-3.9117,-4.0769,-4.2165,-4.3024,-4.6816,-4.9779,-5.0818,-5.3203,-5.478,-5.4972,-5.4038,-5.2845,-5.1483,-5.2099,-5.3025,-5.4056,-5.6246,-5.7423,-5.7542,-5.8327,-5.851,-5.7997,-5.7997,-5.7923,-5.7776,-5.7262,-5.7666,-5.8744,-5.8891,-5.9501,-6.0493,-6.1814,-6.2144,-6.1814,-6.1814,-6.1814,-6.1777,-6.1092,-6.0065,-5.8867,-5.8273,-5.821,-5.8043,-5.539,-5.4745,-5.4629,-5.1881,-4.9695,0.0,0.0,0.0,0.0,0.0,0.0,0.0,0.0,0.0,0.0,0.0,0.0,0.0,0.0,0.0,0.0,0.0,0.0,0.0,-6.0047,-6.326,-6.6305,-6.9316,-7.0398,-7.0939,-7.1075,-7.121,-7.1312,-7.1312,-7.1312,-7.077,-6.9417,-6.9316,-6.8639,-6.7117,-6.688,-6.5933,-6.4005,-6.2787,-6.0926,-5.8355,-5.6867,-5.5615,-5.4566,-5.4126,0.0,-5.3347,-5.2703,-5.2185,-5.1754,-5.111,-5.0617,-5.0336,-5.0169,-4.9309,-4.8036,-4.812,-4.7362,-4.6224,-4.5776,-4.4768,-4.3483,-3.8513,-3.8238,-3.8079,-3.8506,-3.8577,-3.8843,-3.9663,-4.1123,-4.2403,-4.3301,-4.6167,-4.8471,-4.9317,-5.0933,-5.1779,-5.1356,-5.0913,-5.0898,-5.1465,-5.3234,-5.4981,-5.6677,-5.8403,-5.9377,-5.956,-5.9729,-5.9612,-5.9208,-5.9208,-5.9208,-5.9208,-5.8804,-5.8841,-5.9221,-5.9625,-6.0015,-6.0493,-6.1704,-6.2218,-6.2218,-6.2218,-6.1961,-6.1594,-6.1594,-6.1337,-6.0982,-6.0933,-6.0534,-5.9738,-5.8007,-5.7304,-5.6746,-5.4635,-5.2976,-5.1217,0.0,0.0,0.0,0.0,0.0,0.0,0.0,0.0,0.0,0.0,0.0,0.0,0.0,0.0,-5.3788,-5.4905,0.0,-5.9471,-6.2482,-6.5121,-6.732,-6.8842,-7.0026,-7.0906,-7.1278,-7.0973,-7.0737,-7.0737,-7.0432,-6.9891,-6.9147,-6.8741,-6.8166,-6.7387,-6.5967,-6.4647,-6.3531,-6.1704,-5.9607,-5.7374,-5.6258,-5.5141,-5.4059,-5.3687,-5.3145,-5.2499,-5.2092,-5.1405,-5.0598,-5.0222,-4.9937,-4.9674,-4.9039,-4.7864,-4.6488,-4.6507,-4.6086,-4.5397,-4.5397,-4.4458,-4.3138,-3.9957,-3.9564,-3.9095,-3.9093,-3.9631,-4.0093,-4.0288,-4.1646,-4.2864,-4.3539,-4.5539,-4.716,-4.7817,-4.8625,-4.8856,-4.8163,-4.8385,-4.967,-5.2253,-5.4523,-5.6852,-5.9355,-6.0379,-6.1011,-6.132,-6.0955,-6.0662,-6.0419,-6.0419,-6.0419,-6.0419,-6.0419,-6.0162,-5.9685,-6.0346,-6.0713,-6.0933,-6.1557,-6.2218,-6.2805,-6.2658,-6.2181,-6.1557,-6.141,-6.1887,-6.2585,-6.2585,-6.118,-5.9313,-5.9165,-5.8151,-5.6881,-5.6194,-5.5447,-5.4127,-5.0507,-4.9661,0.0,0.0,0.0,0.0,0.0,0.0,0.0,0.0,-5.1183,-5.1894,-5.3687,-5.5615,-5.7476,-5.893,-6.0825,-6.2821,-6.4884,-6.688,-6.8132,-6.8132,-6.9316,-7.0398,-7.1041,-7.0432,-6.9992,-6.9992,-6.9451,-6.9045,-6.8876,-6.8267,-6.7827,-6.7692,-6.5155,-6.3599,-6.3294,-6.0655,-5.8389,-5.6596,-5.6021,-5.4972,-5.3518,-5.3518,-5.284,-5.1645,-5.1509,-5.0822,-4.968,-4.9569,-4.9462,-4.9282,-4.8032,-4.6687,-4.5444,-4.5188,-4.5206,-4.5363,-4.5225,-4.4251,-4.2965,0.0,-4.0894,-4.0811,-4.0801,-4.0875,-4.1225,-4.2006,-4.3479,-4.4495,-4.4481,-4.5938,-4.6986,-4.7018,-4.7778,-4.8202,-4.8125,-4.9461,-5.1666,-5.486,-5.7379,-5.9989,-6.2804,-6.3795,-6.3577,-6.2175,-6.2109,-6.1527,-6.0419,-6.0419,-6.0419,-6.0419,-6.0419,-6.075,-6.1337,-6.141,-6.1851,-6.2548,-6.2658,-6.2707,-6.2768,-6.2034,-6.1667,-6.152,-6.0823,-6.1043,-6.1741,-6.1741,-6.0461,-5.8766,-5.8501,-5.7604,-5.661,-5.6847,-5.6436,-5.5179,-5.1926,-5.0101,-4.8443,-4.5297,-4.5196,-4.6718,-4.9932,-4.9796,-5.0473,0.0,-5.6934,-5.6867,-5.9708,-6.1028,-6.211,-6.3565,-6.458,-6.5696,-6.7286,-6.8335,-6.8977,-6.8977,-6.9688,-7.0229,-7.0297,-6.9654,-6.9214,-6.9214,-6.9147,-6.8808,-6.8098,-6.7963,-6.7624,-6.6981,-6.5392,-6.3869,-6.255,-6.0858,-5.866,-5.5852,-5.575,-5.4972,-5.3518,-5.3518,-5.3044,-5.2197,-5.1554,-5.0905,-5.0277,-4.9868,-4.936,-4.8787,-4.7883,-4.7052,-4.6301,-4.4712,-4.4627,-4.5328,-4.4665,-4.3448,-4.2137,0.0,-4.1087,-4.1081,-4.1111,-4.1109,-4.1381,-4.2279,-4.2941,-4.3669,-4.4604,-4.5192,-4.5733,-4.6214,-4.6031,-4.6086,-4.6586,-4.9106,-5.1834,-5.4687,-5.8527,-6.1701,-6.3863,-6.4495,-6.448,-6.3783,-6.3488,-6.296,-6.2193,-6.2193,-6.2066,-6.1814,-6.1814,-6.1741,-6.163,-6.2108,-6.2218,-6.2144,-6.2622,-6.278,-6.2732,-6.1924,-6.13,-6.086,-6.0529,-5.9758,-5.8804,-5.8804,-5.7883,0.0,0.0,-5.5119,-5.4657,-5.5519,-5.4941,-5.3582,-5.1248,-5.0101,-4.9357,-4.8139,-4.8037,-4.8849,-5.1251,-5.2063,-5.345,-5.7983,-5.8863,-5.9438,-6.2076,-6.3497,-6.4512,-6.5121,-6.617,-6.7184,-6.7793,-6.8944,-6.9586,-6.9147,-6.935,-6.9214,-6.8335,-6.7963,-6.8132,-6.9011,-6.8673,-6.8098,-6.732,-6.6846,-6.6305,-6.5561,-6.3734,-6.2415,-6.1772,-5.9438,-5.7611,-5.6359,-5.548,-5.4532,-5.3484,-5.3044,-5.2401,-5.1657,-5.0913,-5.0263,-4.9671,-4.9163,-4.8586,-4.7973,-4.7279,-4.6301,-4.5251,-4.4913,-4.4767,-4.4734,-4.4311,-4.3545,-4.2689,0.0,-4.1279,-4.1468,-4.1461,-4.1656,-4.1967,-4.2357,-4.2761,-4.347,-4.4656,-4.4895,-4.5156,-4.5736,-4.5125,-4.4893,-4.5556,-4.8288,-5.1144,-5.3838,-5.827,-6.172,-6.3848,-6.4616,-6.4896,-6.4792,-6.4464,-6.4094,-6.3653,-6.3653,-6.3476,-6.3144,-6.3144,-6.2849,-6.2318,-6.278,-6.2658,-6.2142,-6.2598,-6.278,-6.2743,-6.2181,-6.1337,-6.0346,-5.9905,-5.8107,-5.5868,-5.6308,-5.5303,0.0,0.0,-5.1688,-5.13,-5.214,-5.1811,-5.0861,-4.9554,-4.9052,-4.8984,-4.939,-4.9627,-5.0236,-5.2164,-5.3788,-5.5683,-5.8626,-5.9911,-6.1061,-6.3362,-6.4647,-6.5527,-6.5933,-6.688,-6.759,-6.759,-6.8876,-6.9553,-6.8605,-6.8639,-6.8267,-6.6981,-6.6812,-6.7184,-6.8064,-6.7624,-6.7083,-6.6542,-6.5797,-6.5053,-6.4343,-6.2381,-6.1298,-6.1298,-5.8389,-5.6799,-5.6799,-5.5141,-5.3923,-5.3179,-5.2367,-5.1725,-5.1183,-5.0439,-4.9653,-4.8889,-4.8498,-4.786,-4.7077,-4.6694,-4.575,-4.4578,-4.4923,-4.4742,-4.4251,-4.3915,-4.3528,-4.3172,0.0,0.0,-4.2366,-4.2358,-4.306,-4.3333,-4.2513,-4.3839,-4.4877,-4.4816,-4.5549,-4.5992,-4.5834,-4.5665,-4.5556,-4.5594,-4.7163,-4.9596,-5.2905,-5.6264,-5.9575,-6.2915,-6.4526,-6.522,-6.4792,-6.4775,-6.4538,-6.4076,-6.4076,-6.4056,-6.4056,-6.4056,-6.4056,-6.3998,-6.3631,-6.349,-6.3408,-6.299,-6.278,-6.278,-6.2743,-6.1814,-6.0236,-5.8657,-5.6088,-5.3497,-5.506,0.0,0.0,0.0,-4.7369,-4.6219,-4.6344,-4.6812,-4.73,-4.6975,-4.638,-4.6143,-4.7567,-4.8511,-4.9763,-5.2739,-5.4566,-5.6461,-5.9404,-6.0689,-6.1907,-6.4106,-6.4613,-6.5087,-6.6508,-6.6812,-6.6846,-6.6846,-6.8132,-6.8605,-6.7083,-6.7489,-6.7658,-6.6914,-6.6812,-6.6542,-6.5865,-6.5764,-6.573,-6.573,-6.5053,-6.4309,-6.3599,-6.211,-6.1298,-6.1298,-5.8389,-5.6799,-5.6799,-5.4634,-5.3145,-5.2334,-5.1589,-5.1219,-5.1183,-5.0439,-4.9382,-4.8141,-4.8107,-4.7374,-4.615,-4.6282,-4.5856,-4.51,-4.4413,-4.4216,-4.4182,-4.3365,-4.3081,-4.3069,0.0,0.0,0.0,0.0,0.0,-4.3606,-4.3294,-4.427,-4.5201,-4.5733,-4.5462,0.0,0.0,0.0,0.0,0.0,-4.7696,-4.9923,-5.2162,-5.595,-5.8846,-6.0456,-6.3197,-6.4305,-6.3565,-6.4632,-6.5268,-6.5351,-6.5351,-6.5199,-6.496,-6.496,-6.466,-6.4076,-6.3971,-6.3909,-6.3888,-6.3445,-6.3126,-6.2715,-6.1084,-5.9946,-5.8961,-5.6551,-5.3592,-5.0729,0.0,0.0,0.0,-4.4557,-4.3629,-4.3115,-4.3769,-4.3407,-4.2791,-4.301,-4.4316,-4.6041,-4.75,-4.9123,-5.1183,-5.4228,-5.5716,-5.734,-6.0825,-6.1839,-6.2381,-6.3632,-6.3091,-6.2245,-6.1738,-6.2482,-6.3328,-6.3802,-6.6373,-6.8301,-6.8335,-6.8538,-6.803,-6.6271,-6.6068,-6.5595,-6.4377,-6.5121,-6.529,-6.4309,-6.3565,-6.2584,-6.1332,-6.0757,-6.0047,-5.9066,-5.7577,-5.6325,-5.5344,-5.3585,-5.2334,-5.1589,-5.0811,-5.0202,-4.9729,-4.9492,-4.888,-4.7958,-4.7539,-4.6844,-4.5914,-4.5165,-4.4688,-4.4448,-4.4311,-4.3949,-4.3552,-4.3225,-4.2812,-4.2378,0.0,0.0,0.0,0.0,0.0,0.0,0.0,0.0,0.0,0.0,0.0,0.0,0.0,0.0,0.0,0.0,0.0,-4.874,-5.0423,-5.3618,-5.6057,-5.7467,-5.9829,-6.11,-6.1096,-6.1593,-6.2406,-6.3519,-6.3519,-6.3706,-6.4028,-6.4368,-6.4368,-6.4103,-6.3653,-6.3634,-6.3822,-6.282,-6.1881,-6.0902,-5.89,-5.7402,-5.6091,-5.3613,-5.0839,0.0,0.0,0.0,0.0,-4.1766,-4.1045,-4.058,-4.1313,-4.1219,-4.0966,-4.1764,-4.3944,-4.6583,-4.8883,-5.0744,-5.2706,-5.5412,-5.6664,-5.7881,-6.0554,-6.1197,-6.1332,-6.1806,-6.0926,-5.9708,-5.8457,-5.9032,-5.9945,-6.0655,-6.3226,-6.5595,-6.6914,-6.688,-6.644,-6.5764,-6.5222,-6.4647,-6.3971,-6.4275,-6.414,-6.3193,-6.2415,-6.1332,-5.981,-5.9708,-5.9133,-5.7915,-5.6934,-5.5818,-5.46,-5.2807,-5.142,-5.0405,-5.0202,-4.9726,-4.9046,-4.9046,-4.8504,-4.7552,-4.6588,-4.5767,-4.493,-4.3943,-4.3562,-4.3614,-4.3769,-4.3398,-4.2758,-4.2758,-4.2275,-4.1619,0.0,0.0,0.0,0.0,0.0,0.0,0.0,0.0,0.0,0.0,0.0,0.0,0.0,0.0,0.0,0.0,0.0,0.0,-4.7932,-4.9555,0.0,-5.3978,-5.4943,-5.6129,-5.7734,-5.632,-5.6702,-5.9095,-5.9095,-5.9911,-6.1478,-6.2319,-6.3121,-6.3809,-6.2553,-6.248,-6.309,-6.098,-5.9159,-5.7566,-5.6366,-5.4424,-5.2084,-5.0208,0.0,0.0,0.0,0.0,-4.0072,-4.0379,-3.9751,-3.8887,-3.9196,-4.0342,-4.1852,-4.3186,-4.5229,-4.78,-5.1352,-5.2942,-5.4126,-5.6258,-5.734,-5.8017,-5.8795,-5.893,-5.8896,-5.8795,-5.8118,-5.7306,-5.6494,-5.6461,-5.6833,-5.7577,-5.9167,-6.1061,-6.3328,-6.3091,-6.3429,-6.5459,-6.4478,-6.3869,-6.4546,-6.3294,-6.2415,-6.2347,-6.1603,-6.052,-5.9032,-5.8964,-5.8592,-5.7814,-5.6427,-5.531,-5.4431,-5.2232,-5.0405,-4.9018,-4.9695,-4.9723,-4.9199,-4.9165,-4.835,-4.6918,-4.5422,-4.4251,-4.3369,-4.2717,-4.2508,-4.2672,-4.286,-4.253,-4.1964,-4.1999,-4.155,-4.0894,0.0,0.0,0.0,0.0,0.0,0.0,0.0,0.0,0.0,0.0,0.0,0.0,0.0,0.0,0.0,0.0,0.0,0.0,-4.7201,0.0,0.0,0.0,0.0,0.0,0.0,0.0,0.0,-5.9095,-5.9095,-5.9338,-5.9759,-5.9936,-5.9873,-5.9453,-5.8491,-5.8525,-5.9197,-5.7072,-5.6109,-5.5812,0.0,-5.2088,-5.0925,0.0,0.0,0.0,0.0,-4.2543,-4.1576,-4.0778,-4.0997,-4.1692,-4.1949,-4.2954,-4.4367,-4.5694,-4.7958,-5.0405,-5.1894,-5.3687,-5.5412,-5.6528,-5.6934,-5.7273,-5.8017,-5.7746,-5.707,-5.5953,-5.4228,-5.2367,-5.0507,-5.1961,-5.389,-5.5209,-5.9505,-6.3226,-6.4884,-6.5933,-6.6305,-6.5764,-6.5358,-6.4986,-6.4647,-6.3768,-6.2753,-6.167,-6.0351,-5.9167,-5.822,-5.8186,-5.7577,-5.6325,-5.5919,-5.4532,-5.2097,-5.0405,-4.939,-4.9018,-4.9187,-4.9218,-4.9046,-4.8474,-4.7725,-4.6777,-4.5315,-4.4202,-4.3301,-4.2174,-4.1759,-4.1886,-4.2037,-4.1739,-4.124,-4.1826,-4.155,-4.0894,0.0,0.0,0.0,0.0,0.0,0.0,0.0,0.0,0.0,0.0,0.0,0.0,0.0,0.0,0.0,0.0,0.0,0.0,0.0,-4.7952,0.0,0.0,0.0,0.0,0.0,0.0,0.0,0.0,0.0,0.0,-5.581,-5.6167,-5.6282,-5.6205,-5.5326,-5.5403,-5.6116,-5.4175,0.0,0.0,0.0,0.0,0.0,0.0,0.0,0.0,0.0,-4.3351,-4.3922,-4.4086,-4.4534,-4.5023,-4.4878,-4.5845,-4.7307,-4.8605,-5.0561,-5.2602,-5.389,-5.5209,-5.6359,-5.7103,-5.7036,-5.6731,-5.6494,-5.5615,-5.4228,-5.2097,-5.0642,-4.9086,-4.6853,-4.8849,-5.1352,-5.2875,-5.6765,-6.0689,-6.3802,-6.4681,-6.529,-6.6102,-6.5228,-6.4707,-6.5046,-6.3175,-6.1589,-6.079,-5.9958,-5.9032,-5.7949,-5.7577,-5.69,-5.575,-5.5412,-5.3923,-5.1219,-4.9763,-4.9018,-4.9018,-4.9018,-4.8846,-4.8599,-4.7882,-4.7165,-4.6293,-4.4633,-4.3525,-4.2794,-4.146,-4.095,-4.106,-4.1175,-4.1057,-4.0868,-4.1354,-4.1274,-4.0894,0.0,0.0,0.0,0.0,0.0,0.0,0.0,0.0,0.0,0.0,-4.6688,0.0,0.0,0.0,0.0,0.0,0.0,0.0,0.0,0.0,0.0,0.0,0.0,0.0,0.0,0.0,0.0,0.0,0.0,0.0,0.0,0.0,0.0,0.0,0.0,0.0,0.0,0.0,0.0,0.0,0.0,0.0,0.0,0.0,0.0,0.0,-4.2964,-4.4121,-4.6268,-4.8618,-4.9109,-4.8687,-4.8383,-4.9361,-5.0763,-5.1802,-5.3172,-5.4703,-5.6462,-5.7036,-5.7239,-5.7881,-5.7408,-5.6393,-5.4803,-5.3179,-5.1183,-4.824,-4.7432,-4.6684,-4.4682,-4.6718,-4.9255,-5.0947,-5.3281,-5.663,-6.167,-6.1941,-6.2781,-6.5935,-6.4486,-6.3672,-6.4917,-6.1908,-5.9804,-5.9709,-5.9566,-5.8867,-5.7487,-5.6645,-5.584,-5.5102,-5.4498,-5.3112,-5.092,-4.9632,-4.8923,-4.8861,-4.8923,-4.8673,-4.8044,-4.7413,-4.6692,-4.579,-4.3784,-4.2688,-4.2238,-4.0824,-4.0288,-4.0337,-4.0461,-4.0583,-4.0762,-4.0847,-4.0894,-4.0894,0.0,0.0,0.0,0.0,0.0,0.0,0.0,0.0,0.0,0.0,-4.7666,-4.7276,0.0,0.0,0.0,0.0,0.0,0.0,0.0,0.0,0.0,0.0,0.0,0.0,0.0,-4.7712,-4.7712,-4.8028,-4.817,0.0,0.0,0.0,0.0,0.0,0.0,0.0,0.0,0.0,0.0,0.0,0.0,0.0,0.0,0.0,0.0,0.0,-4.4961,-4.5553,-4.6562,-5.0977,-5.2498,-5.281,-5.3765,-5.4583,-5.5201,-5.5341,-5.6337,-5.7455,-5.7683,-5.8152,-5.866,-5.8795,-5.7814,-5.6258,-5.416,-5.2029,-4.9627,-4.6684,-4.5094,-4.3876,-4.2861,-4.5162,-4.8071,-5.0777,-5.416,-5.7814,-6.1839,-6.2821,-6.3283,-6.3748,-6.3434,-6.2802,-6.1742,-6.0478,-5.9245,-5.8204,-5.6941,-5.5836,-5.4986,-5.3711,-5.2663,-5.1918,-5.1833,-5.0992,-4.9393,-4.9142,-4.8704,-4.8096,-4.8736,-4.8612,-4.7898,-4.7183,-4.6525,-4.5796,-4.3403,-4.2445,-4.2336,-4.0798,-4.0263,-4.0485,-4.0485,-4.0655,-4.0847,-4.0871,-4.0894,-4.0894,0.0,0.0,0.0,0.0,0.0,0.0,0.0,-4.7978,-4.915,-5.1802,-5.1063,-5.0789,-5.1997,-5.16,-5.1285,0.0,0.0,0.0,0.0,0.0,0.0,0.0,0.0,0.0,0.0,-4.7111,-4.692,-4.65,0.0,-4.692,-4.65,-4.608,-4.6118,-4.6462,-4.566,-4.5736,-4.6462,0.0,0.0,-4.5889,-4.5927,-4.5746,0.0,0.0,0.0,0.0,0.0,-4.6544,-4.7131,-5.1206,-5.2929,-5.375,-5.5711,-5.639,-5.6484,-5.6752,-5.7535,-5.8415,-5.8572,-5.8801,-5.9032,-5.9032,-5.7306,-5.4972,-5.2334,-4.9695,-4.6955,-4.3978,-4.2794,-4.2049,-4.1271,-4.3633,-4.6346,-4.8545,-5.1725,-5.548,-6.0013,-6.1264,-6.1963,-6.258,-6.2233,-6.1175,-5.9318,-5.8022,-5.6905,-5.6013,-5.4196,-5.3495,-5.4355,-5.303,-5.203,-5.1742,-5.0992,-5.0259,-4.9591,-4.9179,-4.8608,-4.7901,-4.827,-4.8037,-4.7293,-4.6636,-4.5948,-4.5218,-4.3394,-4.2576,-4.2388,-4.0925,-4.0337,-4.0412,-4.0485,-4.0607,-4.0799,-4.0871,-4.0894,-4.0894,0.0,0.0,0.0,0.0,0.0,0.0,-4.8525,-4.9111,-5.0594,-5.4108,-5.4693,-5.4888,-5.5083,-5.3916,-5.2941,0.0,0.0,0.0,0.0,0.0,0.0,0.0,0.0,0.0,0.0,0.0,0.0,-4.5545,-4.6385,0.0,0.0,0.0,0.0,0.0,-4.5288,-4.5288,-4.5288,-4.5288,-4.5288,0.0,0.0,-4.6275,0.0,0.0,0.0,0.0,0.0,-4.6856,-4.7516,-5.0288,-5.1756,-5.2868,-5.5242,-5.6313,-5.6716,-5.6838,-5.7767,-5.8829,-5.9193,-5.9417,-5.9471,-5.9302,-5.7036,-5.3991,-5.0811,-4.78,-4.4857,-4.1813,-4.1068,-4.0798,-4.0214,-4.2178,-4.4451,-4.6278,-4.8646,-5.2164,-5.7543,-5.8646,-5.9477,-6.1002,-6.0294,-5.8903,-5.6777,-5.5332,-5.4252,-5.364,-5.1829,-5.1509,-5.315,-5.2118,-5.1512,-5.1559,-5.038,-4.9654,-4.9387,-4.9115,-4.8545,-4.7671,-4.7975,-4.7665,-4.6752,-4.6293,-4.566,-4.479,-4.3381,-4.2706,-4.2474,-4.105,-4.0412,-4.0337,-4.0461,-4.0607,-4.0762,-4.0847,-4.0894,-4.0894,0.0,0.0,0.0,0.0,0.0,0.0,-4.8525,-5.0126,-5.2429,-5.5903,-5.6996,-5.7738,-5.8558,-5.6484,-5.4357,0.0,0.0,0.0,0.0,0.0,0.0,0.0,0.0,0.0,0.0,0.0,0.0,-4.6385,-4.7264,0.0,0.0,0.0,0.0,0.0,0.0,-4.5288,-4.5288,-4.5288,0.0,0.0,0.0,0.0,0.0,0.0,0.0,0.0,0.0,-4.6114,-4.7259,-4.8306,-4.9224,-5.0215,-5.1935,-5.4689,-5.7029,-5.5609,-5.7252,-5.9477,-5.9329,-6.0197,-6.0926,-6.0182,-5.778,-5.4634,-5.0947,-4.78,-4.4857,-4.1813,-4.0663,-4.018,-4.0113,-4.0865,-4.2455,-4.5331,-4.6583,-4.9255,-5.5175,-5.5375,-5.5655,-5.7604,-5.7064,-5.5632,-5.3365,-5.3001,-5.2412,-5.1299,-5.0485,-4.9756,-4.9171,-4.9127,-4.9094,-4.9123,-4.9117,-4.8461,-4.7125,-4.8357,-4.829,-4.6931,-4.8256,-4.8173,-4.6786,-4.6747,-4.6078,-4.4892,-4.3257,-4.261,-4.2646,-4.1009,-4.0387,-4.0485,-4.051,-4.0655,-4.0871,-4.0894,-4.0894,-4.0894,0.0,0.0,0.0,0.0,0.0,0.0,-4.9187,-5.0163,-5.2234,-5.6723,-5.7582,-5.8117,-5.8893,-5.8074,-5.6542,-5.4247,0.0,0.0,0.0,0.0,0.0,0.0,0.0,0.0,0.0,0.0,-4.6997,-4.8067,-4.8411,0.0,0.0,0.0,0.0,0.0,0.0,-4.5736,-4.5288,-4.5288,0.0,0.0,0.0,0.0,0.0,0.0,0.0,0.0,0.0,0.0,-4.6434,-4.6764,-4.7425,-4.8196,-4.8857,-5.1137,-5.3785,-5.4752,-5.6466,-5.8152,-5.8695,-5.9355,-5.9844,-5.9539,-5.619,-5.2401,-4.9965,-4.6447,-4.3064,-4.0967,-4.0316,-4.0113,-4.0113,-4.035,-4.1204,-4.3301,-4.4282,-4.638,-5.1014,-5.1765,-5.2549,-5.459,-5.4879,-5.4147,-5.2277,-5.2113,-5.1382,-4.9657,-4.9747,-4.9353,-4.806,-4.8035,-4.8279,-4.8801,-4.8015,-4.7345,-4.6805,-4.7836,-4.7836,-4.6795,-4.7008,-4.6965,-4.6752,-4.5576,-4.4739,-4.4304,-4.321,-4.2544,-4.2115,-4.1003,-4.0558,-4.0607,-4.0607,-4.0728,-4.0894,-4.0894,-4.0894,-4.0894,0.0,0.0,0.0,0.0,0.0,-4.5753,-4.9187,-5.0163,-5.2156,-5.684,-5.7894,-5.8379,-5.8845,-5.8685,-5.777,-5.5864,-5.3773,0.0,0.0,0.0,0.0,0.0,0.0,0.0,0.0,0.0,-4.822,-4.9442,-4.9939,-5.0054,0.0,0.0,-4.8907,-4.7264,0.0,0.0,0.0,0.0,0.0,0.0,0.0,0.0,0.0,0.0,0.0,0.0,0.0,0.0,0.0,0.0,0.0,-4.6709,-4.6452,-4.8015,-5.0379,-5.263,-5.4739,-5.6544,-5.7261,-5.8275,-5.9069,-5.8998,-5.5243,-5.1082,-4.939,-4.5534,-4.188,-4.0417,-4.0113,-4.0113,-4.0113,-4.0113,-4.0519,-4.1779,-4.2591,-4.426,-4.7591,-4.8482,-4.9457,-5.1327,-5.1741,-5.1512,-5.058,-5.0667,-5.0174,-4.8727,-4.9178,-4.8948,-4.769,-4.7404,-4.7588,-4.8193,-4.7024,-4.6424,-4.6465,-4.7399,-4.7307,-4.6194,-4.6352,-4.6344,-4.6148,-4.4691,-4.4002,-4.386,-4.2912,-4.2243,0.0,-4.0988,-4.0714,-4.0714,-4.0714,-4.0776,-4.0894,-4.0894,-4.0894,-4.0894,0.0,0.0,0.0,0.0,0.0,0.0,-4.8291,-5.0282,-5.2624,-5.6138,-5.805,-5.9042,-5.8923,-5.8139,-5.7509,-5.7198,-5.4779,0.0,0.0,0.0,0.0,0.0,0.0,0.0,0.0,0.0,-5.0283,-5.0283,-5.1964,-5.2346,-5.1582,-5.1582,-5.0665,-4.9033,0.0,0.0,0.0,0.0,0.0,0.0,0.0,0.0,-4.9033,0.0,0.0,0.0,0.0,0.0,0.0,0.0,0.0,0.0,0.0,-4.5828,-4.7397,-4.8849,-5.1977,-5.4938,-5.5102,-5.7154,-5.9253,-5.9069,-5.5615,-5.1725,-4.9492,-4.5534,-4.188,-4.0417,-4.0113,-4.0113,-4.0113,-4.0113,-4.035,-4.1102,-4.1813,-4.3143,-4.5504,-4.5734,-4.6223,-4.7786,-4.7193,-4.6951,-4.7588,-4.8235,-4.8635,-4.8604,-4.8604,-4.8327,-4.765,-4.6973,-4.6617,-4.6697,-4.6076,-4.5697,-4.5697,-4.7171,-4.6811,-4.4756,-4.6873,-4.676,-4.4749,-4.4635,-4.4347,-4.3799,-4.2296,-4.1688,0.0,-4.0988,-4.0714,-4.0714,-4.0714,-4.0776,-4.0894,-4.0894,-4.0894,-4.0894,0.0,0.0,0.0,0.0,0.0,0.0,-4.5948,-4.7094,-4.9214,-5.327,-5.4169,-5.5063,-5.6749,-5.665,-5.6396,-5.6133,-5.4873,0.0,0.0,0.0,0.0,0.0,0.0,0.0,0.0,-4.9748,-5.1162,-5.2919,-5.4027,-5.4448,-5.418,-5.3607,-5.2117,-4.9862,-4.906,-4.822,0.0,0.0,0.0,0.0,0.0,-5.055,-5.0756,0.0,0.0,0.0,0.0,0.0,0.0,0.0,0.0,0.0,0.0,0.0,0.0,-4.6227,-4.8976,-5.2124,-5.1363,-5.2524,-5.3684,-5.2468,-4.9593,-4.6853,-4.6172,-4.3295,-4.0654,-4.0214,-4.0113,-4.0113,-4.0113,-4.0113,-4.0519,-4.1745,-4.2151,-4.2772,-4.4049,-4.5004,-4.5958,-4.6914,-4.8413,-4.9312,-4.9035,-4.922,-4.9127,-4.8666,-4.8604,-4.8112,-4.6973,-4.6726,-4.6383,-4.5973,-4.529,-4.4955,-4.4955,-4.5897,-4.5818,-4.4725,-4.5404,-4.5066,-4.386,-4.3485,-4.2962,-4.2296,-4.1918,-4.1503,-4.1168,-4.0927,-4.0823,-4.0823,-4.0823,-4.0847,-4.0894,-4.0894,-4.0894,-4.0894,0.0,0.0,0.0,0.0,0.0,0.0,-4.4287,-4.5387,-4.7416,-5.101,-5.1968,-5.3113,-5.5255,-5.5462,-5.5518,-5.5566,-5.5122,0.0,0.0,0.0,0.0,0.0,0.0,0.0,-5.0054,-5.0818,-5.2346,-5.46,-5.5441,-5.6014,-5.632,-5.5441,-5.4027,-5.2155,-5.0703,-4.9557,0.0,0.0,0.0,0.0,-5.0894,-5.1123,-5.11,0.0,0.0,0.0,0.0,0.0,0.0,0.0,0.0,0.0,0.0,0.0,0.0,0.0,-4.6173,-4.8529,-4.8192,-4.9388,-5.0481,-4.9283,-4.6786,-4.4615,-4.4615,-4.2279,-4.0113,-4.0113,-4.0316,-4.0451,-4.0146,-4.035,-4.0721,-4.1419,-4.1969,-4.2399,-4.2668,-4.4171,-4.5389,-4.5802,-4.7809,-4.8974,-4.8573,-4.8974,-4.9097,-4.8635,-4.8389,-4.7742,-4.6665,-4.6357,-4.5803,-4.4849,-4.4456,-4.424,-4.424,-4.4941,-4.4703,-4.3545,-4.4325,-4.3979,-4.2709,-4.236,-4.197,-4.1613,-4.1429,-4.1199,0.0,-4.0894,-4.0894,-4.0894,-4.0894,-4.0894,-4.0894,-4.0894,-4.0894,-4.0894,0.0,0.0,0.0,0.0,0.0,0.0,0.0,-4.4919,-4.6874,-4.9282,-5.1014,-5.2608,-5.4143,-5.4417,-5.4699,-5.5266,-5.5375,0.0,0.0,0.0,0.0,0.0,0.0,0.0,-5.1658,-5.2422,-5.3683,-5.5479,-5.6282,-5.7122,-5.7963,-5.7084,-5.6243,-5.5288,-5.2881,-5.1276,-5.0436,-4.9633,-4.9786,-5.055,-5.0359,-5.0347,0.0,0.0,0.0,0.0,0.0,0.0,0.0,0.0,0.0,0.0,0.0,0.0,0.0,0.0,0.0,0.0,0.0,-4.7318,-4.8933,-4.8501,-4.6312,-4.4276,-4.4276,-4.211,0.0,-4.0113,-4.0629,-4.0933,-4.0282,-4.0696,-4.0927,-4.0376,-4.139,-4.204,-4.1497,-4.3283,-4.4695,-4.4809,-4.5957,-4.6726,-4.6665,-4.7835,-4.8604,-4.8543,-4.7958,-4.7281,-4.6573,-4.5865,-4.4949,-4.3655,-4.3501,-4.3501,-4.3531,-4.4206,-4.3572,-4.1621,-4.3528,-4.3365,-4.1324,-4.1379,-4.1452,-4.151,-4.0915,-4.0786,-4.0894,-4.0894,-4.0894,-4.0894,-4.0894,-4.0894,-4.0894,-4.0894,-4.0894,-4.0894,0.0,0.0,0.0,0.0,0.0,0.0,0.0,0.0,0.0,0.0,-4.8438,-4.9661,-5.1366,-5.2623,-5.3393,0.0,0.0,0.0,0.0,0.0,0.0,0.0,0.0,0.0,-5.2499,-5.269,-5.3951,-5.632,-5.716,-5.8001,-5.8803,-5.7963,-5.6816,-5.5326,-5.4065,-5.3034,-5.2155,-5.1353,-5.1849,-5.3034,-5.1085,-5.0926,0.0,0.0,0.0,0.0,-4.8712,-4.8381,0.0,0.0,0.0,0.0,0.0,0.0,0.0,0.0,-4.2974,-4.3306,-4.2157,0.0,-4.4019,-4.2535,-4.167,-4.1162,0.0,-4.062,-4.0113,-4.0113,-4.0248,-4.0485,-4.0865,-4.0595,-4.0516,-4.1056,-4.1347,-4.1544,-4.1466,-4.3706,-4.575,-4.6757,-4.7619,-4.7927,-4.7404,-4.8112,-4.8389,-4.7865,-4.7681,-4.7096,-4.5895,-4.5187,-4.4456,-4.3624,-4.2571,-4.2325,-4.2817,-4.3025,-4.2585,-4.1621,-4.2514,-4.2071,-4.055,-4.1144,-4.1146,-4.0749,-4.0734,-4.0786,-4.0894,-4.0894,-4.0894,-4.0894,-4.0894,-4.0894,-4.0894,-4.0894,-4.0894,-4.0894,0.0,0.0,0.0,0.0,0.0,0.0,0.0,0.0,0.0,0.0,-4.752,-4.8652,-5.0308,-5.1973,-5.2924,0.0,0.0,0.0,0.0,0.0,0.0,0.0,0.0,-5.204,-5.3378,-5.3416,-5.4639,-5.7199,-5.7275,-5.8116,-5.9682,-5.8842,-5.7772,-5.6473,-5.483,-5.3607,-5.2728,-5.1926,-5.2346,-5.3289,-5.1002,0.0,0.0,0.0,0.0,0.0,-4.8799,-4.8346,0.0,-4.7168,-4.7352,-4.7369,0.0,0.0,0.0,0.0,-4.1828,-4.1732,-3.9892,-4.1314,-4.2961,-4.1485,-4.1128,-4.1027,-4.0663,-4.0079,-3.9503,-3.914,-3.9639,-4.0113,-4.0189,-4.0456,-4.0694,-4.0869,-4.1406,-4.2238,-4.3224,-4.4403,-4.5741,-4.7404,-4.7927,-4.8142,-4.8081,-4.8112,-4.7989,-4.7619,-4.6757,-4.5895,-4.5157,-4.4202,-4.3371,-4.2694,-4.1986,-4.1948,-4.2607,-4.2236,-4.1767,-4.1115,-4.1638,-4.1169,-3.9868,-4.0574,-4.0737,-4.051,-4.0631,-4.0786,-4.0894,-4.0894,-4.0894,-4.0894,-4.0894,-4.0894,-4.0894,-4.0894,-4.0894,-4.0894,0.0,0.0,0.0,0.0,0.0,0.0,0.0,0.0,0.0,0.0,0.0,0.0,0.0,0.0,0.0,0.0,0.0,0.0,0.0,0.0,0.0,0.0,-5.3339,-5.3263,-5.4295,-5.418,-5.5212,-5.7504,-5.7008,-5.7886,-6.0002,-5.9529,-5.8776,-5.7704,-5.5414,-5.39,-5.2984,-5.2171,-5.2285,-5.2857,-5.0754,0.0,0.0,0.0,0.0,0.0,0.0,0.0,0.0,-4.7241,-4.7259,-4.6856,-4.5425,0.0,0.0,0.0,0.0,0.0,-3.8837,-4.1094,-4.3515,-4.2129,-4.1948,-4.1948,-4.1204,-3.9986,-3.8836,-3.8328,-3.914,-3.9817,-3.9421,-4.0348,-4.0992,-4.0554,-4.1722,-4.3372,-4.5449,-4.5341,-4.568,-4.7404,-4.7681,-4.7896,-4.8266,-4.7865,-4.7465,-4.7157,-4.5557,-4.4517,-4.4295,-4.3125,-4.2202,-4.1617,-4.1401,-4.1596,-4.225,-4.1551,-4.0919,-4.0354,-4.0791,-4.0394,-3.9314,-3.9971,-4.0362,-4.051,-4.0631,0.0,-4.0894,-4.0894,-4.0894,-4.0894,-4.0894,-4.0894,-4.0894,-4.0894,-4.0894,-4.0894,0.0,0.0,0.0,0.0,0.0,0.0,0.0,0.0,0.0,0.0,0.0,0.0,0.0,0.0,0.0,0.0,0.0,0.0,0.0,0.0,0.0,-5.5212,-5.3645,-5.3531,-5.5174,-5.4486,-5.4639,-5.5785,-5.7084,-5.7886,-5.8307,-5.9606,-5.9212,-5.7362,-5.6261,-5.5147,-5.3995,-5.315,-5.3263,-5.3844,-5.1409,0.0,0.0,0.0,0.0,0.0,0.0,0.0,0.0,-4.3644,-4.4948,-4.636,-4.2092,0.0,0.0,0.0,0.0,0.0,-4.004,-4.1827,-4.2974,-4.0206,-4.046,-4.117,-4.0451,-3.9639,-3.914,-3.9673,-3.9469,-3.9531,-4.0739,-4.0647,-4.059,-4.1215,-4.2528,-4.4136,-4.6181,-4.685,-4.725,-4.7558,-4.8112,-4.805,-4.7004,-4.7342,-4.688,-4.5187,-4.4756,-4.4079,-4.2971,-4.2171,-4.1709,-4.1586,-4.0447,-4.0137,-4.083,-4.0146,-3.9784,-3.966,-3.9615,-3.9502,-3.9314,-3.9971,-4.0362,-4.051,0.0,-4.0786,-4.0894,-4.0894,-4.0894,-4.0894,-4.0894,-4.0894,-4.0894,-4.0894,-4.0894,-4.0894,0.0,0.0,0.0,0.0,0.0,0.0,0.0,0.0,0.0,0.0,0.0,0.0,0.0,0.0,0.0,0.0,0.0,0.0,0.0,0.0,-5.5403,-5.5403,-5.4639,-5.46,-5.5403,-5.5441,-5.5861,-5.674,-5.7963,-5.8803,-5.9224,-5.8878,-5.8091,-5.692,-5.5675,-5.4823,-5.4242,-5.3378,-5.3491,-5.4037,0.0,0.0,0.0,0.0,0.0,0.0,0.0,0.0,0.0,0.0,-4.3903,-4.4619,-4.1948,0.0,0.0,0.0,0.0,0.0,-3.8026,-3.9433,-4.0875,-3.9851,-4.1644,-4.3335,-4.2151,-4.1305,-4.0629,-4.018,-4.0485,-4.0751,-4.0735,-4.1399,-4.2363,-4.3537,-4.3932,-4.4733,-4.6357,-4.6542,-4.6634,-4.7004,-4.7342,-4.7281,-4.6665,-4.6542,-4.6142,-4.5187,-4.4486,-4.3618,-4.2663,-4.1955,-4.1432,-4.1032,-4.0351,-3.9998,-3.9959,-3.929,-3.8982,-3.8935,-3.9198,-3.9124,-3.8792,-3.9752,-4.0313,-4.051,0.0,-4.0704,-4.0894,-4.0894,-4.0894,-4.0894,-4.0894,-4.0894,-4.086,-4.0388,-4.025,-4.0204,0.0,0.0,0.0,0.0,0.0,0.0,0.0,0.0,0.0,0.0,0.0,0.0,0.0,0.0,0.0,0.0,0.0,0.0,0.0,-5.4715,-5.5212,-5.5403,-5.5403,-5.5479,-5.567,-5.6282,-5.6931,-5.7581,-5.8612,-5.9488,-6.0232,-5.8356,-5.7167,-5.6518,-5.5095,-5.431,-5.3979,-5.3344,-5.3418,-5.3811,0.0,0.0,0.0,0.0,0.0,0.0,0.0,0.0,0.0,0.0,0.0,0.0,0.0,0.0,0.0,-3.9025,-3.7958,-3.7457,-3.6433,-3.754,-3.9174,-3.9918,-4.2252,-4.4316,-4.4012,-4.2963,-4.1948,-4.1737,-4.2146,-4.225,-4.1205,-4.2263,-4.3746,-4.5132,-4.5187,-4.5464,-4.6665,-4.6388,-4.6203,-4.6542,-4.6603,-4.6542,-4.6357,-4.5895,-4.5464,-4.5164,-4.4055,-4.3063,-4.2417,-4.1709,-4.1093,-4.0505,-4.0197,-3.9767,-3.9244,-3.8446,-3.8119,-3.8275,-3.8806,-3.8829,-3.8334,-3.9532,-4.0238,-4.0461,-4.0485,-4.0631,-4.0847,-4.0871,-4.0894,-4.0894,-4.0894,-4.0894,-4.0825,-4.0204,-3.9733,-3.9388,0.0,0.0,0.0,0.0,0.0,0.0,0.0,0.0,0.0,0.0,0.0,0.0,0.0,0.0,0.0,0.0,0.0,0.0,0.0,-5.4142,-5.4562,-5.5365,-5.5403,-5.5747,-5.6511,-5.6549,-5.6625,-5.6702,-5.8307,-5.9335,-5.9804,-5.8562,-5.736,-5.6194,-5.5321,-5.4326,-5.3272,-5.3198,-5.3235,-5.3198,-5.2222,0.0,0.0,0.0,0.0,0.0,0.0,0.0,0.0,0.0,0.0,0.0,0.0,0.0,-4.005,-3.8715,-3.742,-3.662,-3.7558,-3.8391,-3.9174,-3.9943,-4.029,-4.1381,-4.479,-4.3335,-4.2252,-4.5602,-4.4737,-4.3353,-4.3422,-4.3045,-4.3112,-4.4456,-4.568,-4.6696,-4.7434,-4.7496,-4.725,-4.6665,-4.6603,-4.6357,-4.5711,-4.5618,-4.5064,-4.384,-4.3063,-4.2386,-4.1709,-4.1001,-4.0536,-4.0505,-3.9308,-3.8631,-3.8569,-3.7277,-3.6969,-3.7588,-3.812,-3.8343,-3.8334,-3.9532,-4.0188,-4.0313,-4.0436,-4.0583,-4.0704,-4.0847,-4.0894,-4.0894,-4.0894,-4.0894,-4.0894,-4.0825,-3.9928,-3.887,0.0,0.0,0.0,0.0,0.0,0.0,0.0,0.0,0.0,0.0,0.0,-5.2996,-5.3531,0.0,0.0,0.0,0.0,0.0,0.0,-5.3798,-5.4486,-5.5365,-5.5403,-5.5785,-5.6587,-5.7122,-5.7657,-5.8154,-5.9063,-5.9635,-5.9796,-5.721,-5.5909,-5.5638,-5.3734,-5.2968,-5.3082,-5.3082,-5.3124,-5.3093,-5.1793,-5.1059,0.0,0.0,0.0,0.0,0.0,0.0,0.0,0.0,-3.9909,-4.0372,-3.9484,-3.9246,-3.9004,-3.7764,-3.6885,-3.6337,-3.648,-3.7733,-3.9174,-3.991,-4.0113,-4.0967,-4.4248,-4.4823,-4.5094,-4.6515,-4.6784,-4.6422,-4.512,-4.3626,-4.3187,-4.491,-4.5649,-4.6203,-4.688,-4.6973,-4.6726,-4.6049,-4.5957,-4.5711,-4.5033,-4.501,-4.4572,-4.3685,-4.3377,-4.2725,-4.1648,-4.0909,-4.0505,-4.0505,-3.9216,-3.8508,-3.8508,-3.7584,-3.725,-3.7465,-3.8008,-3.8474,-3.8892,-3.9722,-4.0163,-4.0288,-4.0436,-4.0583,-4.0714,-4.0823,-4.0894,-4.086,-4.0342,-4.0146,-4.0043,-3.9134,-3.841,-3.7927,0.0,0.0,0.0,0.0,0.0,0.0,0.0,0.0,-5.0627,0.0,0.0,0.0,0.0,-5.311,0.0,0.0,0.0,0.0,-5.2384,-5.2996,-5.3683,-5.4524,-5.46,-5.5097,-5.6205,-5.6816,-5.7679,-5.8916,-5.924,-5.929,-5.8932,-5.6224,-5.5101,-5.5218,-5.2996,-5.2506,-5.3346,-5.2791,-5.249,-5.2281,-5.1124,-5.0371,0.0,0.0,0.0,0.0,0.0,0.0,0.0,0.0,-3.8919,-3.909,-3.907,-3.8636,-3.8028,-3.7455,-3.6707,-3.6019,-3.5689,-3.6715,-3.8125,-3.886,-3.9605,-4.0865,-4.3904,-4.5534,-4.6853,-4.824,-4.8425,-4.769,-4.5646,-4.3826,-4.3187,-4.4972,-4.5434,-4.5741,-4.6203,-4.6265,-4.6018,-4.5341,-4.528,-4.5095,-4.4633,-4.4425,-4.4117,-4.3624,-4.3223,-4.2571,-4.1648,-4.0724,-4.0166,-4.0166,-3.8908,-3.82,-3.82,-3.7523,-3.7251,-3.7417,-3.8026,-3.8613,-3.9216,-3.9825,-4.0163,-4.0238,-4.0436,-4.0558,-4.0631,-4.0823,-4.0894,-4.086,-4.0284,-3.9905,-3.956,-3.8582,-3.7892,-3.7443,0.0,0.0,0.0,0.0,0.0,0.0,0.0,0.0,-5.0627,-5.1505,-5.1608,0.0,0.0,0.0,0.0,0.0,0.0,0.0,-5.1544,-5.157,-5.1964,-5.2728,-5.2805,-5.3607,-5.5365,-5.539,-5.6387,-5.8467,-5.8558,-5.8037,-5.6953,-5.5904,-5.5291,-5.5103,-5.3498,-5.3288,-5.4056,-5.2302,-5.1192,-5.0602,-5.0462,-4.9435,-4.7992,0.0,0.0,0.0,0.0,0.0,0.0,0.0,-3.8991,-3.8598,-4.0161,-3.8939,-3.7075,-3.7833,-3.6913,-3.5633,-3.56,-3.5633,-3.5825,-3.6626,-3.8497,-4.0907,-4.3938,-4.5196,-4.6955,-5.1386,-4.9426,-4.6483,-4.488,-4.3494,-4.3033,-4.4356,-4.5126,-4.5557,-4.5557,-4.5557,-4.5311,-4.4671,-4.461,-4.461,-4.461,-4.3994,-4.3593,-4.3593,-4.2325,-4.1586,-4.1586,-4.0262,-3.9459,-3.9459,-3.82,-3.7492,-3.7492,-3.6846,-3.6816,-3.7417,-3.7994,-3.8613,-3.9216,-3.9825,-4.0113,-4.0138,-4.0387,-4.051,-4.0534,-4.0776,-4.0894,-4.0894,-4.0894,-4.0411,-3.9698,-3.9664,-3.8732,-3.7581,0.0,0.0,0.0,0.0,0.0,0.0,0.0,0.0,-5.0627,-5.1505,-5.1608,0.0,0.0,0.0,0.0,0.0,0.0,0.0,-5.0665,-5.0703,-5.1085,-5.1926,-5.2499,-5.3315,-5.4371,-5.4436,-5.5053,-5.6315,-5.655,-5.604,-5.4891,-5.4506,-5.4027,-5.3386,-5.2241,-5.1645,-5.1428,-5.0911,-5.0611,-5.0425,-4.9799,-4.894,-4.7882,0.0,0.0,0.0,0.0,0.0,0.0,0.0,0.0,0.0,-3.8384,-3.8457,-3.8237,-3.7165,-3.7031,-3.6986,-3.5904,-3.6772,-3.8159,-3.8937,-4.0772,-4.3098,-4.5568,-4.6312,-4.711,-4.9425,-4.7933,-4.5973,-4.5457,-4.3831,-4.2879,-4.3778,-4.3648,-4.3648,-4.4148,-4.3771,-4.3433,-4.3217,-4.3587,-4.3716,-4.3248,-4.347,-4.3223,-4.2263,-4.1832,-4.1186,-4.0201,-3.9308,-3.8816,-3.8816,-3.7492,-3.703,-3.7492,-3.6846,-3.7028,-3.8055,-3.8193,-3.8613,-3.9216,-3.9825,-4.0113,-4.0113,-4.0288,-4.0412,-4.0534,-4.0776,-4.0894,-4.086,-4.0284,-3.9595,-3.8836,-3.8318,-3.7525,-3.6697,0.0,0.0,0.0,0.0,0.0,0.0,-5.0283,-5.0283,-5.0474,-5.1009,-5.1085,-5.1391,0.0,0.0,0.0,0.0,0.0,0.0,0.0,-5.0107,-5.0527,-5.1047,-5.1495,-5.2196,-5.3176,-5.3202,-5.333,-5.3572,-5.4314,-5.4386,-5.3872,-5.3885,-5.3766,-5.3539,-5.2997,-5.2331,-5.1645,-5.0983,-5.0192,-4.9373,-4.8837,-4.7943,-4.6815,0.0,0.0,0.0,0.0,0.0,0.0,0.0,0.0,0.0,-3.7667,-3.7845,-3.7971,-3.6686,-3.6625,-3.6874,-3.6231,-3.728,-3.8802,-3.9851,-4.2016,-4.4485,-4.6718,-4.7699,-4.8334,-4.9154,-4.7691,-4.6099,-4.5725,-4.4198,-4.3125,-4.3531,-4.3285,-4.3033,-4.3156,-4.2848,-4.2602,-4.2602,-4.294,-4.3033,-4.2633,-4.2725,-4.2448,-4.1648,-4.1093,-4.0416,-3.9554,-3.8631,-3.8108,-3.8108,-3.7061,-3.6692,-3.7092,-3.6692,-3.6967,-3.7969,-3.8165,-3.8613,-3.9216,-3.9825,-4.0113,-4.0113,-4.0238,-4.0412,-4.0583,-4.0752,-4.0847,-4.086,-4.0377,-3.9549,-3.8548,-3.8099,-3.7215,-3.6284,0.0,0.0,-4.6385,-4.566,0.0,0.0,-5.0283,-5.0283,-5.0283,-5.0283,-5.0283,-5.0588,0.0,0.0,0.0,-5.1314,-5.0653,-4.9851,-4.9137,-4.9651,-5.0021,-5.0183,-5.0228,-5.0827,-5.2074,-5.1955,-5.1531,-5.0848,-5.2118,-5.2926,-5.3277,-5.3684,-5.4119,-5.4581,-5.4653,-5.423,-5.3367,-5.1584,-4.9612,-4.7647,-4.7524,-4.6468,-4.4983,-4.5055,0.0,0.0,0.0,0.0,0.0,0.0,0.0,0.0,-3.7578,-3.7241,-3.6936,-3.6381,-3.6022,-3.5938,-3.6626,-3.7449,-3.8464,-3.9943,-4.2584,-4.5331,-4.753,-4.8984,-4.9852,-4.972,-4.8264,-4.6705,-4.5701,-4.4463,-4.3593,-4.3531,-4.347,-4.3223,-4.2602,-4.2448,-4.2417,-4.2417,-4.2479,-4.2479,-4.2417,-4.1925,-4.1555,-4.1432,-4.0232,-3.9428,-3.9305,-3.8169,-3.7461,-3.74,-3.6815,-3.6507,-3.6507,-3.6507,-3.6846,-3.7506,-3.8055,-3.864,-3.9295,-3.985,-4.0113,-4.0113,-4.0238,-4.0377,-4.0563,-4.0577,-4.0683,-4.0767,-4.0791,-3.9894,-3.8594,-3.8594,-3.7629,-3.6284,0.0,0.0,-4.7483,-4.7292,0.0,0.0,-5.0283,-5.0283,-5.0283,-5.0283,-5.0283,-5.013,-4.9671,-5.0015,0.0,-4.9671,-4.9408,-4.922,-4.9017,-4.851,-4.8524,-4.9174,-5.0681,-5.1957,-5.2936,-5.1664,-5.1046,-5.1195,-5.1492,-5.1062,-4.9995,-5.2539,-5.3155,-5.2082,-5.2733,-5.2213,-5.075,-4.8481,-4.6887,-4.5856,-4.5816,-4.4476,-4.2537,-4.3172,-4.2411,0.0,0.0,0.0,0.0,0.0,0.0,0.0,-3.717,-3.756,-3.7858,-3.6229,-3.6536,-3.7313,-3.6931,-3.8183,-3.9977,-4.1441,-4.4079,-4.6752,-4.8409,-4.8578,-4.8197,-4.7604,-4.7596,-4.7136,-4.525,-4.4184,-4.3439,-4.291,-4.2355,-4.1986,-4.1832,-4.134,-4.0935,-4.0935,-4.1463,-4.1586,-4.0997,-4.134,-4.1155,-4.0047,-3.9644,-3.9062,-3.7984,-3.7677,-3.7246,-3.6722,-3.6569,-3.6507,-3.6507,-3.6507,-3.7058,-3.8108,-3.8222,-3.8859,-3.9901,-4.0062,-4.0113,-4.0113,-4.0238,-4.0007,-3.9535,-3.9692,-3.9811,-3.9881,-3.9951,-3.9388,-3.8594,-3.8594,-3.7629,-3.6284,0.0,0.0,0.0,0.0,0.0,0.0,0.0,0.0,-5.0779,-5.0359,-5.0283,-4.9824,-4.8602,-4.8808,0.0,0.0,-4.7568,-4.756,-4.7167,-4.7631,-4.8383,-4.9363,-5.0326,-5.0971,-5.138,-5.0383,-4.9747,-4.9582,-4.9945,-4.9908,-4.951,-5.1176,-5.1719,-5.1344,-5.2118,-5.1393,-4.9438,-4.8206,-4.6975,-4.5852,-4.5454,-4.4331,-4.2846,-4.2882,-4.1687,-3.9912,-3.955,0.0,0.0,0.0,0.0,0.0,0.0,0.0,-3.7209,-3.5937,-3.6174,-3.6806,-3.6795,-3.842,-4.073,-4.3301,-4.5365,-4.6989,-4.7767,-4.7665,-4.709,-4.5992,-4.6352,-4.6357,-4.4526,-4.3603,-4.2879,-4.2232,-4.1832,-4.1494,-4.1124,-4.072,-4.0505,-4.0505,-4.0812,-4.0905,-4.0536,-4.057,-4.0293,-3.9585,-3.8908,-3.8262,-3.7554,-3.7184,-3.6846,-3.6507,-3.6507,-3.6507,-3.6507,-3.6507,-3.6937,-3.7883,-3.8165,-3.8914,-4.0113,-4.0113,-4.0113,-4.0079,-3.979,-3.9695,-3.9676,-3.9071,-3.9144,-3.957,-3.964,-3.9204,-3.8629,-3.9008,-3.818,-3.687,0.0,0.0,0.0,0.0,0.0,0.0,0.0,0.0,0.0,-5.0206,-5.008,-4.9431,-4.7739,-4.748,-4.6698,0.0,0.0,0.0,-4.5152,-4.6972,-4.8568,-4.9674,-4.9621,-4.9485,-4.9325,-4.8904,-4.8294,-4.7482,-4.8025,-4.8749,-4.9691,-4.9967,-5.0546,-5.1321,-5.1719,-5.0733,-4.875,-4.8063,-4.6865,-4.5395,-4.4566,-4.37,-4.2818,-4.2258,-4.078,-3.8977,-3.8977,-3.8295,-3.7414,-3.7414,0.0,0.0,0.0,0.0,-3.6092,-3.5711,-3.56,-3.5769,-3.6592,-3.8497,-4.1144,-4.479,-4.6075,-4.6481,-4.6718,-4.6684,-4.6223,-4.4949,-4.5178,-4.5126,-4.3547,-4.2786,-4.2171,-4.137,-4.134,-4.1155,-4.0413,-4.0413,-4.0505,-4.0505,-4.0505,-4.0505,-4.0505,-3.989,-3.9428,-3.937,-3.82,-3.7461,-3.7338,-3.6784,-3.6507,-3.6507,-3.6507,-3.6507,-3.6507,-3.6507,-3.6816,-3.7417,-3.8141,-3.9055,-4.0113,-3.9977,-3.991,-3.9876,-3.9106,-3.9146,-3.9617,-3.8384,-3.8355,-3.9099,-3.9146,-3.8826,-3.8469,-3.9192,-3.856,-3.7305,0.0,0.0,0.0,0.0,0.0,0.0,0.0,0.0,0.0,0.0,-4.9217,-4.8533,-4.6865,-4.6327,-4.5483,-4.3768,-4.4124,-4.4653,-4.5252,0.0,0.0,-4.8569,-4.9137,-4.9285,-4.898,-4.8227,-4.7482,-4.6649,-4.6069,-4.654,-4.8061,-4.9438,-5.0546,-5.1249,-4.9945,-4.8987,-4.8074,-4.4635,-4.2403,-4.1138,-4.0418,-3.9196,-3.7941,-3.8505,-3.8117,-3.7251,-3.7251,-3.7142,-3.6978,-3.6978,-3.6701,0.0,0.0,0.0,-3.5689,-3.5622,-3.56,-3.5769,-3.6592,-3.887,-4.1813,-4.4925,-4.5297,-4.5224,-4.6515,-4.6312,-4.5635,-4.4757,-4.4722,-4.426,-4.224,-4.1801,-4.1309,-3.9982,-4.0259,-4.0413,-3.9705,-4.0136,-4.0505,-4.0505,-4.0505,-4.0505,-4.0505,-3.989,-3.9244,-3.8692,-3.7923,-3.7246,-3.6661,-3.6538,-3.6507,-3.6507,-3.6507,-3.6507,-3.6507,-3.6507,-3.6816,-3.7417,-3.8535,-3.9461,-4.0079,-3.9436,-3.914,-3.9106,-3.8362,-3.7743,-3.7259,-3.7114,-3.7183,-3.7331,-3.7422,-3.7432,-3.7566,-3.8287,-3.7679,-3.6559,0.0,0.0,0.0,0.0,0.0,0.0,0.0,0.0,0.0,0.0,0.0,-4.7518,-4.5404,-4.4941,-4.3816,-4.1228,-4.16,-4.2404,-4.3495,-4.4206,-4.5016,-4.5953,-4.584,-4.5688,-4.5526,-4.52,-4.4621,-4.3804,-4.4367,-4.5671,-4.7735,-4.8424,-4.9438,-5.056,-4.9568,-4.8286,-4.6673,-4.377,-4.1951,-4.0967,-3.9772,-3.9118,-3.8816,-3.8289,-3.7868,-3.7441,-3.704,-3.6741,-3.6574,-3.6574,-3.6284,-3.5932,-3.5932,0.0,0.0,0.0,-3.56,-3.5938,-3.7584,-3.8971,-4.0696,-4.3673,-4.4181,-4.4215,-4.5326,-4.5326,-4.4855,-4.4145,-4.4014,-4.3651,-4.2362,-4.1527,-4.0662,-3.9644,-4.0043,-4.0259,-3.9582,-4.0074,-4.0351,-3.9982,-3.992,-3.9767,-3.9431,-3.8785,-3.8262,-3.7954,-3.7307,-3.6815,-3.6507,-3.6507,-3.6507,-3.6507,-3.6507,-3.6507,-3.6507,-3.6507,-3.6967,-3.7911,-3.8783,-3.954,-4.0079,-3.9334,-3.9005,-3.8937,-3.7787,-3.7313,-3.7381,-3.7011,-3.7148,-3.7625,-3.8091,-3.8082,-3.7911,-3.8734,-3.8116,-3.6943,0.0,0.0,0.0,0.0,0.0,0.0,0.0,0.0,0.0,0.0,0.0,-4.6209,-4.3729,0.0,0.0,0.0,-3.9645,-4.0535,-4.1708,-4.1984,-4.2503,-4.3445,-4.3099,-4.281,-4.2592,-4.2592,-4.2194,-4.1379,-4.281,-4.4838,-4.7409,-4.768,-4.8734,-5.043,-4.9399,-4.7761,-4.5515,-4.3207,-4.1822,-4.1046,-3.936,-3.899,-3.9373,-3.8411,-3.8021,-3.786,-3.7151,-3.6665,-3.6388,-3.6182,-3.591,-3.56,-3.56,-3.56,0.0,0.0,0.0,-3.5971,-3.7686,-3.843,-3.9276,-4.1711,-4.2564,-4.3098,-4.4079,-4.4282,-4.4204,-4.3848,-4.3451,-4.3068,-4.2655,-4.1545,-4.0498,-3.9616,-3.992,-4.0074,-3.9551,-3.9767,-3.9859,-3.9521,-3.9336,-3.9062,-3.8569,-3.7892,-3.7492,-3.7492,-3.6876,-3.6507,-3.6507,-3.6507,-3.6507,-3.6507,-3.6507,-3.6507,-3.6507,-3.6662,-3.7268,-3.8306,-3.892,-3.954,-4.0079,-3.9334,-3.9005,-3.8903,-3.7438,-3.6975,-3.7313,-3.6965,-3.7146,-3.7759,-3.8574,-3.8578,-3.8218,-3.8892,-3.8345,-3.7259,0.0,0.0,0.0,0.0,0.0,0.0,0.0,0.0,0.0,0.0,0.0,0.0,-4.2006,-4.1406,-4.0478,-3.8778,-3.9114,-3.9784,-4.0546,-4.1307,-4.1759,-4.1813,-4.252,0.0,-4.1777,-4.1741,-4.1379,-4.0546,-4.1415,-4.3442,-4.6556,-4.7523,-4.9246,-5.1412,-4.9115,-4.7057,-4.5122,-4.2161,-4.0597,-3.9985,-3.7814,-3.6932,-3.7034,-3.7655,-3.7926,-3.7824,-3.7068,-3.6774,-3.6649,-3.5881,-3.5622,-3.56,-3.56,-3.56,-3.56,0.0,0.0,0.0,-3.5735,-3.6817,-3.8159,-3.9005,-4.029,-4.1711,-4.3105,-4.3443,-4.3646,-4.439,-4.3437,-4.2444,-4.2422,-4.1881,-4.1007,-3.9717,-3.9521,-3.9521,-3.949,-3.8967,-3.8846,-3.9431,-3.8939,-3.8539,-3.8508,-3.7892,-3.7492,-3.7492,-3.6876,-3.6507,-3.6507,-3.6507,-3.6507,-3.6507,-3.6507,-3.6507,-3.6507,-3.7058,-3.7679,-3.8306,-3.892,-3.954,-4.0079,-3.9334,-3.9005,-3.8903,-3.7438,-3.64,-3.5769,-3.6502,-3.6829,-3.6931,-3.7686,-3.8018,-3.801,-3.8135,-3.7729,-3.7125,0.0,0.0,0.0,0.0,0.0,0.0,0.0,0.0,0.0,0.0,0.0,0.0,0.0,-4.1061,-4.0266,-3.9193,-3.8838,-3.8717,-3.9007,-3.9297,-3.9441,-3.9441,-3.9731,-3.9731,-3.9441,-3.9441,-3.9297,-3.9007,-3.984,-4.1325,-4.3442,-4.4549,-4.5853,-4.7318,-4.7662,-4.6882,-4.5131,-4.1277,-3.9278,-3.8531,-3.6738,-3.6332,-3.6829,-3.7077,-3.7178,-3.7212,-3.7415,-3.6874,-3.6062,-3.6299,-3.6028,-3.56,-3.56,-3.56,-3.56,-3.56,-3.56,-3.5701,-3.6231,-3.64,-3.6817,-3.8565,-3.9039,-3.9478,-4.0933,-4.1644,-4.2083,-4.2354,-4.2395,-4.2194,-4.1768,-4.0877,-3.985,-3.8936,-3.8831,-3.8723,-3.8292,-3.8385,-3.8446,-3.8262,-3.8015,-3.7677,-3.7246,-3.6999,-3.6846,-3.6846,-3.663,-3.6507,-3.6507,-3.6507,-3.6507,-3.6507,-3.6507,-3.6507,-3.6507,-3.7088,-3.7709,-3.8306,-3.892,-3.954,-4.0079,-3.9842,-3.9469,-3.8971,-3.843,-3.7787,-3.7121,-3.7889,-3.8217,-3.8294,-3.9005,-3.9103,-3.8724,-3.8308,-3.7775,-3.7168,0.0,0.0,0.0,-4.7735,0.0,-4.5572,-4.2619,-4.2359,-4.1832,-3.9985,0.0,0.0,0.0,0.0,-4.0474,-3.9478,-3.8662,-3.8191,-3.8191,-3.8191,-3.8191,-3.8191,-3.8191,-3.8191,-3.8191,-3.8191,-3.8191,-3.8191,-3.9102,-4.022,-4.1518,-4.2477,-4.3534,-4.4708,-4.5027,-4.5135,-4.491,-4.1546,-3.9681,-3.887,-3.7087,-3.684,-3.754,-3.754,-3.7709,-3.7912,-3.7889,-3.7222,-3.6377,-3.64,-3.6231,-3.596,-3.5667,-3.5769,-3.596,-3.5667,-3.5769,-3.6062,-3.6332,-3.6028,-3.6039,-3.7821,-3.7889,-3.7922,-3.9402,-4.0087,-4.0595,-4.1102,-4.1407,-4.1478,-4.131,-4.0214,-3.92,-3.8776,-3.8591,-3.8303,-3.7894,-3.7831,-3.7738,-3.7523,-3.7307,-3.6999,-3.6538,-3.6507,-3.6507,-3.6507,-3.6507,-3.6507,-3.6507,-3.6507,-3.6507,-3.6507,-3.6507,-3.66,-3.6816,-3.7417,-3.7998,-3.8585,-3.9216,-3.9722,-4.0113,-4.0113,-3.9842,-3.9368,-3.9106,-3.8565,-3.7956,-3.87,-3.9005,-3.9073,-3.9808,-3.9722,-3.905,-3.8387,-3.7718,-3.709,-4.8646,-4.8603,-4.8089,-4.7223,-4.6093,-4.4512,-4.2067,-4.1705,-4.0908,-3.8572,0.0,0.0,0.0,0.0,0.0,-3.9514,-3.8698,-3.8227,-3.8191,-3.8191,-3.8191,-3.8191,-3.8191,-3.8191,-3.8191,-3.8191,-3.8174,-3.8174,-3.9244,-4.0198,-4.1038,-4.1556,-4.2689,-4.4086,-4.1307,-4.1737,-4.4378,-4.2794,-4.1745,-4.0899,-3.8734,-3.8294,-3.8971,-3.8971,-3.9411,-3.9876,-3.8464,-3.7956,-3.7686,-3.6174,-3.6197,-3.6694,-3.587,-3.6163,-3.6626,-3.5825,-3.6163,-3.6569,0.0,0.0,0.0,-3.6592,-3.6761,-3.7134,-3.8565,-3.8903,-3.9343,-4.0798,-4.0527,-4.0231,-4.0967,-4.0053,-3.9204,-3.934,-3.8808,-3.8372,-3.8419,-3.7338,-3.6753,-3.743,-3.6938,-3.6538,-3.6538,-3.6507,-3.6507,-3.6507,-3.6507,-3.6507,-3.6507,-3.6507,-3.6507,-3.6507,-3.6507,-3.6785,-3.7387,-3.7998,-3.8557,-3.9156,-3.9765,-4.002,-4.0045,-4.0079,-4.0079,-4.0011,-3.9309,-3.8599,-3.7956,-3.87,-3.9005,-3.9106,-3.9808,-3.9639,-3.8928,-3.8235,-3.7534,-3.6843,-4.8274,-4.8153,-4.7454,-4.6032,-4.6005,-4.5164,-4.2175,-4.2194,-4.1904,0.0,0.0,0.0,-4.1089,-4.1451,-4.1089,-3.9514,-3.9188,-3.8826,-3.8263,-3.8191,-3.8191,-3.8191,-3.8191,-3.8191,-3.8191,-3.8191,-3.8019,-3.7703,-3.8504,-3.8919,-3.8889,-3.981,-4.0754,-4.166,-4.0585,-4.0561,-4.1204,-3.9174,-3.8497,-3.8734,-3.755,-3.755,-3.8261,-3.8802,-3.8802,-3.8599,-3.9242,-3.8802,-3.7855,-3.7415,-3.7415,-3.7449,-3.6705,-3.6231,-3.5893,-3.5667,-3.5769,-3.5893,-3.5667,0.0,0.0,0.0,0.0,0.0,-3.6468,-3.6975,-3.754,-3.7946,-3.8294,-3.8565,-3.8802,-3.8511,-3.8296,-3.8422,-3.8036,-3.7524,-3.7125,-3.7153,-3.7277,-3.7492,-3.7769,-3.7769,-3.7277,-3.7215,-3.703,-3.6538,-3.6507,-3.6507,-3.6507,-3.6507,-3.6507,-3.6507,-3.6507,-3.6785,-3.7387,-3.7594,-3.7911,-3.8394,-3.855,-3.8598,-3.8531,-3.9039,-3.9005,-3.8565,-3.9436,-3.9073,-3.7956,-3.87,-3.9309,-3.9774,-3.9411,-3.9248,-3.905,-3.8258,-3.758,-3.7126,-4.7341,-4.7611,-4.7301,-4.6033,-4.6468,-4.6033,-4.3136,-4.3389,-4.3317,0.0,0.0,0.0,-4.2194,-4.2194,-4.1687,-4.0456,-3.9767,-3.9188,-3.8734,-3.8408,-3.8191,-3.8191,-3.8191,-3.8372,-3.8681,-3.8182,-3.7954,-3.8005,-3.8051,-3.7822,-3.7317,-3.8092,-3.8664,-3.905,-3.8482,-3.8406,-3.8633,-3.6975,-3.6907,-3.7855,-3.7415,-3.7686,-3.8396,-3.8836,-3.8903,-3.887,-3.9436,-3.9073,-3.8294,-3.8024,-3.7686,-3.7347,-3.6931,-3.6468,-3.6028,-3.5701,-3.5836,-3.6028,-3.5701,-3.56,-3.5667,-3.6028,0.0,0.0,-3.6028,-3.6197,-3.64,-3.6728,-3.7144,-3.755,-3.7855,-3.7922,-3.7855,-3.7676,-3.7938,-3.7854,-3.6997,-3.7466,-3.78,-3.7523,-3.8108,-3.8354,-3.7954,-3.7677,-3.7338,-3.6938,-3.6661,-3.6507,-3.6507,-3.6507,-3.6507,-3.6507,-3.6507,-3.6751,-3.7323,-3.7607,-3.801,-3.8488,-3.8789,-3.874,-3.8396,-3.9106,-3.9039,-3.8396,-3.8937,-3.887,-3.8362,-3.8497,-3.8971,-3.9571,-3.8836,-3.858,-3.8618,-3.8156,-3.758,-3.7138,0.0,-4.7156,-4.7337,-4.6613,-4.7265,-4.7011,-4.4584,-4.4983,-4.4983,0.0,-4.3098,-4.3115,-4.3223,-4.2985,-4.2532,-4.1755,-4.0239,-3.9355,-3.9246,-3.854,-3.8106,-3.8072,-3.8106,-3.8432,-3.912,-3.8026,-3.777,-3.8427,-3.7826,-3.7137,-3.6509,-3.6945,-3.7168,-3.7134,-3.6265,-3.6265,-3.6863,-3.5994,-3.6445,-3.7787,-3.7889,-3.8396,-3.9106,-3.9106,-3.9537,-4.0011,-3.9368,-3.9106,-3.9005,-3.8362,-3.7584,-3.6931,-3.6931,-3.6863,-3.666,-3.596,-3.6197,-3.6535,-3.5926,-3.5735,-3.5893,-3.6502,-3.6265,0.0,-3.6535,-3.6197,-3.5904,-3.6535,-3.666,-3.6897,-3.7516,-3.7628,-3.7485,-3.7053,-3.8155,-3.8652,-3.7555,-3.8154,-3.8458,-3.7776,-3.8365,-3.8704,-3.839,-3.799,-3.7619,-3.7307,-3.6784,-3.6507,-3.6507,-3.6507,-3.6507,-3.6507,-3.66,-3.6773,-3.7219,-3.801,-3.8546,-3.887,-3.9639,-3.9605,-3.8903,-3.9639,-3.9571,-3.8836,-3.8261,-3.8294,-3.87,-3.8159,-3.8294,-3.8802,-3.8159,-3.7855,-3.7787,-3.7939,-3.7511,-3.7058,-4.7047,-4.7083,-4.6685,-4.654,-4.7699,-4.7844,-4.5417,-4.6287,-4.6649,-4.5055,-4.4443,-4.4428,-4.5072,-4.3677,-4.2317,-4.1519,-4.0114,-3.8969,-3.8333,-3.7859,-3.7487,-3.7151,-3.745,-3.754,-3.7399,-3.7145,-3.693,-3.6762,-3.7798,-3.806,-3.7623,-3.8851,-3.9469,-3.9402,-3.8058,-3.755,-3.7584,-3.6174,-3.6163,-3.7066,-3.7652,-3.87,-3.991,-3.991,-3.9977,-4.0079,-3.9943,-3.991,-3.9876,-3.974,-3.8768,-3.7686,-3.7686,-3.728,-3.6761,-3.6626,-3.6231,-3.596,-3.6434,-3.6592,-3.6434,-3.596,-3.6648,0.0,-3.6073,-3.6197,-3.6434,-3.596,-3.5836,-3.587,-3.6005,-3.6039,-3.6219,-3.6757,-3.7628,-3.8011,-3.733,-3.8865,-3.9768,-3.9033,-4.0059,-3.9972,-3.7835,-3.8496,-3.8216,-3.6045,-3.6261,-3.6507,-3.6507,-3.6507,-3.6507,-3.6507,-3.6967,-3.7216,-3.7187,-3.8422,-3.8716,-3.8125,-3.887,-3.8836,-3.8159,-3.887,-3.8802,-3.8159,-3.8599,-3.8193,-3.7269,-3.7719,-3.799,-3.8091,-3.7956,-3.755,-3.71,-3.7709,-3.7462,-3.7113,-4.5743,-4.654,-4.6975,-4.6576,-4.7844,-4.8265,-4.637,-4.714,-4.7375,-4.5914,-4.5453,-4.5009,-4.4231,-4.358,-4.274,-4.1525,-4.0424,-3.9406,-3.8634,-3.8062,-3.7501,-3.69,-3.7094,-3.7466,-3.8023,-3.712,-3.6894,-3.7443,-3.718,-3.6968,-3.6806,-3.7922,-3.8251,-3.7821,-3.7483,-3.7144,-3.6681,-3.5652,-3.587,-3.6956,-3.7634,-3.8565,-3.9605,-3.9977,-4.0113,-4.0113,-4.0113,-4.0113,-4.0045,-3.9673,-3.9039,-3.8396,-3.8024,-3.7652,-3.728,-3.6931,-3.6502,-3.6197,-3.6197,-3.6197,-3.6197,-3.6197,-3.6502,0.0,0.0,-3.6197,-3.6096,-3.5667,-3.56,-3.56,-3.56,-3.56,-3.5735,-3.6129,-3.7187,-3.772,-3.7102,-3.8944,-4.0097,-3.9353,-3.9906,-3.9919,-3.8944,-3.8293,-3.7211,-3.5613,-3.5521,-3.5768,-3.6445,-3.6168,-3.6291,-3.6937,-3.7238,-3.7505,-3.7648,-3.8665,-3.8753,-3.7922,-3.9005,-3.8792,-3.7381,-3.887,-3.8734,-3.7381,-3.8125,-3.7821,-3.6829,-3.7202,-3.711,-3.6783,-3.7178,-3.7134,-3.6897,-3.7618,-3.7686,-3.7642,-4.4088,-4.5317,-4.6287,-4.5864,-4.7104,-4.7801,-4.6715,-4.7322,-4.75,-4.6253,-4.6,-4.5226,-4.3348,-4.3347,-4.3125,-4.2184,-4.0837,-3.9931,-3.9604,-3.8538,-3.756,-3.6905,-3.6846,-3.7335,-3.8475,-3.6968,-3.6797,-3.8023,-3.6537,-3.5836,-3.5859,-3.6637,-3.6671,-3.6073,-3.6477,-3.6363,-3.5822,-3.5129,-3.5679,-3.7081,-3.7569,-3.8286,-3.9093,-3.9699,-3.9927,-3.9901,-3.9799,-3.9747,-3.9672,-3.9202,-3.9059,-3.8949,-3.8338,-3.8125,-3.799,-3.7405,-3.7134,-3.6874,-3.64,-3.6242,-3.6332,-3.6728,-3.6535,-3.6332,0.0,0.0,0.0,-3.5633,-3.56,-3.56,-3.56,-3.56,-3.56,-3.56,-3.6749,-3.7483,-3.6897,-3.8566,-3.9703,-3.9303,-3.9186,-3.9292,-3.9628,-3.7384,-3.5888,-3.5819,-3.5234,-3.5389,-3.6566,-3.6165,-3.6375,-3.7533,-3.7562,-3.7729,-3.8096,-3.893,-3.8949,-3.8125,-3.9334,-3.8962,-3.7269,-3.8928,-3.8725,-3.7032,-3.7483,-3.7347,-3.6795,-3.6795,-3.6332,-3.5667,-3.6491,-3.6795,-3.6897,-3.7618,-3.799,-3.8294,-4.3453,-4.2644,-4.2144,-4.3063,-4.4516,-4.5458,-4.5234,-4.6467,-4.7075,-4.6204,-4.5673,-4.5295,-4.5019,-4.3502,-4.2974,-4.4136,-4.1112,-3.9685,-4.0909,-3.8757,-3.7278,-3.6843,-3.6535,-3.6281,-3.6016,-3.5779,-3.5757,-3.5926,-3.6446,-3.666,-3.6694,-3.7415,-3.7753,-3.7594,-3.6558,-3.6372,-3.6763,-3.5517,-3.5837,-3.7167,-3.7254,-3.8056,-3.9196,-3.9262,-3.9295,-3.9216,-3.8728,-3.8502,-3.8585,-3.9009,-3.9196,-3.9142,-3.8924,-3.887,-3.887,-3.8768,-3.8294,-3.7889,-3.8464,-3.8599,-3.8328,-3.71,-3.7686,-3.8125,-3.6174,0.0,-3.6468,-3.5735,0.0,-3.56,-3.56,0.0,0.0,-3.56,-3.6332,-3.6897,-3.6829,-3.7566,-3.8403,-3.8975,-3.9009,-3.8598,-3.7573,-3.5637,-3.5149,-3.6869,-3.6511,-3.6454,-3.7094,-3.715,-3.7499,-3.8165,-3.8193,-3.8176,-3.8096,-3.9378,-3.9631,-3.887,-3.9039,-3.8971,-3.8734,-3.8328,-3.8024,-3.7753,-3.7178,-3.6897,-3.6795,-3.6795,-3.6332,-3.5667,-3.6491,-3.6795,-3.6897,-3.7618,-3.8328,-3.8971,-4.1655,-4.1569,-4.1456,-4.1441,-4.237,-4.3172,-4.3241,-4.4284,-4.5077,-4.5188,-4.4631,-4.4197,-4.4197,-4.3056,-4.2557,-4.3227,-4.1441,-4.0358,-4.0561,-3.9166,-3.8044,-3.7354,-3.7273,-3.708,-3.673,-3.6432,-3.6276,-3.6173,-3.6118,-3.6096,-3.6129,-3.6907,-3.7009,-3.6546,-3.6176,-3.6059,-3.6115,-3.5019,-3.5291,-3.6511,-3.6657,-3.7331,-3.8197,-3.853,-3.8701,-3.864,-3.839,-3.8306,-3.8334,-3.8585,-3.8701,-3.8663,-3.8611,-3.8593,-3.858,-3.8487,-3.8288,-3.807,-3.8299,-3.8362,-3.8328,-3.8125,-3.7912,-3.7584,-3.7077,-3.6502,-3.6028,-3.5667,0.0,0.0,0.0,0.0,0.0,0.0,-3.5893,-3.6096,-3.6096,-3.6366,-3.6986,-3.8227,-3.7956,-3.7191,-3.5892,-3.5447,-3.5435,-3.5888,-3.5326,-3.5653,-3.7122,-3.6869,-3.7326,-3.8778,-3.8838,-3.8943,-3.9252,-3.9817,-3.974,-3.9005,-3.9005,-3.8531,-3.7743,-3.7855,-3.7415,-3.6546,-3.6705,-3.6535,-3.6096,-3.6096,-3.5926,-3.5633,-3.5994,-3.6366,-3.6897,-3.7618,-3.8362,-3.9106,-3.9611,-4.0044,-4.0246,-3.9534,-4.0048,-4.0793,-4.1572,-4.2294,-4.3111,-4.4119,-4.3747,-4.3477,-4.3707,-4.3037,-4.2706,-4.3111,-4.2044,-4.1242,-4.0905,-3.9826,-3.8823,-3.7984,-3.7855,-3.7696,-3.7501,-3.6956,-3.6632,-3.6562,-3.588,-3.5554,-3.5588,-3.6151,-3.6118,-3.5566,-3.5636,-3.5669,-3.5551,-3.4841,-3.5151,-3.6097,-3.6277,-3.665,-3.7148,-3.7825,-3.7937,-3.7825,-3.7825,-3.7825,-3.7822,-3.7994,-3.8051,-3.808,-3.825,-3.8306,-3.8265,-3.8181,-3.8157,-3.8104,-3.8053,-3.802,-3.8112,-3.8622,-3.7965,-3.7283,-3.7797,-3.7019,-3.6242,-3.6242,-3.6242,0.0,0.0,0.0,-3.614,-3.5938,0.0,-3.5836,-3.5633,-3.56,-3.6107,-3.7449,-3.7134,-3.6498,-3.5719,-3.5675,-3.5613,-3.5505,-3.4921,-3.5288,-3.6993,-3.6881,-3.7459,-3.9101,-3.9169,-3.9513,-4.0113,-4.0113,-3.974,-3.9005,-3.8802,-3.8024,-3.6829,-3.7144,-3.6648,-3.5633,-3.6231,-3.6129,-3.56,-3.56,-3.56,-3.5633,-3.5836,-3.64,-3.7168,-3.7686,-3.8497,-3.9377,-3.772,-3.7466,-3.7204,-3.6783,-3.7235,-3.8371,-4.052,-4.0968,-4.1593,-4.3042,-4.3354,-4.3707,-4.4479,-4.3737,-4.3755,-4.5197,-4.3205,-4.2155,-4.2853,-4.0883,-3.9343,-3.8606,-3.7903,-3.751,-3.751,-3.6798,-3.6396,-3.643,-3.5776,-3.5475,-3.5475,-3.5531,-3.5531,-3.5486,-3.5125,-3.5182,-3.5577,-3.5506,-3.5738,-3.6196,-3.6196,-3.6227,-3.6321,-3.7148,-3.7058,-3.6538,-3.6538,-3.6538,-3.6662,-3.7238,-3.7447,-3.7535,-3.8141,-3.8306,-3.8306,-3.8274,-3.8274,-3.8302,-3.827,-3.8298,-3.8246,-3.8157,-3.8089,-3.8018,-3.7937,-3.7855,-3.7855,-3.7855,-3.7855,-3.7855,-3.7855,-3.7855,-3.7584,-3.6897,-3.6761,0.0,0.0,-3.56,-3.5926,-3.6761,-3.6829,-3.7043,-3.7729,-3.6,-3.5371,-3.6635,-3.6233,-3.6195,-3.677,-3.7586,-3.8328,-3.9014,-3.9146,-3.9513,-4.0113,-4.0113,-3.974,-3.8971,-3.8294,-3.755,-3.6761,-3.6028,-3.5633,-3.56,-3.5633,-3.5633,-3.56,-3.56,-3.56,-3.5667,-3.6468,-3.7212,-3.7889,-3.7889,-3.8802,-4.0079,-3.8254,-3.7724,-3.6932,-3.592,-3.5907,-3.6764,-3.9033,-4.0199,-4.1735,-4.4188,-4.4145,-4.451,-4.6257,-4.5693,-4.5198,-4.5261,-4.4093,-4.326,-4.302,-4.1385,-4.0261,-3.9947,-3.9291,-3.8663,-3.7992,-3.7903,-3.7318,-3.6252,-3.6162,-3.5864,-3.536,-3.536,-3.5142,-3.4754,-3.427,-3.4355,-3.4844,-3.4601,-3.5034,-3.5879,-3.6006,-3.6195,-3.6414,-3.6693,-3.6693,-3.6507,-3.6507,-3.6507,-3.6507,-3.6723,-3.6816,-3.6846,-3.7058,-3.7118,-3.7208,-3.7592,-3.7709,-3.7796,0.0,0.0,-3.827,-3.8236,-3.7872,-3.7582,-3.7926,-3.7653,-3.7418,-3.7817,-3.7922,-3.7922,-3.7922,-3.7922,-3.7652,-3.6931,-3.6795,-3.6502,0.0,-3.56,-3.5926,-3.6694,-3.6332,-3.6073,-3.6343,-3.5733,-3.5519,-3.5971,-3.5834,-3.6047,-3.6738,-3.7552,-3.8268,-3.8971,-3.9505,-3.9876,-4.0113,-4.0113,-3.974,-3.8971,-3.8261,-3.7516,-3.6761,-3.596,-3.56,-3.56,-3.56,-3.56,-3.56,-3.56,-3.56,-3.5667,-3.6491,-3.7246,-3.7956,-3.8464,-3.9242,-4.0113,-3.7811,-3.7003,-3.6246,-3.5699,-3.5599,-3.6119,-3.7786,-3.9373,-4.1303,-4.3977,-4.4202,-4.4733,-4.6441,-4.6316,-4.5851,-4.515,-4.4619,-4.3889,-4.2917,-4.1688,-4.0761,-4.018,-3.9761,-3.9268,-3.8593,-3.8484,-3.7803,-3.653,-3.6386,-3.5828,-3.493,-3.493,-3.461,-3.4036,-3.3724,-3.3921,-3.4411,-3.4393,-3.4879,-3.572,-3.5941,-3.61,-3.6226,-3.6352,-3.6445,-3.6507,-3.6507,-3.6507,-3.6507,-3.6507,-3.6507,-3.6507,-3.6507,-3.6507,-3.6569,-3.6968,-3.7058,-3.7148,-3.7562,-3.7679,0.0,-3.794,-3.7616,-3.7491,-3.8309,-3.8103,-3.7926,-3.8569,-3.8667,-3.8667,-3.8667,-3.8464,-3.8058,-3.7313,-3.6965,-3.6502,0.0,-3.56,-3.5769,-3.6299,-3.5926,-3.5701,-3.5994,-3.5769,-3.56,-3.56,-3.56,-3.5825,-3.6332,-3.7347,-3.8125,-3.8599,-3.9605,-4.0113,-4.0113,-4.0113,-3.9605,-3.8599,-3.8125,-3.7381,-3.6366,-3.5836,-3.56,-3.56,-3.56,-3.5769,-3.6028,-3.6028,-3.6197,-3.6479,-3.728,-3.7855,-3.8362,-3.8802,-3.9469,-4.0113,-3.6365,-3.5455,-3.5247,-3.6098,-3.6124,-3.6307,-3.7036,-3.8472,-4.028,-4.2475,-4.3523,-4.4315,-4.5117,-4.5663,-4.5671,-4.4876,-4.4718,-4.4092,-4.2609,-4.1811,-4.0812,-3.9481,-3.9348,-3.9315,-3.9315,-3.8626,-3.7897,-3.7168,-3.6505,-3.5522,-3.4218,-3.4161,-3.3853,-3.3371,-3.3533,-3.3823,-3.4296,-3.476,-3.5272,-3.572,-3.591,-3.5878,-3.5752,-3.607,-3.632,-3.6507,-3.6476,-3.6476,-3.6507,-3.6507,-3.6507,-3.6507,-3.6507,-3.6507,-3.6507,-3.6507,-3.6476,-3.6476,-3.6476,-3.6476,-3.6631,-3.7208,-3.7358,0.0,-3.8838,-3.9109,-3.9269,-3.9876,-4.0003,-4.0062,-4.0062,-3.9512,-3.8802,-3.8024,-3.7246,-3.6468,-3.5701,-3.56,-3.56,-3.5633,-3.5633,-3.5926,-3.666,-3.6062,-3.56,-3.56,-3.56,-3.56,-3.56,-3.7053,-3.7922,-3.7922,-3.9309,-4.0113,-4.0113,-4.0113,-3.9343,-3.7922,-3.7922,-3.711,-3.5667,-3.5667,-3.5667,-3.5667,-3.5667,-3.6096,-3.6795,-3.6795,-3.7212,-3.799,-3.87,-3.9005,-3.9039,-3.9039,-3.9503,-4.0113,-3.6903,-3.6252,-3.6039,-3.6808,-3.6854,-3.7069,-3.7772,-3.8745,-4.016,-4.2341,-4.2846,-4.3459,-4.4746,-4.547,-4.5146,-4.333,-4.4097,-4.4108,-4.267,-4.1844,-4.1243,-4.0878,-3.9879,-3.9315,-3.9315,-3.9116,-3.8659,-3.793,-3.6744,-3.5733,-3.4839,-3.3906,-3.3188,-3.2687,-3.3203,-3.3536,-3.3758,-3.439,-3.5022,-3.5688,-3.5651,-3.5748,-3.5941,-3.5847,-3.5943,-3.6132,-3.6258,-3.6226,-3.6132,-3.6132,-3.6132,-3.6132,-3.6132,-3.6132,-3.6132,-3.6132,-3.6195,-3.6289,-3.6289,-3.6383,-3.6569,-3.6693,-3.6723,-3.6906,0.0,0.0,0.0,-3.864,-3.9135,-3.9435,-3.9435,-3.9664,-3.9377,-3.8125,-3.6806,-3.5836,-3.5633,-3.56,-3.5802,-3.64,-3.596,-3.5667,-3.5893,-3.5701,-3.56,-3.56,-3.56,-3.56,-3.56,0.0,-3.7922,-3.7922,-3.9309,-4.0113,-4.0113,-4.0113,-3.9343,-3.7922,-3.7922,-3.7415,-3.6468,-3.6468,-3.6468,-3.6468,-3.6468,-3.6626,-3.6795,-3.6795,-3.7212,-3.799,-3.87,-3.9309,-3.9842,-3.9842,-3.9943,-4.0113,-3.6441,-3.6152,-3.6358,-3.7121,-3.7436,-3.7658,-3.7783,-3.8438,-3.961,-4.1436,-4.1947,-4.2479,-4.3305,-4.4281,-4.4285,-4.2732,-4.3041,-4.2876,-4.1756,-4.0712,-3.9979,-3.9653,-3.8873,-3.8483,-3.8483,-3.8483,-3.8098,-3.7389,-3.634,-3.5304,-3.4306,-3.3316,-3.2544,-3.2053,-3.2722,-3.3184,-3.3544,-3.4532,-3.5194,-3.5589,-3.5522,-3.5619,0.0,-3.572,-3.575,-3.5812,-3.5911,-3.6005,-3.6005,-3.6005,-3.6005,-3.6005,-3.6005,-3.6005,-3.6005,-3.6005,-3.6068,-3.6132,-3.6132,-3.6258,-3.6383,-3.6383,-3.6414,-3.6662,-3.7268,-3.7417,-3.7562,0.0,-3.8557,-3.881,0.0,-3.903,-3.8933,-3.8043,-3.7155,-3.6614,-3.6614,-3.6332,-3.6299,-3.6761,-3.6096,-3.56,-3.56,-3.56,-3.56,-3.56,-3.56,-3.56,-3.56,-3.7053,-3.7922,-3.7922,-3.9309,-4.0113,-4.0113,-4.0113,-3.9537,-3.8396,-3.8396,-3.799,-3.728,-3.728,-3.728,-3.728,-3.728,-3.7449,-3.7777,-3.7777,-3.8193,-3.8903,-3.9334,-3.974,-4.0113,-4.0113,-4.0113,-4.0113,-3.6028,-3.5911,-3.6458,-3.7303,-3.7745,-3.781,-3.7371,-3.8056,-3.8998,-4.0071,-4.0889,-4.1264,-4.1203,-4.2435,-4.3005,-4.2239,-4.1808,-4.1242,-4.0418,-3.925,-3.8299,-3.7573,-3.7447,-3.7383,-3.7383,-3.7383,-3.7069,-3.6443,-3.5594,-3.462,-3.3521,-3.2668,-3.1994,-3.154,-3.2288,-3.3066,-3.3844,-3.5011,-3.5519,-3.5519,-3.5519,-3.5519,-3.5489,-3.5621,-3.5589,-3.5522,-3.5621,-3.5782,-3.5941,-3.5941,-3.5941,-3.5941,-3.5941,-3.5941,-3.5941,-3.5941,-3.5941,-3.5973,-3.5973,-3.6038,-3.6164,-3.6196,-3.6352,-3.66,-3.7148,-3.7268,-3.7447,-3.7969,-3.8108,-3.8165,-3.8165,-3.8052,-3.7949,-3.7834,-3.7788,-3.7769,-3.7745,-3.73,-3.6965,-3.6941,-3.6231,0.0,-3.5769,-3.5667,-3.56,-3.56,-3.56,-3.56,0.0,0.0,-3.7922,-3.7922,-3.9309,-4.0113,-4.0113,-4.0113,-3.974,-3.9005,-3.9005,-3.8667,-3.8058,-3.8058,-3.8058,-3.8058,-3.8058,-3.8396,-3.9005,-3.9005,-3.9411,-4.0113,-4.0113,-4.0113,-4.0113,-4.0113,-4.0113,-4.0113,-3.8547,-3.7311,-3.6724,-3.8053,-3.7478,-3.6929,-3.7322,-3.843,-3.9135,-3.8826,-3.9367,-3.9561,-3.9022,-4.0217,-4.0786,-4.0026,-4.0919,-4.0979,-3.9761,-3.9407,-3.8934,-3.8331,-3.7729,-3.7383,-3.7383,-3.7383,-3.7352,-3.7225,-3.5439,-3.4436,-3.4197,-3.2455,-3.1596,-3.154,-3.2796,-3.3993,-3.516,-3.54,-3.5519,-3.5519,-3.5519,-3.5519,-3.5489,-3.5522,-3.5522,-3.5489,-3.5522,-3.5554,-3.5587,-3.5587,-3.5587,-3.5587,-3.5587,-3.5587,-3.5587,-3.5587,-3.5653,-3.5752,-3.5752,-3.5879,-3.6068,-3.6164,-3.6227,-3.6321,-3.66,-3.6662,-3.6693,-3.6784,-3.7208,-3.7533,-3.7533,0.0,-3.7346,-3.7324,-3.7228,-3.7111,-3.7011,-3.7416,-3.7672,-3.7542,-3.6996,-3.6592,-3.6592,-3.5994,-3.56,-3.56,-3.56,-3.56,0.0,0.0,-3.7922,0.0,-3.9309,0.0,0.0,0.0,-3.974,-3.9005,-3.9005,-3.8937,-3.8802,-3.8802,-3.8802,-3.8802,-3.8802,-3.887,-3.9005,-3.9005,-3.9411,-4.0113,-4.0113,-4.0113,-4.0113,-4.0113,-4.0113,-4.0113,-3.9618,-3.8253,-3.7213,-3.828,-3.7914,-3.7464,-3.7404,-3.8219,-3.8641,-3.7974,-3.788,-3.7764,-3.7434,-3.8318,-3.875,-3.8362,-3.8686,-3.8619,-3.798,-3.7606,-3.7245,-3.6938,-3.6599,-3.6414,-3.6414,-3.6414,-3.6414,-3.6414,-3.4729,-3.3939,-3.3909,-3.2255,-3.1511,-3.157,-3.2916,-3.4233,-3.5519,-3.5519,-3.5519,-3.5519,-3.5519,-3.5519,-3.5519,-3.5519,-3.5519,-3.5519,-3.5519,-3.5519,-3.5519,-3.5519,-3.5519,-3.5519,-3.5519,-3.5519,-3.5519,-3.5519,-3.5554,-3.5589,-3.5589,-3.5718,-3.5847,-3.5911,-3.6006,-3.6132,-3.6226,-3.6289,-3.6352,-3.6352,-3.6662,-3.7028,-3.7358,-3.7367,0.0,-3.7592,-3.7666,-3.7627,-3.7433,-3.7779,-3.782,-3.7378,-3.7023,-3.666,-3.6231,-3.5825,-3.56,-3.56,-3.56,-3.56,-3.56,0.0,-3.7922,0.0,0.0,0.0,-4.0113,0.0,-3.991,-3.9571,-3.9571,-3.9571,-3.9571,-3.9571,-3.9571,-3.9571,-3.9571,-3.9571,-3.9571,-3.9571,-3.9774,-4.0113,-4.0113,-4.0113,-4.0113,-4.0113,-4.0113,-4.0113,-3.9868,-3.8962,-3.7943,-3.8332,-3.8392,-3.8153,-3.7494,-3.7734,-3.7793,-3.7285,-3.6896,-3.6626,-3.6507,-3.7045,-3.7404,-3.7404,-3.6956,-3.6626,-3.6507,-3.5998,-3.5639,-3.5519,-3.5519,-3.5519,-3.5519,-3.5519,-3.5519,-3.5519,-3.4292,-3.3694,-3.3694,-3.2497,-3.1989,-3.2168,-3.3245,-3.4382,-3.5519,0.0,-3.5519,-3.5519,-3.5519,-3.5519,-3.5519,-3.5519,-3.5519,-3.5519,-3.5519,-3.5519,-3.5519,-3.5519,-3.5519,-3.5519,-3.5519,-3.5519,-3.5519,-3.5519,-3.5519,-3.5519,-3.5519,-3.5587,-3.5655,-3.5688,-3.5816,-3.5941,-3.6005,-3.61,-3.6133,-3.6133,-3.632,-3.66,-3.7118,-3.7208,0.0,-3.7616,-3.7908,-3.7994,-3.7819,-3.7926,-3.7762,-3.6854,-3.6786,-3.6474,-3.5508,-3.5532,-3.56,-3.56,-3.56,-3.56,-3.56,0.0,0.0,0.0,0.0,-4.0113,-4.0113,0.0,-4.0113,-4.0113,-4.0113,-4.0113,-4.0113,-4.0113,-4.0113,-4.0113,-4.0113,-4.0113,-4.0113,-4.0113,-4.0113,-4.0113,-4.0113,-4.0113,-4.0113,-4.0113,-4.0113,-4.0113,-3.9212,-3.9356,-3.905,-3.8482,-3.8392,-3.8153,-3.7494,-3.6985,-3.6656,-3.6567,-3.7015,-3.7105,-3.6537,-3.7045,-3.7404,-3.7404,-3.7345,-3.7075,-3.6537,-3.6417,-3.6118,-3.5519,-3.5519,-3.5519,-3.5519,-3.5519,-3.5519,-3.5519,-3.4771,-3.4414,-3.4384,-3.3634,-3.3634,-3.4234,0.0,0.0,0.0,-3.5519,-3.5519,-3.5519,-3.5519,-3.5519,-3.5519,-3.5519,-3.5519,-3.5519,-3.5519,-3.5519,-3.5519,-3.5519,-3.5519,-3.5519,-3.5519,-3.5519,-3.5519,-3.5519,-3.5519,-3.5519,-3.5519,-3.5489,-3.5554,-3.5655,-3.572,-3.5784,-3.5973,-3.6005,-3.6037,-3.6037,-3.6132,-3.629,-3.6538,-3.6569,-3.66,0.0,-3.6966,-3.7145,-3.7025,-3.7581,-3.7464,-3.6011,-3.6535,-3.6423,-3.4996,-3.5316,-3.56,-3.56,-3.56,-3.56,-3.56,0.0,0.0,-3.7922,-3.9309,-4.0113,-4.0113,-4.0113,-4.0113,-4.0113,-4.0113,-4.0113,-4.0113,-4.0113,-4.0113,-4.0113,-4.0113,-4.0113,-4.0113,-4.0113,-4.0113,-4.0113,-4.0113,-4.0113,-4.0113,-4.0113,-4.0113,-4.0113,-3.8272,-3.8212,-3.8123,-3.7853,-3.7494,-3.7165,-3.6896,-3.6656,-3.6357,-3.5938,-3.6118,-3.6178,-3.5938,-3.6118,-3.6267,-3.6267,-3.6267,-3.6178,-3.5908,-3.5908,-3.5789,-3.5519,-3.5519,-3.5519,-3.5519,-3.5519,-3.5519,-3.5519,-3.4831,-3.4503,-3.4503,0.0,0.0,0.0,0.0,-3.4861,-3.5519,-3.5519,-3.5519,-3.5519,-3.5519,-3.5519,-3.5519,-3.5519,-3.5519,-3.5519,-3.5519,-3.5519,-3.5519,-3.5519,-3.5519,-3.5519,-3.5519,-3.5519,-3.5519,-3.5519,-3.5519,-3.5519,-3.5519,-3.5519,-3.5489,-3.5587,-3.5557,-3.5619,-3.5683,-3.575,-3.5816,-3.5816,-3.6006,-3.6196,-3.632,-3.632,-3.6289,-3.6195,-3.6321,-3.6383,-3.6196,-3.6844,-3.6787,-3.5345,-3.5846,-3.5773,-3.4333,-3.4769,-3.5298,-3.579,-3.5677,-3.5802,0.0,0.0,0.0,-3.8531,0.0,-3.9673,-4.0113,-4.0113,-4.0113,-4.0113,-4.0113,-4.0113,-4.0113,-4.0113,-4.0113,-4.0113,-4.0113,-4.0113,-4.0113,-4.0113,-4.0113,-4.0113,-4.0113,-4.0113,-4.0113,-4.0113,-4.0113,-4.0113,-3.7554,-3.7554,-3.7644,-3.7434,-3.7045,-3.6686,-3.6507,-3.6327,-3.6028,-3.5579,-3.5519,-3.5519,-3.5519,-3.5519,-3.5519,-3.5519,-3.5519,-3.5519,-3.5519,-3.5519,-3.5519,-3.5519,-3.5519,-3.5519,-3.5519,-3.5519,-3.5519,-3.5519,-3.5011,-3.4771,-3.4771,0.0,0.0,0.0,-3.4771,-3.504,-3.5519,-3.5519,-3.5519,-3.5519,-3.5519,-3.5519,-3.5519,-3.5519,-3.5519,-3.5519,-3.5519,-3.5519,-3.5519,-3.5519,-3.5519,-3.5519,-3.5519,-3.5519,-3.5519,-3.5519,-3.5519,-3.5519,-3.5519,-3.5519,-3.5519,-3.5519,-3.5519,-3.5519,-3.5519,-3.5557,-3.5653,-3.5688,-3.5879,-3.607,-3.6133,-3.6133,-3.6132,-3.6005,0.0,-3.5878,-3.572,-3.6228,-3.6197,-3.4991,-3.5556,-3.5454,-3.4072,-3.4698,-3.5309,-3.5687,-3.5919,-3.6316,0.0,0.0,0.0,0.0,0.0,0.0,-4.0079,-4.0113,-4.0113,-4.0113,-4.0113,-4.0113,-4.0113,-4.0113,-4.0113,-4.0113,-4.0113,-4.0113,-4.0113,-4.0113,-4.0113,-4.0113,-4.0113,-4.0113,-4.0146,-4.035,-4.0282,-4.0146,-3.7285,-3.7943,-3.8182,-3.7524,-3.7404,-3.7195,-3.6567,-3.5938,-3.5519,-3.5519,-3.5519,-3.5519,-3.5519,-3.5519,-3.5519,-3.5519,-3.5519,-3.5519,-3.5519,-3.5519,-3.5519,-3.5519,-3.5519,-3.5519,-3.5519,-3.5519,-3.5519,-3.5519,-3.5489,-3.5489,-3.5489,0.0,-3.5489,-3.5489,-3.5489,-3.5489,-3.5519,-3.5519,-3.5519,-3.5519,-3.5519,-3.5519,-3.5519,-3.5519,-3.5519,-3.5519,-3.5519,-3.5519,-3.5519,-3.5519,-3.5519,-3.5519,-3.5519,-3.5519,-3.5519,-3.5519,-3.5519,-3.5519,-3.5519,-3.5519,-3.5519,-3.5519,-3.5519,-3.5519,-3.5519,-3.5519,-3.5554,-3.5655,-3.5688,-3.5752,-3.5973,-3.6005,-3.6005,-3.6005,0.0,0.0,-3.5688,-3.5878,-3.5762,-3.5063,-3.5789,-3.5717,-3.4324,-3.5348,-3.5796,-3.5079,-3.6244,0.0,0.0,0.0,0.0,-3.9005,-3.9706,0.0,-4.0113,-4.0113,-4.0113,-4.0113,-4.0113,-4.0113,-4.0113,-4.0113,-4.0113,-4.0113,-4.0113,-4.0113,-4.0113,-4.0113,-4.0113,-4.0113,-4.0113,-4.0113,-4.018,-4.0933,-4.073,-4.0214,-3.6237,-3.6626,-3.6896,-3.6237,-3.6118,-3.6058,-3.5848,-3.5639,-3.5519,-3.5519,-3.5519,-3.5519,-3.5519,-3.5519,-3.5519,-3.5519,-3.5519,-3.5519,-3.5519,-3.5519,-3.5519,-3.5519,-3.5519,-3.5519,-3.5519,-3.5519,-3.5519,-3.5519,0.0,0.0,0.0,-3.5519,-3.5519,-3.5519,-3.5519,-3.5519,-3.5519,-3.5519,-3.5519,-3.5519,-3.5519,-3.5519,-3.5519,-3.5519,-3.5519,-3.5519,-3.5519,-3.5519,-3.5519,-3.5519,-3.5519,-3.5519,-3.5519,-3.5519,-3.5519,-3.5519,-3.5519,-3.5519,-3.5519,-3.5519,-3.5519,-3.5519,-3.5519,-3.5519,-3.5519,-3.5519,-3.5489,-3.5554,-3.5653,-3.572,-3.5784,-3.5784,-3.5784,-3.5784,-3.5653,0.0,-3.5587,-3.5619,-3.5411,-3.4751,-3.5002,-3.4911,-3.4138,-3.4864,-3.5669,-3.6497,-3.7288,0.0,0.0,0.0,0.0,0.0,-3.9503,0.0,-4.0113,-4.0113,-4.0113,-4.0113,-4.0113,-4.0113,-4.0113,-4.0595,-4.0561,-4.0146,-4.1162,-4.1027,-4.0146,-4.0629,-4.0832,-4.0798,-4.0316,-4.0722,-4.1534,-4.073,-4.0959,-4.1542,-3.5669,-3.5848,-3.5998,-3.5579,-3.5519,-3.5519,-3.5519,-3.5519,-3.5519,-3.5519,-3.5519,-3.5519,-3.5519,-3.5519,0.0,-3.5519,-3.5519,-3.5519,-3.5519,-3.5519,-3.5519,-3.5519,-3.5519,-3.5519,-3.5519,-3.5519,0.0,-3.5519,-3.5519,-3.5519,-3.5519,-3.5519,-3.5519,-3.5519,-3.5519,-3.5519,-3.5519,-3.5519,-3.5519,-3.5519,-3.5519,-3.5519,-3.5519,-3.5519,-3.5519,-3.5519,-3.5519,-3.5519,-3.5519,-3.5519,-3.5519,-3.5519,-3.5519,-3.5519,-3.5519,-3.5519,-3.5519,-3.5519,-3.5519,-3.5519,-3.5519,-3.5519,-3.5519,-3.5519,-3.5519,-3.5519,-3.5519,-3.5519,-3.5587,-3.5621,-3.5621,-3.5621,-3.5621,-3.5621,-3.5554,-3.5519,-3.5519,-3.5554,-3.5439,-3.5113,-3.5179,-3.5093,-3.4607,-3.5178,-3.5864,-3.6572,-3.7358,0.0,0.0,0.0,0.0,-4.0079,-3.9673,-3.9639,-4.0113,-4.0113,-4.0113,-4.0113,-4.0383,-4.0493,-4.0527,-4.1271,-4.1339,-4.0959,-4.161,-4.1339,-4.0527,-4.1001,-4.1204,-4.117,-4.1027,-4.15,-4.2185,-4.1264,-4.1534,-4.2219,-3.5519,-3.5519,-3.5519,-3.5519,-3.5519,-3.5519,-3.5519,-3.5519,-3.5519,-3.5519,-3.5519,-3.5519,-3.5519,-3.5519,-3.5519,-3.5519,0.0,0.0,-3.5519,-3.5519,-3.5519,-3.5519,-3.5519,-3.5519,-3.5519,-3.5519,-3.5519,-3.5519,-3.5519,-3.5519,-3.5519,-3.5519,-3.5519,-3.5519,-3.5519,-3.5519,-3.5519,-3.5519,-3.5519,-3.5519,-3.5519,-3.5519,-3.5519,-3.5519,-3.5519,-3.5519,-3.5519,-3.5519,-3.5519,-3.5519,-3.5519,-3.5519,-3.5519,-3.5519,-3.5519,-3.5519,-3.5519,-3.5519,-3.5519,-3.5519,-3.5519,-3.5519,-3.5519,-3.5519,-3.5519,-3.5519,-3.5519,-3.5519,-3.5519,-3.5519,-3.5519,-3.5519,-3.5519,-3.5519,-3.5519,-3.5519,-3.5519,-3.5589,-3.5752,-3.5941,0.0,0.0,-3.5554,-3.6076,-3.623,0.0,-3.6743,0.0,0.0,0.0,-3.9978,-4.0062,-4.0087,-4.0113,-4.0113,-4.0113,-4.0113,-4.0113,-4.0832,-4.1204,-4.1238,-4.2016,-4.2354,-4.2252,-4.1644,-4.1305,-4.1204,-4.1271,-4.1271,-4.1339,-4.2016,-4.2354,-4.2422,-4.232,-4.2354,-4.2455,0.0,-3.5519,-3.5519,-3.5519,-3.5519,-3.5519,-3.5519,-3.5519,-3.5519,-3.5519,-3.5519,-3.5519,-3.5519,-3.5519,-3.5519,-3.5519,-3.5519,-3.5519,-3.5519,-3.5519,-3.5519,-3.5519,-3.5519,-3.5519,-3.5519,-3.5519,-3.5519,-3.5519,-3.5519,-3.5519,-3.5519,-3.5519,-3.5519,-3.5519,-3.5519,-3.5519,-3.5519,-3.5519,-3.5519,-3.5519,-3.5519,-3.5519,-3.5519,-3.5519,-3.5519,-3.5519,-3.5519,-3.5519,-3.5519,-3.5519,-3.5519,-3.5519,-3.5519,-3.5519,-3.5519,-3.5519,-3.5519,-3.5519,-3.5519,-3.5519,-3.5519,-3.5519,-3.5519,-3.5519,-3.5519,-3.5519,-3.5519,-3.5519,-3.5519,-3.5519,-3.5519,-3.5519,-3.5519,-3.5519,-3.5519,-3.5519,-3.5519,-3.5522,-3.5554,0.0,-3.5651,-3.5657,-3.5667,-3.5946,-3.6291,0.0,0.0,-3.7592,-3.8051,-3.8474,-3.8947,-3.9408,-3.985,-4.0113,-4.0113,-4.0113,-4.0113,-4.0113,-4.0832,-4.1204,-4.1238,-4.2557,-4.2828,-4.232,-4.2726,-4.2252,-4.1238,-4.1813,-4.2049,-4.2049,-4.2219,-4.2997,-4.3904,-4.2726,-4.3031,-4.3972,-3.5519,-3.5519,-3.5519,-3.5519,-3.5519,-3.5519,-3.5519,-3.5519,-3.5519,-3.5519,-3.5519,-3.5519,-3.5519,-3.5519,-3.5519,-3.5519,-3.5519,-3.5519,-3.5519,-3.5519,-3.5519,-3.5519,-3.5519,-3.5519,-3.5519,-3.5519,-3.5519,-3.5519,-3.5519,-3.5519,-3.5519,-3.5519,-3.5519,-3.5519,-3.5519,-3.5519,-3.5519,-3.5519,-3.5519,-3.5519,-3.5519,-3.5519,-3.5519,-3.5519,-3.5519,-3.5519,-3.5519,-3.5519,-3.5519,-3.5519,-3.5519,-3.5519,-3.5519,-3.5519,-3.5519,-3.5519,-3.5519,-3.5519,-3.5519,-3.5519,-3.5519,-3.5519,-3.5519,-3.5519,-3.5519,-3.5519,-3.5519,-3.5519,-3.5519,-3.5519,-3.5519,-3.5519,-3.5519,-3.5519,-3.5519,-3.5519,-3.5519,-3.5519,-3.5522,-3.5557,-3.5589,-3.5653,-3.5846,-3.5941,-3.6164,-3.6662,-3.6784,0.0,-3.7445,-3.7738,-3.8169,-3.8783,-3.9375,-3.9863,-4.0165,-4.0458,-4.0764,-4.1128,-4.1508,-4.188,-4.2252,-4.3436,-4.3741,-4.3335,-4.3403,-4.2936,-4.2252,-4.2658,-4.2794,-4.2828,-4.32,-4.387,-4.4445,-4.3234,-4.3572,-4.4479,-3.5519,-3.5519,-3.5519,-3.5519,-3.5519,-3.5519,-3.5519,-3.5519,-3.5519,-3.5519,-3.5519,-3.5519,-3.5519,-3.5519,-3.5519,-3.5519,-3.5519,-3.5519,-3.5519,-3.5519,-3.5519,-3.5519,-3.5519,-3.5519,-3.5519,-3.5519,-3.5519,-3.5519,-3.5519,-3.5519,-3.5519,-3.5519,-3.5519,-3.5519,-3.5519,-3.5519,-3.5519,-3.5519,-3.5519,-3.5519,-3.5519,-3.5519,-3.5519,-3.5519,-3.5519,-3.5519,-3.5519,-3.5519,-3.5519,-3.5519,-3.5519,-3.5519,-3.5519,-3.5519,-3.5519,-3.5519,-3.5519,-3.5519,-3.5519,-3.5519,-3.5519,-3.5519,-3.5519,-3.5519,-3.5519,-3.5519,-3.5519,-3.5519,-3.5519,-3.5519,-3.5519,-3.5519,-3.5549,-3.5639,-3.5579,-3.5549,-3.5639,0.0,-3.5554,-3.5686,-3.5655,-3.578,-3.6061,-3.6002,-3.6067,-3.6285,-3.6225,-3.6289,-3.6476,-3.6998,-3.7474,-3.7994,-3.8728,-3.9472,-4.0276,-4.0903,-4.1598,-4.2286,-4.2388,-4.2794,-4.3409,-4.4215,-4.4615,-4.4581,-4.3741,-4.3375,-4.3375,-4.3375,-4.3375,-4.3477,-4.4282,-4.4615,-4.4513,-4.3842,-4.4012,-4.4513,-3.5519,-3.5519,-3.5519,-3.5519,-3.5519,-3.5519,-3.5519,-3.5519,-3.5519,-3.5519,-3.5519,-3.5519,-3.5519,-3.5519,-3.5519,-3.5519,-3.5519,-3.5519,-3.5519,-3.5519,-3.5519,-3.5519,-3.5519,-3.5519,-3.5519,-3.5519,-3.5519,-3.5519,-3.5519,-3.5519,-3.5519,-3.5519,-3.5519,-3.5519,-3.5519,-3.5519,-3.5519,-3.5519,-3.5519,-3.5519,-3.5519,-3.5519,-3.5519,-3.5519,-3.5519,-3.5519,-3.5519,-3.5519,-3.5519,-3.5519,-3.5519,-3.5519,-3.5519,-3.5519,-3.5519,-3.5519,-3.5519,-3.5519,-3.5519,-3.5519,-3.5519,-3.5519,-3.5519,-3.5519,-3.5519,-3.5519,-3.5519,-3.5519,-3.5519,-3.5519,-3.5519,-3.5519,-3.5699,-3.6237,-3.5878,-3.5699,-3.6267,0.0,-3.5489,-3.5522,-3.5522,-3.5764,-3.6367,-3.6017,-3.6058,-3.6793,-3.6437,-3.6289,-3.6476,-3.6569,-3.6693,-3.6785,-3.7883,-3.9056,-4.0276,-4.0962,-4.1638,-4.2286,-4.2929,-4.3274,-4.3409,-4.4215,-4.4615,-4.4581,-4.3741,-4.3375,-4.3375,-4.3375,-4.3375,-4.3477,-4.4282,-4.4615,-4.4581,-4.4479,-4.4513,-4.4581,-3.5519,-3.5519,-3.5519,-3.5519,-3.5519,-3.5519,-3.5519,-3.5519,-3.5519,-3.5519,-3.5519,-3.5519,-3.5519,-3.5519,-3.5519,-3.5519,-3.5519,-3.5519,-3.5519,-3.5519,-3.5519,-3.5519,-3.5519,-3.5519,-3.5519,-3.5519,-3.5519,-3.5519,-3.5519,-3.5519,-3.5519,-3.5519,-3.5519,-3.5519,-3.5519,-3.5519,-3.5519,-3.5519,-3.5519,-3.5519,-3.5519,-3.5519,-3.5519,-3.5519,-3.5519,-3.5519,-3.5519,-3.5519,-3.5519,-3.5519,-3.5519,-3.5519,-3.5519,-3.5519,-3.5519,-3.5519,-3.5519,-3.5519,-3.5519,-3.5759,-3.5938,-3.5579,-3.6028,-3.6447,-3.6118,-3.6297,-3.6447,-3.6118,-3.6028,-3.5938,-3.5579,-3.5519,-3.5729,-3.6387,-3.5938,0.0,-3.6387,-3.6237,-3.6028,-3.6028,-3.6327,-3.6656,-3.6956,-3.6553,-3.6597,-3.7458,-3.7046,-3.6809,-3.703,-3.703,-3.6876,-3.6507,-3.8082,-3.9562,-4.0863,-4.1572,-4.2252,-4.2964,-4.3271,-4.3639,-4.4045,-4.4418,-4.4615,-4.4581,-4.4215,-4.4045,-4.4045,-4.4045,-4.4045,-4.4079,-4.4479,-4.4615,-4.4615,-4.4615,-4.4615,-4.4615,-3.5519,-3.5519,-3.5519,-3.5519,-3.5519,-3.5519,-3.5519,-3.5519,-3.5519,-3.5519,-3.5519,-3.5519,-3.5519,-3.5519,-3.5519,-3.5519,-3.5519,-3.5519,-3.5519,-3.5519,-3.5519,-3.5519,-3.5519,-3.5519,-3.5519,-3.5519,-3.5519,-3.5519,-3.5519,-3.5519,-3.5519,-3.5519,-3.5519,-3.5519,-3.5519,-3.5519,-3.5519,-3.5519,-3.5519,-3.5519,-3.5519,-3.5519,-3.5519,-3.5519,-3.5519,-3.5519,-3.5519,-3.5519,-3.5519,-3.5669,-3.5639,-3.5519,-3.5699,-3.5639,-3.5519,-3.5699,-3.5818,-3.5908,-3.5759,-3.6207,-3.6596,-3.6058,-3.6686,-3.7285,-3.6806,-3.7075,-3.7285,-3.6806,-3.6716,-3.6537,-3.6058,-3.5938,-3.6178,-3.6806,0.0,-3.6178,-3.6836,-3.6806,-3.6716,-3.6716,-3.7135,-3.7464,-3.7614,-3.7147,-3.7225,-3.8088,-3.7649,-3.7323,-3.7394,-3.7549,-3.7489,-3.7151,-3.8497,-3.9975,-4.1423,-4.21,-4.2877,-4.3764,-4.3721,-4.4012,-4.4615,-4.4615,-4.4615,-4.4615,-4.4615,-4.4615,-4.4615,-4.4615,-4.4615,-4.4615,-4.4615,-4.4615,-4.4615,-4.4615,-4.4615,-4.4615,-3.5519,-3.5519,-3.5519,-3.5519,-3.5519,-3.5519,-3.5519,-3.5519,-3.5519,-3.5519,-3.5519,-3.5519,-3.5519,-3.5519,-3.5519,-3.5519,-3.5519,-3.5519,-3.5519,-3.5519,-3.5519,-3.5519,-3.5519,-3.5519,-3.5519,-3.5519,-3.5519,-3.5519,-3.5519,-3.5519,-3.5519,-3.5519,-3.5519,-3.5519,-3.5519,-3.5519,-3.5519,-3.5519,-3.5519,-3.5519,-3.5519,-3.5519,-3.5519,-3.5519,-3.5519,-3.5519,-3.5519,-3.5519,-3.5609,-3.6207,-3.5998,-3.5609,-3.6207,-3.5998,-3.5639,-3.6237,-3.6806,-3.7135,-3.6567,-3.6866,-3.7315,-3.7285,-3.7345,-3.7404,-3.7345,-3.7375,-3.7404,-3.7345,-3.7345,-3.7315,-3.7285,-3.7255,-3.7494,-3.8153,0.0,0.0,-3.8153,-3.7734,-3.7345,-3.7345,-3.7375,-3.7644,-3.8272,-3.7734,-3.7717,-3.8581,-3.8043,-3.7476,-3.7036,-3.775,-3.8397,-3.8977,-3.8721,-3.9533,-4.1482,-4.2161,-4.3164,-4.4497,-4.4519,-4.4547,-4.4615,-4.4615,-4.4615,-4.4615,-4.4615,-4.4615,-4.4615,-4.4615,-4.4615,-4.4615,-4.4615,-4.4615,-4.4615,-4.4615,-4.4615,-4.4615,-3.5519,-3.5519,-3.5519,-3.5519,-3.5519,-3.5519,-3.5519,-3.5519,-3.5519,-3.5519,-3.5519,-3.5519,-3.5519,-3.5519,-3.5519,-3.5519,-3.5519,-3.5519,-3.5519,-3.5519,-3.5519,-3.5519,-3.5519,-3.5519,-3.5519,-3.5519,-3.5519,-3.5519,-3.5519,-3.5519,-3.5519,-3.5519,-3.5519,-3.5519,-3.5519,-3.5519,-3.5519,-3.5519,-3.5519,-3.5519,-3.5519,-3.5519,-3.5519,-3.5519,-3.5519,-3.5549,-3.5968,-3.6118,-3.6207,-3.6836,-3.6626,-3.6148,-3.6417,-3.6327,-3.6237,-3.6866,-3.7524,-3.7973,-3.7734,-3.7853,-3.7913,-3.7494,-3.8033,-3.8542,-3.8123,-3.8362,-3.8542,-3.8093,-3.8033,-3.7883,-3.7494,-3.7404,-3.7614,-3.8272,0.0,-3.7644,-3.8302,-3.8182,-3.8033,-3.8033,-3.8392,-3.8751,-3.902,-3.8527,-3.8512,-3.9244,-3.8806,-3.8455,-3.8247,-3.8102,-3.8318,-3.9051,-3.8906,-3.9395,-4.0551,-4.1203,-4.182,-4.2363,-4.332,-4.3768,-4.3798,-4.4355,-4.4615,-4.4615,-4.4615,-4.4615,-4.4615,-4.4615,-4.4615,-4.4615,-4.4615,-4.4615,-4.4615,-4.4615,-4.4615,-4.4615,-3.5519,-3.5519,-3.5519,-3.5519,-3.5519,-3.5519,-3.5519,-3.5519,-3.5519,-3.5519,-3.5519,-3.5519,-3.5519,-3.5519,-3.5519,-3.5519,-3.5519,-3.5519,-3.5519,-3.5519,-3.5519,-3.5519,-3.5519,-3.5519,-3.5519,-3.5519,-3.5519,-3.5519,-3.5519,-3.5519,-3.5519,-3.5519,-3.5519,-3.5519,-3.5519,-3.5519,-3.5519,-3.5519,-3.5519,-3.5519,-3.5519,-3.5519,-3.5519,-3.5519,-3.5639,-3.5878,-3.6327,-3.6596,-3.6866,-3.7494,-3.7285,-3.6806,-3.7015,-3.7075,-3.7165,-3.7584,-3.8182,-3.8721,-3.8721,-3.8721,-3.8601,-3.8153,-3.8721,-3.929,-3.8811,-3.908,-3.929,-3.8811,-3.8721,-3.8571,-3.8123,-3.8033,-3.8182,-3.8631,-3.8332,-3.8182,-3.8661,-3.8721,-3.8721,-3.8721,-3.914,-3.9373,-3.9373,-3.9097,-3.9108,-3.9595,-3.931,-3.9138,-3.9208,-3.8473,-3.8413,-3.9178,-3.9173,-3.935,-3.9833,-4.0581,-4.1093,-4.1327,-4.2395,-4.3023,-4.3313,-4.3661,-4.4064,-4.4493,-4.4265,-4.4313,-4.4514,-4.457,-4.4615,-4.4615,-4.4615,-4.4615,-4.4615,-4.4615,-4.4615,-4.4615,-3.5519,-3.5519,-3.5519,-3.5519,-3.5519,-3.5519,-3.5519,-3.5519,-3.5519,-3.5519,-3.5519,-3.5519,-3.5519,-3.5519,-3.5519,-3.5519,-3.5519,-3.5519,-3.5519,-3.5519,-3.5519,-3.5519,-3.5519,-3.5519,-3.5519,-3.5519,-3.5519,-3.5519,-3.5519,-3.5519,-3.5519,-3.5519,-3.5519,-3.5519,-3.5519,-3.5519,-3.5519,-3.5519,-3.5519,-3.5519,-3.5519,-3.5519,-3.5519,-3.5519,-3.5908,-3.6477,-3.6507,-3.6896,-3.7524,-3.8182,-3.7973,-3.7524,-3.8182,-3.8392,-3.8392,-3.8392,-3.8901,-3.9403,-3.9403,-3.9439,-3.9403,-3.9373,-3.9373,-3.9403,-3.9373,-3.9373,-3.9403,-3.9373,-3.9373,-3.9403,-3.9403,-3.9403,-3.9403,-3.9403,-3.9373,-3.9373,-3.9373,-3.9373,-3.9373,-3.9373,-3.9373,-3.9373,-3.9373,-3.9373,-3.9373,-3.9373,-3.9373,-3.9481,-3.9696,-3.8857,-3.8797,-3.9666,-3.9481,-3.9403,-3.9403,-4.0443,-4.1327,-4.1981,-4.2013,-4.2462,-4.3266,-4.2398,-4.2847,-4.4262,-4.3577,-4.3687,-4.4344,-4.4543,-4.4615,-4.4615,-4.4615,-4.4615,-4.4615,-4.4615,-4.4615,-4.4615,-3.5519,-3.5519,-3.5519,-3.5519,-3.5519,-3.5519,-3.5519,-3.5519,-3.5519,-3.5519,-3.5519,-3.5519,-3.5519,-3.5519,-3.5519,-3.5519,-3.5519,-3.5519,-3.5519,-3.5519,-3.5519,-3.5519,-3.5519,-3.5519,-3.5519,-3.5519,-3.5519,-3.5519,-3.5519,-3.5519,-3.5519,-3.5519,-3.5519,-3.5519,-3.5519,-3.5519,-3.5519,-3.5519,-3.5519,-3.5519,-3.5519,-3.5519,-3.5549,-3.6028,-3.6327,-3.6596,-3.7494,-3.7943,-3.8212,-3.8871,-3.8661,-3.8123,-3.8332,-3.8392,-3.8571,-3.9529,-3.9948,-4.0217,-4.0666,-4.0786,-4.0576,-3.9649,-3.9768,-3.9978,-3.9493,-3.9768,-3.9978,-3.9529,-3.9798,-4.0098,-4.0098,-4.0098,-4.0098,-4.0098,-3.9738,-3.9373,-3.9373,-3.9373,-3.9373,-3.9373,-3.9373,-3.9373,-3.9373,-3.9373,-3.9373,-3.9373,-3.9373,-3.9409,-3.9481,-3.923,-3.92,-3.9481,-3.9895,-4.0098,-4.0098,-4.0396,-4.0684,-4.0903,-4.1969,-4.2626,-4.2852,-4.2771,-4.3196,-4.4063,-4.3388,-4.3563,-4.428,-4.4365,-4.4468,-4.4615,-4.4615,-4.4615,-4.4615,-4.4615,-4.4615,-4.4615,-3.5519,-3.5519,-3.5519,-3.5519,-3.5519,-3.5519,-3.5519,-3.5519,-3.5519,-3.5519,-3.5519,-3.5519,-3.5519,-3.5519,-3.5519,-3.5519,-3.5519,-3.5519,-3.5519,-3.5519,-3.5519,-3.5519,-3.5519,-3.5519,-3.5519,-3.5519,-3.5519,-3.5519,-3.5519,-3.5519,-3.5519,-3.5519,-3.5519,-3.5519,-3.5519,-3.5519,-3.5519,-3.5519,-3.5519,-3.5519,-3.5519,-3.5669,-3.5938,-3.6327,-3.6806,-3.7345,-3.8123,-3.8571,-3.8871,-3.9254,-3.914,-3.8811,-3.8811,-3.899,-3.9349,-4.0157,-4.0576,-4.0876,-4.1265,-4.1422,-4.1242,-4.0397,-4.0487,-4.0606,-3.9948,-4.0307,-4.0606,-3.9948,-4.0337,-4.0786,-4.0786,-4.0576,-4.0397,-4.0397,-4.0068,-3.9798,-3.9798,-4.0038,-4.0098,-3.9828,-3.9798,-3.9709,-3.9439,-3.9373,-3.9373,-3.9373,-3.9679,-3.9679,-3.9403,-3.9918,-4.0068,-3.9798,-4.0457,-4.0786,-4.0786,-4.1055,-4.1055,-4.0786,-4.1741,-4.2371,-4.2726,-4.2563,-4.3032,-4.3984,-4.3288,-4.3622,-4.4594,-4.4688,-4.4616,-4.4436,-4.4879,-4.4476,-4.3739,-4.4064,-4.3943,-4.3739,-3.5519,-3.5519,-3.5519,-3.5519,-3.5519,-3.5519,-3.5519,-3.5519,-3.5519,-3.5519,-3.5519,-3.5519,-3.5519,-3.5519,-3.5519,-3.5519,-3.5519,-3.5519,-3.5519,-3.5519,-3.5519,-3.5519,-3.5519,-3.5519,-3.5519,-3.5519,-3.5519,-3.5519,-3.5519,-3.5519,-3.5519,-3.5519,-3.5519,-3.5519,-3.5519,-3.5519,-3.5519,-3.5519,-3.5519,-3.5519,-3.5579,-3.5938,-3.6507,-3.6626,-3.7375,-3.8392,-3.8452,-3.8871,-3.9373,-3.9373,-3.9469,-3.9499,-3.9499,-3.9948,-4.0487,-4.0546,-4.0995,-4.1512,-4.1534,-4.1564,-4.1564,-4.1564,-4.1564,-4.1354,-4.0636,-4.0995,-4.1294,-4.0636,-4.0995,-4.1512,-4.1512,-4.1025,-4.0636,-4.0576,-4.0576,-4.0546,-4.0487,-4.0995,-4.1145,-4.0546,-4.0487,-4.0247,-3.9649,-3.9589,-3.9589,-3.9589,-4.0157,-4.0217,-3.9619,-4.0726,-4.1115,-4.0516,-4.1115,-4.1512,-4.1512,-4.2171,-4.2171,-4.1512,-4.1534,-4.2008,-4.2732,-4.2078,-4.2584,-4.3897,-4.3241,-4.3745,-4.5014,-4.5212,-4.4783,-4.4127,-4.5139,-4.4224,-4.2492,-4.3204,-4.3021,-4.2459,-3.5519,-3.5519,-3.5519,-3.5519,-3.5519,-3.5519,-3.5519,-3.5519,-3.5519,-3.5519,-3.5519,-3.5519,-3.5519,-3.5519,-3.5519,-3.5519,-3.5519,-3.5519,-3.5519,-3.5519,-3.5519,-3.5519,-3.5519,-3.5519,-3.5519,-3.5519,-3.5519,-3.5519,-3.5519,-3.5519,-3.5519,-3.5519,-3.5519,-3.5519,-3.5519,-3.5519,-3.5519,-3.5519,-3.5519,-3.5549,-3.6058,-3.6357,-3.6596,-3.7584,-3.8153,-3.8452,-3.899,-3.929,-3.9373,-3.9373,-3.9768,-4.0187,-4.0187,-4.0636,-4.1265,-4.1811,-4.2081,-4.2291,-4.2761,-4.2871,-4.2871,-4.2871,-4.2871,-4.2611,-4.1444,-4.1722,-4.1991,-4.1294,-4.1722,-4.2201,-4.2201,-4.2462,-4.2521,-4.2051,-4.1961,-4.1782,-4.1235,-4.1294,-4.1324,-4.1175,-4.1175,-4.1115,-4.0965,-4.0965,-4.0965,-4.0965,-4.1085,-4.1115,-4.0965,-4.1235,-4.1324,-4.1175,-4.1841,-4.2201,-4.2201,-4.2791,-4.2791,-4.2201,-4.2671,-4.3,-4.3159,-4.2539,-4.2698,-4.3427,-4.2799,-4.3066,-4.4023,-4.4211,-4.3943,-4.3428,-4.3877,-4.362,-4.3041,-4.3202,-4.3106,-4.2815,-3.5519,-3.5519,-3.5519,-3.5519,-3.5519,-3.5519,-3.5519,-3.5519,-3.5519,-3.5519,-3.5519,-3.5519,-3.5519,-3.5519,-3.5519,-3.5519,-3.5519,-3.5519,-3.5519,-3.5519,-3.5519,-3.5519,-3.5519,-3.5519,-3.5519,-3.5519,-3.5519,-3.5519,-3.5519,-3.5519,-3.5519,-3.5519,-3.5519,-3.5519,-3.5519,-3.5519,-3.5519,-3.5519,-3.5699,-3.5998,-3.6357,-3.6836,-3.7464,-3.8153,-3.8601,-3.8931,-3.9254,-3.9373,-3.9373,-3.9373,-3.9858,-4.0397,-4.0397,-4.1055,-4.1961,-4.2291,-4.262,-4.291,-4.32,-4.329,-4.329,-4.329,-4.329,-4.3021,-4.2073,-4.2342,-4.2641,-4.2021,-4.2372,-4.2821,-4.2821,-4.2851,-4.2761,-4.244,-4.241,-4.2291,-4.1931,-4.2102,-4.2192,-4.1931,-4.1901,-4.1752,-4.1452,-4.1422,-4.1422,-4.1422,-4.1722,-4.1752,-4.1422,-4.1983,-4.2162,-4.1901,-4.2491,-4.2821,-4.2821,-4.311,-4.311,-4.2821,-4.314,-4.329,-4.329,-4.3118,-4.3187,-4.3457,-4.319,-4.3492,-4.4254,-4.4324,-4.3973,-4.3412,-4.406,-4.3375,-4.206,-4.2469,-4.2382,-4.1999,-3.5519,-3.5519,-3.5519,-3.5519,-3.5519,-3.5519,-3.5519,-3.5519,-3.5519,-3.5519,-3.5519,-3.5519,-3.5519,-3.5519,-3.5519,-3.5519,-3.5519,-3.5519,-3.5519,-3.5519,-3.5519,-3.5519,-3.5519,-3.5519,-3.5519,-3.5519,-3.5519,-3.5519,-3.5519,-3.5519,-3.5519,-3.5519,-3.5519,-3.5519,-3.5519,-3.5519,-3.5519,-3.5639,-3.5998,-3.6507,-3.6716,-3.7434,-3.8392,-3.8512,-3.8931,-3.9373,-3.9373,-3.9373,-3.9469,-3.9679,-4.0127,-4.0576,-4.0696,-4.1602,-4.256,-4.256,-4.291,-4.329,-4.329,-4.329,-4.329,-4.329,-4.329,-4.314,-4.2641,-4.294,-4.314,-4.2641,-4.294,-4.329,-4.329,-4.297,-4.271,-4.259,-4.265,-4.268,-4.259,-4.3,-4.312,-4.262,-4.256,-4.2351,-4.1773,-4.1713,-4.1713,-4.1713,-4.2261,-4.2321,-4.1743,-4.2761,-4.309,-4.259,-4.306,-4.329,-4.329,-4.329,-4.329,-4.329,-4.329,-4.329,-4.329,-4.3518,-4.3636,-4.3636,-4.3636,-4.3996,-4.4548,-4.4586,-4.411,-4.342,-4.4373,-4.3158,-4.0952,-4.1524,-4.1523,-4.1183,-3.5519,-3.5519,-3.5519,-3.5519,-3.5519,-3.5519,-3.5519,-3.5519,-3.5519,-3.5519,-3.5519,-3.5519,-3.5519,-3.5519,-3.5519,-3.5519,-3.5519,-3.5519,-3.5519,-3.5519,-3.5519,-3.5519,-3.5519,-3.5519,-3.5519,-3.5519,-3.5519,-3.5519,-3.5519,-3.5519,-3.5519,-3.5519,-3.5519,-3.5519,-3.5519,-3.5519,-3.5549,-3.6118,-3.6417,-3.6596,-3.7674,-3.8242,-3.8452,-3.905,-3.9313,-3.9373,-3.9373,-3.9373,-3.9589,-4.0726,-4.1175,-4.1392,-4.1961,-4.2611,-4.317,-4.317,-4.323,-4.329,-4.329,-4.329,-4.329,-4.329,-4.329,-4.326,-4.32,-4.323,-4.326,-4.32,-4.323,-4.329,-4.329,-4.3718,-4.3868,-4.326,-4.3688,-4.3838,-4.323,-4.323,-4.326,-4.317,-4.317,-4.314,-4.305,-4.3021,-4.3021,-4.3021,-4.311,-4.314,-4.3021,-4.32,-4.326,-4.317,-4.326,-4.329,-4.329,-4.329,-4.329,-4.329,-4.329,-4.329,-4.329,-4.3329,-4.3329,-4.3329,-4.3329,-4.3409,-4.3527,-4.3723,-4.3408,-4.2735,-4.3145,-4.2575,-4.1505,-4.0865,-4.1317,-4.204,-3.5519,-3.5519,-3.5519,-3.5519,-3.5519,-3.5519,-3.5519,-3.5519,-3.5519,-3.5519,-3.5519,-3.5519,-3.5519,-3.5519,-3.5519,-3.5519,-3.5519,-3.5519,-3.5519,-3.5519,-3.5519,-3.5519,-3.5519,-3.5519,-3.5519,-3.5519,-3.5519,-3.5519,-3.5519,-3.5519,-3.5519,-3.5519,-3.5519,-3.5519,-3.5519,-3.5519,-3.5549,-3.6207,-3.6686,-3.7075,-3.8003,-3.8631,-3.899,-3.932,-3.9373,-3.9433,-3.9828,-4.0217,-4.0606,-4.1175,-4.1662,-4.2021,-4.2321,-4.2791,-4.329,-4.329,-4.329,-4.329,-4.329,-4.329,-4.329,-4.329,-4.329,-4.329,-4.329,-4.329,-4.329,-4.329,-4.329,-4.329,-4.329,-4.3529,-4.3618,-4.3349,-4.3529,-4.3618,-4.3319,-4.329,-4.329,-4.329,-4.329,-4.329,-4.329,-4.329,-4.329,-4.329,-4.329,-4.329,-4.329,-4.329,-4.329,-4.329,-4.329,-4.329,-4.329,-4.329,-4.329,-4.329,-4.329,-4.329,-4.329,-4.329,-4.329,-4.329,-4.329,-4.329,-4.329,-4.3438,-4.3268,-4.2998,-4.3145,-4.2754,-4.1956,-4.0823,-4.0995,-4.1662]},{"header":{"parameterUnit":"m.s-1","parameterCategory":1,"la1":30.6,"la2":28.766,"lo1":-90.7593,"lo2":-88.6598,"dy":0.0162,"dx":0.0183,"nx":116,"ny":114,"refTime":"2024-03-28T12:00:00:Z","depth":0,"parameterNumber":3,"parameterNumberName":"V-component_of_WINDS"},"data":[0.0,0.0,0.0,0.0,0.0,0.0,0.0,0.0,0.0,0.0,0.0,0.0,0.0,0.0,0.0,0.0,0.0,0.0,0.0,0.0,0.0,0.0,0.0,0.0,0.0,0.0,0.0,0.0,0.0,0.0,0.0,0.0,0.0,0.0,0.0,0.0,0.0,0.0,0.0,0.0,0.0,0.0,0.0,0.0,0.0,0.0,0.0,0.0,0.0,0.0,0.0,0.0,0.0,0.0,0.0,0.0,0.0,0.0,0.0,0.0,0.0,0.0,0.0,0.0,0.0,0.0,0.0,0.0,0.0,0.0,0.0,0.0,0.0,0.0,0.0,0.0,0.0,0.0,0.0,0.0,0.0,0.0,0.0,0.0,0.0,0.0,0.0,0.0,0.0,0.0,0.0,0.0,0.0,0.0,0.0,0.0,0.0,0.0,0.0,0.0,0.0,0.0,0.0,0.0,0.0,0.0,0.0,0.0,0.0,0.0,0.0,0.0,0.0,0.0,0.0,0.0,0.0,0.0,0.0,0.0,0.0,0.0,0.0,0.0,0.0,0.0,0.0,0.0,0.0,0.0,0.0,0.0,0.0,0.0,0.0,0.0,0.0,0.0,0.0,0.0,0.0,0.0,0.0,0.0,0.0,0.0,0.0,0.0,0.0,0.0,0.0,0.0,0.0,0.0,0.0,0.0,0.0,0.0,0.0,0.0,0.0,0.0,0.0,0.0,0.0,0.0,0.0,0.0,0.0,0.0,0.0,0.0,0.0,0.0,0.0,0.0,0.0,0.0,0.0,0.0,0.0,0.0,0.0,0.0,0.0,0.0,0.0,0.0,0.0,0.0,0.0,0.0,0.0,0.0,0.0,0.0,0.0,0.0,0.0,0.0,0.0,0.0,0.0,0.0,0.0,0.0,0.0,0.0,0.0,0.0,0.0,0.0,0.0,0.0,0.0,0.0,0.0,0.0,0.0,0.0,0.0,0.0,0.0,0.0,0.0,0.0,0.0,0.0,0.0,0.0,0.0,0.0,0.0,0.0,0.0,0.0,0.0,0.0,0.0,0.0,0.0,0.0,0.0,0.0,0.0,0.0,0.0,0.0,0.0,0.0,0.0,0.0,0.0,0.0,0.0,0.0,0.0,0.0,0.0,0.0,0.0,0.0,0.0,0.0,0.0,0.0,0.0,0.0,0.0,0.0,0.0,0.0,0.0,0.0,0.0,0.0,0.0,0.0,0.0,0.0,0.0,0.0,0.0,0.0,0.0,0.0,0.0,0.0,0.0,0.0,0.0,0.0,0.0,0.0,0.0,0.0,0.0,0.0,0.0,0.0,0.0,0.0,0.0,0.0,0.0,0.0,0.0,0.0,0.0,0.0,0.0,0.0,0.0,0.0,0.0,0.0,0.0,0.0,0.0,0.0,0.0,0.0,0.0,0.0,0.0,0.0,0.0,0.0,0.0,0.0,0.0,0.0,0.0,0.0,0.0,0.0,0.0,0.0,0.0,0.0,0.0,0.0,0.0,0.0,0.0,0.0,0.0,0.0,0.0,0.0,0.0,0.0,0.0,0.0,0.0,0.0,0.0,0.0,0.0,0.0,0.0,0.0,0.0,0.0,0.0,0.0,0.0,0.0,0.0,0.0,0.0,0.0,0.0,0.0,0.0,0.0,0.0,0.0,0.0,0.0,0.0,0.0,0.0,0.0,0.0,0.0,0.0,0.0,0.0,0.0,0.0,0.0,0.0,0.0,0.0,0.0,0.0,0.0,0.0,0.0,0.0,0.0,0.0,0.0,0.0,0.0,0.0,0.0,0.0,0.0,0.0,0.0,0.0,0.0,0.0,0.0,0.0,0.0,0.0,0.0,0.0,0.0,0.0,0.0,0.0,0.0,0.0,0.0,0.0,0.0,0.0,0.0,0.0,0.0,0.0,0.0,0.0,0.0,0.0,0.0,0.0,0.0,0.0,0.0,0.0,0.0,0.0,0.0,0.0,0.0,0.0,0.0,0.0,0.0,0.0,0.0,0.0,0.0,0.0,0.0,0.0,0.0,0.0,0.0,0.0,0.0,0.0,0.0,0.0,0.0,0.0,0.0,0.0,0.0,0.0,0.0,0.0,0.0,0.0,0.0,0.0,0.0,0.0,0.0,0.0,0.0,0.0,0.0,0.0,0.0,0.0,0.0,0.0,0.0,0.0,0.0,0.0,0.0,0.0,0.0,0.0,0.0,0.0,0.0,0.0,0.0,0.0,0.0,0.0,0.0,0.0,0.0,0.0,0.0,0.0,0.0,0.0,0.0,0.0,0.0,0.0,0.0,0.0,0.0,0.0,0.0,0.0,0.0,0.0,0.0,0.0,0.0,0.0,0.0,0.0,0.0,0.0,0.0,0.0,0.0,0.0,0.0,0.0,0.0,0.0,0.0,0.0,0.0,0.0,0.0,0.0,0.0,0.0,0.0,0.0,0.0,0.0,0.0,0.0,0.0,0.0,0.0,0.0,0.0,0.0,0.0,0.0,0.0,0.0,0.0,0.0,0.0,0.0,0.0,0.0,0.0,0.0,0.0,0.0,0.0,0.0,0.0,0.0,0.0,0.0,0.0,0.0,0.0,0.0,0.0,0.0,0.0,0.0,0.0,0.0,0.0,0.0,0.0,0.0,0.0,0.0,0.0,0.0,0.0,0.0,0.0,0.0,0.0,0.0,0.0,0.0,0.0,0.0,0.0,0.0,0.0,0.0,0.0,0.0,0.0,0.0,0.0,0.0,0.0,0.0,0.0,0.0,0.0,0.0,0.0,0.0,0.0,0.0,0.0,0.0,0.0,0.0,0.0,0.0,0.0,0.0,0.0,0.0,0.0,0.0,0.0,0.0,0.0,0.0,0.0,0.0,0.0,0.0,0.0,0.0,0.0,0.0,0.0,0.0,0.0,0.0,0.0,0.0,0.0,0.0,0.0,0.0,0.0,0.0,0.0,0.0,0.0,0.0,0.0,0.0,0.0,0.0,0.0,0.0,0.0,0.0,0.0,0.0,0.0,0.0,0.0,0.0,0.0,0.0,0.0,0.0,0.0,0.0,0.0,0.0,0.0,0.0,0.0,0.0,0.0,0.0,0.0,0.0,0.0,0.0,0.0,0.0,0.0,0.0,0.0,0.0,0.0,0.0,0.0,0.0,0.0,0.0,0.0,0.0,0.0,0.0,0.0,0.0,0.0,0.0,0.0,0.0,0.0,0.0,0.0,0.0,0.0,0.0,0.0,0.0,0.0,0.0,0.0,0.0,0.0,0.0,0.0,0.0,0.0,0.0,0.0,0.0,0.0,0.0,0.0,0.0,0.0,0.0,0.0,0.0,0.0,0.0,0.0,0.0,0.0,0.0,0.0,0.0,0.0,0.0,0.0,0.0,0.0,0.0,0.0,0.0,0.0,0.0,0.0,0.0,0.0,0.0,0.0,0.0,0.0,0.0,0.0,0.0,0.0,0.0,0.0,0.0,0.0,0.0,0.0,0.0,0.0,0.0,0.0,0.0,0.0,0.0,0.0,0.0,0.0,0.0,0.0,0.0,0.0,0.0,0.0,0.0,0.0,0.0,0.0,0.0,0.0,0.0,0.0,0.0,0.0,0.0,0.0,0.0,0.0,0.0,0.0,0.0,0.0,0.0,0.0,0.0,0.0,0.0,0.0,0.0,0.0,0.0,0.0,0.0,0.0,0.0,0.0,0.0,0.0,0.0,0.0,0.0,0.0,0.0,0.0,0.0,0.0,0.0,0.0,0.0,0.0,0.0,0.0,0.0,0.0,0.0,0.0,0.0,0.0,0.0,0.0,0.0,0.0,0.0,0.0,0.0,0.0,0.0,0.0,0.0,0.0,0.0,0.0,0.0,0.0,0.0,0.0,0.0,0.0,0.0,0.0,0.0,0.0,0.0,0.0,0.0,0.0,0.0,0.0,0.0,0.0,0.0,0.0,0.0,0.0,0.0,0.0,0.0,0.0,0.0,0.0,0.0,0.0,0.0,0.0,0.0,0.0,0.0,0.0,0.0,0.0,0.0,0.0,0.0,0.0,0.0,0.0,0.0,0.0,0.0,0.0,0.0,0.0,0.0,0.0,0.0,0.0,0.0,0.0,0.0,0.0,0.0,0.0,0.0,0.0,0.0,0.0,0.0,0.0,0.0,0.0,0.0,0.0,0.0,0.0,0.0,0.0,0.0,0.0,0.0,0.0,0.0,0.0,0.0,0.0,0.0,0.0,0.0,0.0,0.0,0.0,0.0,0.0,0.0,0.0,0.0,0.0,0.0,0.0,0.0,0.0,0.0,0.0,0.0,0.0,0.0,0.0,0.0,0.0,0.0,0.0,0.0,0.0,0.0,0.0,0.0,0.0,0.0,0.0,0.0,0.0,0.0,0.0,0.0,0.0,0.0,0.0,0.0,0.0,0.0,0.0,0.0,0.0,0.0,0.0,0.0,0.0,0.0,0.0,0.0,0.0,0.0,0.0,0.0,0.0,0.0,0.0,0.0,0.0,0.0,0.0,0.0,0.0,0.0,0.0,0.0,0.0,0.0,0.0,0.0,0.0,0.0,0.0,0.0,0.0,0.0,0.0,0.0,0.0,0.0,0.0,0.0,0.0,0.0,0.0,0.0,0.0,0.0,0.0,0.0,0.0,0.0,0.0,0.0,0.0,0.0,0.0,0.0,0.0,0.0,0.0,0.0,0.0,0.0,0.0,0.0,0.0,0.0,0.0,0.0,0.0,0.0,0.0,0.0,0.0,0.0,0.0,0.0,0.0,0.0,0.0,0.0,0.0,0.0,0.0,0.0,0.0,0.0,0.0,0.0,0.0,0.0,0.0,0.0,0.0,0.0,0.0,0.0,0.0,0.0,0.0,0.0,0.0,0.0,0.0,0.0,0.0,0.0,0.0,0.0,0.0,0.0,0.0,0.0,0.0,0.0,0.0,0.0,0.0,0.0,0.0,0.0,0.0,0.0,0.0,0.0,0.0,0.0,0.0,0.0,0.0,0.0,0.0,0.0,0.0,0.0,0.0,0.0,0.0,0.0,0.0,0.0,0.0,0.0,0.0,0.0,0.0,0.0,0.0,0.0,0.0,0.0,0.0,0.0,0.0,0.0,0.0,0.0,0.0,0.0,0.0,0.0,0.0,0.0,0.0,0.0,0.0,0.0,0.0,0.0,0.0,0.0,0.0,0.0,0.0,0.0,0.0,0.0,0.0,0.0,0.0,0.0,0.0,0.0,0.0,0.0,0.0,0.0,0.0,0.0,0.0,0.0,0.0,0.0,0.0,0.0,0.0,0.0,0.0,0.0,0.0,0.0,0.0,0.0,0.0,0.0,0.0,0.0,0.0,0.0,0.0,0.0,0.0,0.0,0.0,0.0,0.0,0.0,0.0,0.0,0.0,0.0,0.0,0.0,0.0,0.0,0.0,0.0,0.0,0.0,0.0,0.0,0.0,0.0,0.0,0.0,0.0,0.0,0.0,0.0,0.0,0.0,0.0,0.0,0.0,0.0,0.0,0.0,0.0,0.0,0.0,0.0,0.0,0.0,0.0,0.0,0.0,0.0,0.0,0.0,0.0,0.0,0.0,0.0,0.0,0.0,0.0,0.0,0.0,0.0,0.0,0.0,0.0,0.0,0.0,0.0,0.0,0.0,0.0,0.0,0.0,0.0,0.0,0.0,0.0,0.0,0.0,0.0,0.0,0.0,0.0,0.0,0.0,0.0,0.0,0.0,0.0,0.0,0.0,0.0,0.0,0.0,0.0,0.0,0.0,0.0,0.0,0.0,0.0,0.0,0.0,0.0,0.0,0.0,0.0,0.0,0.0,0.0,0.0,0.0,0.0,0.0,0.0,0.0,0.0,0.0,0.0,0.0,0.0,0.0,0.0,0.0,0.0,0.0,0.0,0.0,0.0,0.0,0.0,0.0,0.0,0.0,0.0,0.0,0.0,0.0,0.0,0.0,0.0,0.0,0.0,0.0,0.0,0.0,0.0,0.0,0.0,0.0,0.0,0.0,0.0,0.0,0.0,0.0,0.0,0.0,0.0,0.0,0.0,0.0,0.0,0.0,0.0,0.0,0.0,0.0,0.0,0.0,0.0,1.4498,1.303,0.0,0.0,0.0,0.0,0.0,0.0,0.0,0.0,0.0,0.0,0.0,0.0,0.0,0.0,0.0,0.0,0.0,0.0,0.0,0.0,0.0,0.0,0.0,0.8799,0.9052,0.9462,0.9486,0.9527,0.9575,0.0,0.0,0.0,0.0,0.0,1.0355,1.0837,1.1423,1.2161,1.2001,1.2356,1.3121,1.2423,1.2162,1.2311,0.0,0.0,0.0,0.0,0.0,0.0,0.0,0.0,0.0,0.0,0.0,0.0,0.0,0.0,0.0,0.0,0.0,0.0,0.0,0.0,0.0,0.0,0.0,0.0,0.0,0.0,0.0,0.0,0.0,0.0,0.0,0.0,0.0,0.0,0.0,0.0,0.0,0.0,0.0,0.0,0.0,0.0,0.0,0.0,0.0,0.0,0.0,0.0,0.0,0.0,0.0,0.0,0.0,0.0,0.0,0.0,0.0,0.0,0.0,0.0,0.0,0.0,0.0,0.0,0.0,0.0,0.0,0.0,0.0,0.0,1.7026,1.5647,0.0,0.0,0.0,0.0,0.0,0.0,0.0,0.0,0.0,0.0,0.0,0.0,0.0,0.0,0.0,0.0,0.0,0.0,0.0,0.0,0.0,0.7833,0.8583,0.8691,0.8981,0.955,0.9575,0.9575,0.9575,0.9575,0.0,0.0,0.0,1.1219,1.1219,1.2193,1.2921,1.3375,1.3445,1.3807,1.4344,1.466,1.4757,1.474,1.4169,0.0,0.0,0.0,0.0,0.0,0.0,0.0,0.0,0.0,0.0,0.0,0.0,0.0,0.0,0.0,0.0,0.0,0.0,0.0,0.0,0.0,0.0,0.0,0.0,0.0,0.0,0.0,0.0,0.0,0.0,0.0,0.0,0.0,0.0,0.0,0.0,0.0,0.0,0.0,0.0,0.0,0.0,0.0,0.0,0.0,0.0,0.0,0.0,0.0,0.0,0.0,0.0,0.0,0.0,0.0,0.0,0.0,0.0,0.0,0.0,0.0,0.0,0.0,2.075,2.1083,2.1244,2.0805,2.0667,2.0849,2.006,1.8963,1.7613,1.6942,0.0,0.0,0.0,0.0,0.0,0.0,0.0,0.0,0.0,0.0,0.0,0.0,0.0,0.0,0.0,0.0,0.0,0.0,0.0,0.7949,0.8365,0.8752,0.9115,0.9558,0.9575,0.9575,0.9575,0.9575,0.9575,0.9575,1.0641,1.1219,1.1219,1.2193,1.3184,1.4148,1.5808,1.6912,1.7434,1.7749,1.8033,1.8117,1.5251,1.441,1.5094,0.0,0.0,0.0,0.0,0.0,0.0,0.0,0.0,0.0,0.0,0.0,0.0,0.0,0.0,0.0,0.0,0.0,0.0,0.0,0.0,0.0,0.0,0.0,0.0,0.0,0.0,0.0,0.0,0.0,0.0,0.0,0.0,0.0,0.0,0.0,0.0,0.0,0.0,0.0,0.0,0.0,2.5241,2.4952,0.0,0.0,0.0,0.0,0.0,0.0,0.0,0.0,0.0,0.0,0.0,0.0,0.0,2.3027,2.1921,2.3654,2.4398,2.4205,2.5046,2.5454,2.5486,2.5407,2.4726,2.3586,2.3243,0.0,1.9391,1.877,0.0,0.0,0.0,0.0,0.0,0.0,0.0,0.0,0.0,0.0,0.0,0.0,0.0,0.0,0.0,0.0,0.0,0.0,0.0,0.0,0.0,0.862,0.9171,0.9654,1.0156,1.0249,0.9949,1.0022,0.9898,0.9591,1.1179,1.2047,1.2047,1.3782,1.5171,1.6151,1.749,1.837,1.8798,1.8918,1.9122,1.9344,1.7528,1.6838,1.6975,1.6574,0.0,0.0,0.0,0.0,0.0,0.0,0.0,0.0,0.0,0.0,0.0,0.0,0.0,0.0,0.0,0.0,0.0,0.0,0.0,0.0,0.0,0.0,0.0,0.0,0.0,0.0,0.0,0.0,0.0,0.0,0.0,0.0,0.0,0.0,0.0,0.0,0.0,0.0,0.0,2.4928,2.618,2.5237,2.5398,2.504,0.0,0.0,0.0,0.0,0.0,0.0,0.0,0.0,0.0,2.4715,2.5319,2.5426,2.4968,2.6041,2.6472,2.6247,2.6456,2.6599,2.671,2.6327,2.5942,2.5451,2.493,2.4066,2.285,2.0557,1.8971,1.7889,0.0,0.0,0.0,0.0,1.6006,1.6291,0.0,0.0,0.0,0.0,0.0,0.0,0.0,0.0,0.0,0.0,0.0,0.0,0.8051,0.8598,0.9204,0.9914,1.0556,1.077,1.0331,1.0339,1.0264,1.0054,1.1746,1.2823,1.3125,1.5254,1.6887,1.7929,1.8677,1.9265,1.9706,1.9773,1.9933,2.012,1.976,1.9317,1.8906,1.8409,1.8081,1.7873,0.0,0.0,0.0,0.0,0.0,0.0,0.0,0.0,0.0,0.0,0.0,0.0,0.0,0.0,0.0,0.0,0.0,0.0,0.0,0.0,0.0,0.0,0.0,0.0,0.0,0.0,0.0,0.0,0.0,0.0,0.0,0.0,0.0,0.0,0.0,0.0,0.0,2.6747,2.7907,2.6285,2.7541,2.7665,0.0,0.0,0.0,0.0,0.0,0.0,2.7375,2.6952,2.7095,2.8192,2.8429,2.8439,2.8146,2.866,2.8793,2.8478,2.8096,2.7931,2.8015,2.7404,2.7064,2.689,2.6276,2.583,2.5266,2.2573,2.0791,1.9752,1.8794,1.8429,1.8288,1.7628,1.7765,1.8345,0.0,0.0,0.0,0.0,0.0,0.0,0.0,0.0,0.0,0.0,0.0,0.7616,0.8308,0.882,0.9443,1.0395,1.0646,1.0713,1.0688,1.0355,1.0544,1.1281,1.2209,1.3173,1.4196,1.5851,1.7395,1.8851,1.9185,1.9832,2.0615,2.0895,2.1029,2.1056,2.1373,2.1145,2.0449,1.8755,1.8482,1.907,0.0,0.0,0.0,0.0,0.0,0.0,0.0,0.0,0.0,0.0,0.0,0.0,0.0,0.0,0.0,0.0,0.0,0.0,0.0,0.0,0.0,0.0,0.0,0.0,0.0,0.0,0.0,0.0,0.0,0.0,0.0,0.0,0.0,0.0,0.0,0.0,0.0,0.0,0.0,3.0179,3.1898,0.0,0.0,0.0,0.0,3.0004,2.8679,2.9154,3.2453,3.1668,3.148,3.2277,3.3348,3.3093,3.1284,3.2376,3.2533,3.1767,3.1348,3.0966,3.0601,3.02,2.9253,2.8009,2.7679,2.6765,2.5423,2.4982,2.4253,2.3267,2.1414,2.1093,2.1301,1.8842,1.8876,2.0059,0.0,0.0,0.0,0.0,0.0,0.1908,0.3736,0.4118,0.4846,0.6662,0.7353,0.7835,0.8298,0.9082,0.9874,1.0472,1.1088,1.1285,1.1059,1.1436,1.1764,1.1907,1.3268,1.4725,1.6381,1.7384,1.8397,1.9492,1.9973,2.0468,2.0962,2.1069,2.1109,2.1122,2.1416,2.1601,2.143,2.0254,1.9658,1.9478,1.8357,1.7779,0.0,0.0,0.0,0.0,0.0,0.0,0.0,0.0,0.0,0.0,0.0,0.0,0.0,0.0,0.0,0.0,0.0,0.0,0.0,0.0,0.0,0.0,0.0,0.0,0.0,0.0,0.0,0.0,0.0,0.0,0.0,0.0,0.0,0.0,0.0,0.0,0.0,3.2441,3.4495,0.0,3.2497,3.2606,3.2663,3.2413,3.2841,3.3652,3.486,3.4347,3.4388,3.5201,3.5425,3.4952,3.3711,3.4065,3.3741,3.2637,3.1963,3.157,3.1402,3.0544,2.9861,2.9335,2.8738,2.8197,2.7774,2.7634,2.6177,2.3927,2.3006,2.2663,2.2496,2.1346,2.1237,2.1618,0.0,0.0,0.0,0.0,0.113,0.1801,0.3254,0.3914,0.4765,0.6313,0.7303,0.8045,0.8452,0.9384,1.0123,1.0601,1.1307,1.1587,1.1194,1.1651,1.2119,1.2556,1.4398,1.6164,1.7862,1.8384,1.9118,2.0094,2.0481,2.0775,2.0962,2.1069,2.1056,2.0975,2.144,2.1775,2.1951,2.1363,2.0779,2.0077,1.8996,1.8523,1.8393,0.0,0.0,0.0,0.0,0.0,0.0,0.0,0.0,0.0,0.0,0.0,0.0,0.0,0.0,0.0,0.0,0.0,0.0,0.0,0.0,0.0,0.0,0.0,0.0,0.0,0.0,0.0,0.0,0.0,0.0,0.0,0.0,0.0,0.0,3.3184,3.4941,3.3769,3.6328,3.7148,3.4551,3.5605,3.6055,3.5019,3.6269,3.7031,3.6894,3.6802,3.6862,3.7143,3.666,3.5952,3.513,3.4978,3.4202,3.2819,3.227,3.1734,3.1195,3.0298,2.9818,2.974,2.9342,2.9153,2.9153,2.9006,2.7664,2.5661,2.4788,2.449,2.4507,2.319,2.2821,2.2879,0.0,0.0,0.0,0.0904,0.11,0.1571,0.2395,0.3468,0.4568,0.5572,0.7067,0.8238,0.8824,0.9552,1.0301,1.0926,1.1264,1.1378,1.121,1.0923,1.1594,1.3367,1.5569,1.7315,1.849,1.8811,1.9533,2.0681,2.0681,2.0695,2.0695,2.0962,2.0949,2.0722,2.136,2.171,2.1977,2.1991,2.167,2.1029,1.9573,1.926,1.9642,0.0,0.0,0.0,0.0,0.0,0.0,0.0,0.0,0.0,0.0,0.0,0.0,0.0,0.0,0.0,0.0,0.0,0.0,0.0,0.0,0.0,0.0,0.0,0.0,0.0,0.0,0.0,0.0,0.0,0.0,0.0,0.0,0.0,3.1699,3.457,3.6094,3.4453,3.7617,3.8945,3.6406,3.7676,3.8457,3.8008,3.875,3.9023,3.8594,3.8965,3.8856,3.8009,3.7163,3.6368,3.5489,3.5073,3.4031,3.2403,3.2365,3.1596,3.0125,2.9695,2.9331,2.9016,2.9313,2.9471,2.9434,2.8965,2.8739,2.8586,2.6765,2.6739,2.7409,2.4232,2.3552,2.39,0.0,0.0,0.0668,0.0668,0.1021,0.1579,0.2444,0.359,0.4669,0.5566,0.7334,0.8669,0.9049,0.9768,1.0401,1.0761,1.0806,1.0864,1.1048,1.1933,1.3562,1.6048,1.7331,1.8357,1.9118,1.9613,2.0134,2.0681,2.0882,2.0989,2.0989,2.0855,2.0869,2.1002,2.1454,2.1655,2.1762,2.2124,2.2205,2.1964,2.0922,2.0294,2.0026,0.0,0.0,0.0,0.0,0.0,0.0,0.0,0.0,0.0,0.0,0.0,0.0,0.0,0.0,0.0,0.0,0.0,0.0,0.0,0.0,0.0,0.0,0.0,0.0,0.0,0.0,0.0,0.0,0.0,0.0,0.0,3.2031,3.373,3.4258,3.6211,3.7754,3.8242,3.9785,4.041,3.9394,4.0,4.0019,3.8926,3.9375,3.9375,3.8613,3.8691,3.8482,3.7981,3.7436,3.6588,3.5404,3.4716,3.3805,3.2719,3.2038,3.1554,3.1086,3.0466,2.981,2.9216,2.9042,2.8719,2.8268,2.8138,2.8044,2.8008,2.7207,2.7044,2.7177,2.5701,2.4934,2.4445,0.0,0.0314,0.0589,0.0589,0.0991,0.1482,0.1987,0.3394,0.4643,0.5195,0.729,0.8825,0.918,0.9713,1.0181,1.0419,1.0336,1.0415,1.0584,1.2386,1.4248,1.6119,0.0,1.8998,1.972,2.0187,2.0561,2.0855,2.1029,2.1042,2.0922,2.0882,2.0882,2.0935,2.1229,2.151,2.1815,2.2098,2.2378,2.2565,2.2044,2.1643,2.1243,2.0706,2.0115,1.9683,1.9808,2.0618,2.1821,2.2673,0.0,0.0,0.0,0.0,0.0,0.0,0.0,0.0,0.0,0.0,0.0,0.0,0.0,0.0,0.0,0.0,0.0,0.0,0.0,0.0,0.0,0.0,0.0,0.0,3.3594,3.5586,3.6816,3.8008,3.9101,4.0039,4.0762,4.1074,4.082,4.1035,4.0781,3.9824,4.0,3.9766,3.8887,3.8672,3.8379,3.793,3.6992,3.6055,3.5117,3.4238,3.3281,3.2246,3.1934,3.1385,3.0547,3.0102,2.9468,2.867,2.8746,2.8539,2.8144,2.8089,2.7921,0.0,0.0,0.0,0.0,0.0,2.512,2.4409,0.0039,0.0355,0.0592,0.0633,0.1005,0.1305,0.1311,0.3151,0.4566,0.4706,0.7041,0.8818,0.9152,0.953,0.9849,0.9923,0.9981,1.0047,1.0198,1.2481,1.4223,1.5088,1.7565,1.9357,2.026,2.0628,2.0882,2.1109,2.1109,2.0975,2.0735,2.0949,2.0962,2.0788,2.1042,2.147,2.1991,2.2058,2.2365,2.2806,2.2806,2.2806,2.2767,2.1903,2.1533,2.1447,2.0948,2.2062,2.3828,2.3916,0.0,0.0,0.0,0.0,0.0,0.0,0.0,0.0,0.0,0.0,0.0,0.0,0.0,0.0,0.0,0.0,0.0,0.0,0.0,0.0,0.0,0.0,0.0,0.0,3.543,3.7402,3.9101,3.9746,4.0176,4.0547,4.0937,4.1172,4.1172,4.1172,4.0976,4.0488,4.0449,4.0059,3.918,3.8769,0.0,0.0,0.0,3.5176,3.4551,3.3711,3.2676,3.1523,3.1855,3.1169,2.9469,2.9412,2.8822,2.7936,2.839,2.8577,2.8445,2.8308,2.7889,2.7201,2.6661,2.6389,2.6188,2.5106,2.4409,2.3963,0.0283,0.0485,0.065,0.087,0.1151,0.1318,0.1366,0.3253,0.4664,0.4712,0.7049,0.8777,0.896,0.9381,0.9659,0.9693,0.9589,1.0033,1.1237,1.2568,1.4456,1.7044,1.8275,1.9562,2.0873,2.1229,2.1296,2.1109,2.1109,2.1082,2.1029,2.0842,2.0989,2.1454,2.1507,2.1657,2.2017,2.2498,2.2619,2.2498,2.2498,2.2498,2.2485,2.2311,2.1936,2.1571,2.1715,2.3076,2.5012,2.5682,2.7295,2.8971,2.9353,2.8691,0.0,0.0,0.0,0.0,0.0,0.0,0.0,0.0,0.0,0.0,0.0,0.0,0.0,0.0,0.0,0.0,0.0,0.0,0.0,3.4668,3.6523,3.8281,4.0019,4.0644,4.0957,4.1035,4.1113,4.1172,4.1172,4.1172,4.0859,4.0078,4.0019,3.9629,3.875,3.8613,3.8066,3.6953,3.625,3.5176,3.3691,3.2832,3.2109,3.1504,3.125,0.0,3.0568,3.0199,2.945,2.854,2.8331,2.777,2.6976,2.6957,2.6495,2.5811,2.5653,2.5249,2.4643,2.4404,2.3804,2.3059,0.0462,0.0584,0.0706,0.084,0.1137,0.1356,0.1385,0.3236,0.4644,0.4694,0.69,0.8547,0.8696,0.8981,0.913,0.9055,0.9092,0.9606,1.0763,1.2351,1.4091,1.6051,1.8065,1.9508,2.0436,2.1371,2.1697,2.155,2.155,2.155,2.155,2.1403,2.1416,2.1628,2.1775,2.1844,2.2017,2.2458,2.2645,2.2645,2.2645,2.2552,2.2418,2.2418,2.2325,2.2271,2.2404,2.3998,2.6208,2.6818,2.8727,3.0891,3.1148,3.0586,2.957,0.0,0.0,0.0,0.0,0.0,0.0,0.0,0.0,0.0,0.0,0.0,0.0,0.0,0.0,3.1055,3.1699,0.0,3.4336,3.6074,3.7598,3.8867,3.9746,4.043,4.0937,4.1152,4.0976,4.084,4.084,4.0664,4.0351,3.9922,3.9687,3.9355,3.8906,3.8086,3.7324,3.668,3.5625,3.4414,3.3125,3.248,3.1836,3.1211,3.0996,3.0606,3.0006,2.9773,2.9084,2.8047,2.7839,2.7467,2.6971,2.6419,2.5718,2.4979,2.4859,2.4569,2.4202,2.4202,2.3639,2.2876,0.0567,0.0691,0.0725,0.081,0.1168,0.14,0.1407,0.3049,0.4363,0.4672,0.6603,0.8104,0.8431,0.8574,0.8615,0.8492,0.8804,0.9374,1.0216,1.1963,1.3518,1.4799,1.7313,1.9017,1.985,2.1063,2.178,2.1991,2.1991,2.1991,2.1991,2.1991,2.1897,2.1724,2.1964,2.2098,2.2178,2.2405,2.2645,2.2859,2.2806,2.2632,2.2405,2.2352,2.2525,2.2779,2.2779,2.4486,2.6874,2.7197,2.939,3.2018,3.2199,3.1932,3.1171,2.916,2.8672,0.0,0.0,0.0,0.0,0.0,0.0,0.0,0.0,2.9551,2.9961,3.0996,3.2109,3.3184,3.4023,3.5117,3.6269,3.7461,3.8613,3.9336,3.9336,4.0019,4.0644,4.1016,4.0664,4.041,4.041,4.0098,3.9863,3.9766,3.9414,3.916,3.9082,3.7617,3.6719,3.6543,3.5019,3.3711,3.2676,3.2344,3.1738,3.0898,3.0898,3.0353,2.9294,2.9217,2.8607,2.7609,2.7406,2.7276,2.7037,2.6147,2.5349,2.461,2.4344,2.4227,2.4183,2.411,2.3529,2.2785,0.0,0.058,0.0846,0.1247,0.1383,0.144,0.1467,0.2564,0.3697,0.4675,0.5997,0.7232,0.8238,0.8425,0.8499,0.8486,0.9,0.9751,1.0726,1.1674,1.3299,1.5659,1.6202,1.7631,2.0127,2.033,2.0961,2.1991,2.1991,2.1991,2.1991,2.1991,2.2111,2.2325,2.2352,2.2512,2.2766,2.2806,2.2901,2.2846,2.2579,2.2445,2.2392,2.2138,2.2218,2.2472,2.2472,2.3969,2.6088,2.6583,2.8563,3.1058,3.1999,3.2011,3.1378,2.9904,2.8926,2.7969,2.6152,2.6094,2.6973,2.8828,2.875,2.9141,0.0,3.2871,3.2832,3.4473,3.5234,3.5859,3.6699,3.7285,3.793,3.8848,3.9453,3.9824,3.9824,4.0234,4.0547,4.0586,4.0215,3.9961,3.9961,3.9922,3.9726,3.9316,3.9238,3.9043,3.8672,3.7754,3.6875,3.6113,3.5137,3.3867,3.2246,3.2187,3.1738,3.0898,3.0898,3.0625,3.006,2.969,2.9095,2.8301,2.7429,2.673,2.6146,2.5931,2.5414,2.4748,2.4403,2.4231,2.4165,2.3749,2.3041,2.2346,0.0,0.0762,0.1031,0.1346,0.1391,0.1445,0.1476,0.2391,0.3245,0.3804,0.5349,0.6631,0.7113,0.7755,0.8126,0.8214,0.8769,0.949,1.0383,1.1509,1.2764,1.4231,1.5484,1.6676,1.7764,1.8655,1.9851,2.1187,2.1187,2.1675,2.2498,2.2498,2.2472,2.2432,2.2605,2.2645,2.2619,2.2792,2.2928,2.2832,2.2539,2.2311,2.2151,2.2031,2.175,2.1403,2.1403,2.2947,0.0,0.0,2.7331,2.9908,3.1172,3.1163,3.0392,2.9439,2.8926,2.8496,2.7793,2.7734,2.8203,2.959,3.0059,3.0859,3.3476,3.3984,3.4316,3.584,3.666,3.7246,3.7598,3.8203,3.8789,3.9141,3.9805,4.0176,3.9922,4.0039,3.9961,3.9453,3.9238,3.9336,3.9844,3.9648,3.9316,3.8867,3.8594,3.8281,3.7851,3.6797,3.6035,3.5664,3.4316,3.3262,3.2539,3.2031,3.1484,3.0879,3.0625,3.0254,2.9824,2.9394,2.88,2.8103,2.7252,2.6517,2.5845,2.5404,2.4748,2.406,2.4196,2.4054,2.3785,2.3747,2.3275,2.2638,0.0,0.0901,0.1176,0.1403,0.1409,0.1466,0.1479,0.2101,0.2706,0.3123,0.4471,0.5645,0.6326,0.7248,0.7916,0.7982,0.846,0.9133,1.0039,1.1195,1.2277,1.299,1.4621,1.5655,1.6079,1.7198,1.853,1.9993,1.9993,2.0548,2.1665,2.1665,2.1564,2.1306,2.2001,2.2112,2.193,2.2629,2.2928,2.2914,2.2632,2.2325,2.1964,2.1804,2.1149,2.0334,2.0494,2.1715,0.0,0.0,2.528,2.7493,2.9051,2.9239,2.8776,2.8466,2.832,2.8281,2.8516,2.8652,2.9004,3.0117,3.1055,3.2148,3.3848,3.459,3.5254,3.6582,3.7324,3.7832,3.8066,3.8613,3.9023,3.9023,3.9766,4.0156,3.9609,3.9629,3.9414,3.8672,3.8574,3.8789,3.9297,3.9043,3.873,3.8418,3.7988,3.7559,3.7148,3.6016,3.5391,3.5391,3.3711,3.2793,3.2793,3.1836,3.1133,3.0703,3.0234,2.9863,2.9551,2.9121,2.8451,2.766,2.716,2.6461,2.5694,2.509,2.4454,2.3828,2.4012,2.3852,2.3529,2.3658,2.3389,2.2895,0.0,0.0,0.1202,0.1433,0.1504,0.1513,0.1485,0.1579,0.2008,0.3085,0.3235,0.4074,0.6187,0.7335,0.7982,0.7988,0.8316,0.8913,0.9925,1.0873,1.185,1.2872,1.3568,1.4608,1.6079,1.615,1.6916,1.8449,1.8449,1.8519,1.8519,1.8519,1.8519,1.8578,2.0063,2.0629,2.0756,2.2229,2.2928,2.2928,2.2914,2.2498,2.1924,2.1349,2.0414,1.9537,2.004,0.0,0.0,0.0,2.2088,2.3296,2.5163,2.6015,2.6422,2.6917,2.6777,2.6641,2.7532,2.8008,2.873,3.0449,3.1504,3.2598,3.4297,3.5039,3.5742,3.7012,3.7305,3.7578,3.8398,3.8574,3.8594,3.8594,3.9336,3.9609,3.873,3.8965,3.9062,3.8633,3.8574,3.8418,3.8027,3.7969,3.7949,3.7949,3.7559,3.7129,3.6719,3.5859,3.5391,3.5391,3.3711,3.2793,3.2793,3.1543,3.0684,3.0215,2.9785,2.9646,2.9551,2.9121,2.8296,2.7237,2.7218,2.6531,2.5516,2.5194,2.4833,2.4424,2.4052,2.3758,2.3492,2.3362,2.3148,2.284,0.0,0.0,0.0,0.0,0.0,0.1523,0.1512,0.1546,0.1727,0.2097,0.2781,0.0,0.0,0.0,0.0,0.0,0.7982,0.8859,0.9432,1.0433,1.1305,1.2025,1.2858,1.3669,1.431,1.4551,1.5444,1.7053,1.7053,1.7623,1.8627,1.8627,1.8541,1.8449,1.8949,1.9158,1.9228,2.0768,2.0739,1.9849,2.1406,2.1228,2.0015,2.0165,1.9506,1.8464,0.0,0.0,0.0,1.9489,2.0403,2.1555,2.3518,2.3937,2.3841,2.4644,2.5586,2.6582,2.7493,2.8432,2.9551,3.1309,3.2168,3.3105,3.5117,3.5703,3.6016,3.6738,3.6426,3.5937,3.5644,3.6074,3.6562,3.6836,3.832,3.9434,3.9453,3.957,3.9277,3.8262,3.8144,3.7871,3.7168,3.7598,3.7695,3.7129,3.6699,3.6133,3.541,3.5078,3.4668,3.4101,3.3242,3.2519,3.1953,3.0937,3.0215,2.9785,2.9336,2.8984,2.8711,2.8574,2.815,2.748,2.7033,2.6436,2.5779,2.4714,2.4201,2.407,2.3747,2.343,2.3096,2.3044,2.2823,2.2474,0.0,0.0,0.0,0.0,0.0,0.0,0.0,0.0,0.0,0.0,0.0,0.0,0.0,0.0,0.0,0.0,0.0,0.8594,0.8948,0.9938,1.0706,1.1235,1.2172,1.2778,1.2986,1.3092,1.3764,1.503,1.503,1.5589,1.6708,1.6797,1.6797,1.6728,1.7205,1.7423,1.7624,1.8981,1.8845,1.7895,1.9708,1.9625,1.8496,1.8985,1.8504,0.0,0.0,0.0,0.0,1.7675,1.8543,1.9628,2.1392,2.2322,2.2942,2.3991,2.5371,2.6894,2.8223,2.9297,3.043,3.1992,3.2715,3.3418,3.4961,3.5332,3.541,3.5684,3.5176,3.4473,3.375,3.4082,3.4609,3.5019,3.6504,3.7871,3.8633,3.8613,3.8359,3.7969,3.7656,3.7324,3.6934,3.7109,3.7031,3.6484,3.6035,3.541,3.4531,3.4473,3.4141,3.3437,3.2871,3.2226,3.1523,3.0488,2.9687,2.9101,2.8984,2.8637,2.8174,2.8174,2.7863,2.7247,2.6492,2.596,2.5615,2.4421,2.3899,2.3804,2.3518,2.3136,2.2675,2.2675,2.2419,2.2071,0.0,0.0,0.0,0.0,0.0,0.0,0.0,0.0,0.0,0.0,0.0,0.0,0.0,0.0,0.0,0.0,0.0,0.0,0.8452,0.9352,0.0,1.0553,1.1303,1.1931,1.2272,1.1971,1.2052,1.2628,1.2628,1.2735,1.3068,1.3246,1.3417,1.3563,1.4873,1.5506,1.5803,1.6911,1.7173,1.6915,1.7772,1.7815,1.7301,1.7718,0.0,0.0,0.0,0.0,1.4734,1.5906,1.6822,1.7722,1.917,2.1394,2.3679,2.4808,2.6113,2.7598,2.9648,3.0566,3.125,3.248,3.3105,3.3496,3.3945,3.4023,3.4004,3.3945,3.3555,3.3086,3.2617,3.2598,3.2812,3.3242,3.416,3.5254,3.6562,3.6426,3.6621,3.7793,3.7226,3.6875,3.7266,3.6543,3.6035,3.5996,3.5566,3.4941,3.4082,3.4043,3.3828,3.3379,3.2578,3.1934,3.1426,3.0156,2.9101,2.8301,2.8691,2.8563,2.7906,2.7887,2.7425,2.6545,2.5698,2.5228,2.5039,2.4291,2.3867,2.3653,2.3392,2.2852,2.2254,2.2272,2.2034,2.1687,0.0,0.0,0.0,0.0,0.0,0.0,0.0,0.0,0.0,0.0,0.0,0.0,0.0,0.0,0.0,0.0,0.0,0.0,0.8323,0.0,0.0,0.0,0.0,0.0,0.0,0.0,0.0,1.2628,1.2628,1.2613,1.2702,1.2808,1.2726,1.2637,1.2833,1.3042,1.3259,1.4428,1.425,1.3335,0.0,1.5739,1.5266,0.0,0.0,0.0,0.0,1.5484,1.5287,1.6063,1.7879,2.011,2.1779,2.3383,2.4783,2.5852,2.748,2.9101,2.9961,3.0996,3.1992,3.2637,3.2871,3.3066,3.3496,3.334,3.2949,3.2305,3.1309,3.0234,2.916,3.0,3.1113,3.1875,3.4355,3.6504,3.7461,3.8066,3.8281,3.7969,3.7734,3.7519,3.7324,3.6816,3.623,3.5605,3.4844,3.416,3.3613,3.3594,3.3242,3.2519,3.2285,3.1484,3.0078,2.9101,2.8516,2.8301,2.8398,2.8345,2.8174,2.7916,2.7415,2.6871,2.5965,2.5392,2.5,2.3982,2.3446,2.3218,2.2943,2.2427,2.187,2.2181,2.2034,2.1687,0.0,0.0,0.0,0.0,0.0,0.0,0.0,0.0,0.0,0.0,0.0,0.0,0.0,0.0,0.0,0.0,0.0,0.0,0.0,0.8563,0.0,0.0,0.0,0.0,0.0,0.0,0.0,0.0,0.0,0.0,1.1926,1.1939,1.1963,1.1947,1.176,1.1776,1.1992,1.2445,0.0,0.0,0.0,0.0,0.0,0.0,0.0,0.0,0.0,1.5778,1.6149,1.7366,1.9248,2.1294,2.2743,2.444,2.6088,2.729,2.8752,3.014,3.1113,3.1875,3.2539,3.2969,3.293,3.2754,3.2617,3.2109,3.1309,3.0078,2.9238,2.834,2.7051,2.8203,2.9648,3.0527,3.2773,3.5039,3.6836,3.7344,3.7695,3.8164,3.8422,3.8306,3.7649,3.7213,3.6824,3.6256,3.5054,3.4082,3.3457,3.3242,3.2851,3.2187,3.1992,3.1133,2.9646,2.873,2.8301,2.8301,2.8301,2.813,2.7776,2.7298,2.6821,2.6458,2.5188,2.4688,2.4707,2.3577,2.3051,2.2936,2.2648,2.2292,2.1902,2.1988,2.1888,2.1687,0.0,0.0,0.0,0.0,0.0,0.0,0.0,0.0,0.0,0.0,0.1681,0.0,0.0,0.0,0.0,0.0,0.0,0.0,0.0,0.0,0.0,0.0,0.0,0.0,0.0,0.0,0.0,0.0,0.0,0.0,0.0,0.0,0.0,0.0,0.0,0.0,0.0,0.0,0.0,0.0,0.0,0.0,0.0,0.0,0.0,0.0,1.5584,1.6059,1.7012,1.8968,2.0467,2.174,2.3142,2.5218,2.7419,2.8936,3.0007,3.1028,3.2516,3.293,3.3047,3.3418,3.3144,3.2559,3.1641,3.0703,2.9551,2.7851,2.7454,2.6953,2.5732,2.6973,2.8437,2.9414,3.0762,3.2695,3.5605,3.5762,3.6338,3.8452,3.9131,3.9114,3.8334,3.803,3.7642,3.713,3.5791,3.4675,3.3862,3.3367,3.281,3.2215,3.1544,3.0741,2.977,2.88,2.8388,2.8495,2.8388,2.796,2.7251,2.662,2.6149,2.5841,2.4145,2.3784,2.4263,2.3274,2.2794,2.2706,2.2485,2.2264,2.2017,2.1776,2.1687,2.1687,0.0,0.0,0.0,0.0,0.0,0.0,0.0,0.0,0.0,0.0,0.1665,0.1651,0.0,0.0,0.0,0.0,0.0,0.0,0.0,0.0,0.0,0.0,0.0,0.0,0.0,1.0196,1.0196,1.0209,1.0294,0.0,0.0,0.0,0.0,0.0,0.0,0.0,0.0,0.0,0.0,0.0,0.0,0.0,0.0,0.0,0.0,0.0,1.6032,1.658,1.7005,1.8807,2.0415,2.2145,2.5285,2.6917,2.8126,3.0204,3.1631,3.259,3.3136,3.3574,3.3867,3.3945,3.3379,3.248,3.1269,3.0039,2.8652,2.6953,2.6035,2.5332,2.4746,2.6074,2.7754,2.9316,3.1269,3.3379,3.5703,3.6269,3.7183,3.9065,3.935,3.9625,4.0192,3.984,3.8658,3.637,3.6538,3.652,3.5965,3.5131,3.3874,3.2128,3.0684,3.0111,3.0417,2.9019,2.8761,2.9618,2.8708,2.8066,2.7584,2.7104,2.6524,2.591,2.4744,2.4137,2.4013,2.3318,2.2838,2.2441,2.2441,2.2132,2.1776,2.1731,2.1687,2.1687,0.0,0.0,0.0,0.0,0.0,0.0,0.0,0.1675,0.1716,0.1866,0.1783,0.1774,0.1873,0.2874,0.353,0.0,0.0,0.0,0.0,0.0,0.0,0.0,0.0,0.0,0.0,1.0014,0.9973,0.9884,0.0,0.9973,0.9884,0.9795,0.9803,0.9876,0.9705,0.9721,0.9876,0.0,0.0,0.9754,0.9762,1.0404,0.0,0.0,0.0,0.0,0.0,1.6941,1.7154,1.8637,1.9723,2.097,2.4007,2.622,2.8008,2.9465,3.1239,3.2797,3.3392,3.3778,3.4082,3.4082,3.3086,3.1738,3.0215,2.8691,2.7109,2.5391,2.4707,2.4277,2.3828,2.5128,2.6758,2.8027,2.9863,3.2031,3.4648,3.5371,3.6499,3.8726,3.9647,3.9918,3.9541,3.9784,3.8927,3.6462,3.6728,3.6509,3.5215,3.51,3.4275,3.241,3.1172,3.0648,3.0913,2.9186,2.8847,2.9859,2.8575,2.7734,2.7305,2.6722,2.6195,2.5583,2.4364,2.3905,2.3921,2.3095,2.2706,2.2574,2.2441,2.222,2.1865,2.1731,2.1687,2.1687,0.0,0.0,0.0,0.0,0.0,0.0,0.1695,0.1715,0.1767,0.1889,0.191,0.1917,0.1924,0.2708,0.3354,0.0,0.0,0.0,0.0,0.0,0.0,0.0,0.0,0.0,0.0,0.0,0.0,0.9681,0.986,0.0,0.0,0.0,0.0,0.0,0.9575,0.9575,0.9575,0.9575,0.9575,0.0,0.0,1.0365,0.0,0.0,0.0,0.0,0.0,1.6881,1.7353,1.8303,1.8838,1.9438,2.1552,2.4486,2.7356,2.8261,3.0473,3.2777,3.3405,3.396,3.4336,3.4238,3.293,3.1172,2.9336,2.7598,2.5898,2.4141,2.3711,2.3555,2.3159,2.429,2.5664,2.6719,2.8086,3.0117,3.3223,3.4201,3.5561,3.8304,3.9908,4.0294,3.9113,3.9742,3.9236,3.678,3.6714,3.6151,3.4847,3.4989,3.4419,3.2847,3.1788,3.1254,3.1312,2.9293,2.8953,3.0224,2.8613,2.7519,2.6992,2.6458,2.5833,2.5148,2.3985,2.3672,2.3847,2.2872,2.2574,2.2706,2.2485,2.222,2.2017,2.1776,2.1687,2.1687,0.0,0.0,0.0,0.0,0.0,0.0,0.1695,0.175,0.1831,0.1952,0.199,0.2016,0.2045,0.2096,0.2492,0.0,0.0,0.0,0.0,0.0,0.0,0.0,0.0,0.0,0.0,0.0,0.0,0.986,1.0046,0.0,0.0,0.0,0.0,0.0,0.0,0.9575,0.9575,0.9575,0.0,0.0,0.0,0.0,0.0,0.0,0.0,0.0,0.0,1.5934,1.7259,1.7582,1.7916,1.8277,1.9031,2.2304,2.614,2.7574,3.0361,3.3138,3.3482,3.4406,3.5176,3.4746,3.3359,3.1543,2.9414,2.7598,2.5898,2.4141,2.3477,2.314,2.3101,2.3594,2.4512,2.6172,2.6894,2.8437,3.1855,3.3437,3.5286,3.8309,3.9864,4.0791,4.0949,4.1038,3.9945,3.7186,3.6512,3.665,3.756,3.6186,3.4696,3.3212,3.1517,3.0948,3.1563,2.9416,2.9375,3.1432,2.9282,2.7812,2.7012,2.6922,2.6203,2.4884,2.4287,2.3924,2.37,2.3025,2.2618,2.2441,2.2397,2.2132,2.1731,2.1687,2.1687,2.1687,0.0,0.0,0.0,0.0,0.0,0.0,0.1771,0.1807,0.1824,0.1981,0.2011,0.2347,0.328,0.3234,0.3334,0.3734,0.0,0.0,0.0,0.0,0.0,0.0,0.0,0.0,0.0,0.0,0.9989,1.0217,1.029,0.0,0.0,0.0,0.0,0.0,0.0,0.9721,0.9575,0.9575,0.0,0.0,0.0,0.0,0.0,0.0,0.0,0.0,0.0,0.0,1.6901,1.7021,1.7261,1.7542,1.7782,2.0143,2.3247,2.5386,2.8307,3.1165,3.2535,3.3753,3.4551,3.4375,3.2441,3.0254,2.8848,2.6816,2.4863,2.3652,2.3218,2.3101,2.3101,2.3237,2.3789,2.5,2.5566,2.6777,2.9453,3.0492,3.2518,3.6562,3.7805,3.898,4.0569,4.0715,3.9874,3.776,3.6727,3.6603,3.7464,3.6859,3.5888,3.4569,3.3309,3.2768,3.2926,3.0475,3.0037,3.1564,2.9445,2.7941,2.6992,2.6914,2.6025,2.4495,2.389,2.3401,2.3045,2.2553,2.2309,2.222,2.222,2.1998,2.1687,2.1687,2.1687,2.1687,0.0,0.0,0.0,0.0,0.0,0.1598,0.1771,0.1807,0.1821,0.1985,0.2022,0.2613,0.405,0.4104,0.4293,0.5072,0.5949,0.0,0.0,0.0,0.0,0.0,0.0,0.0,0.0,0.0,1.0249,1.0509,1.0615,1.0639,0.0,0.0,1.0396,1.0046,0.0,0.0,0.0,0.0,0.0,0.0,0.0,0.0,0.0,0.0,0.0,0.0,0.0,0.0,0.0,0.0,0.0,1.7058,1.6965,1.8251,2.0355,2.3158,2.6329,2.9357,3.1415,3.2886,3.4018,3.4062,3.1894,2.9492,2.8516,2.6289,2.418,2.3276,2.3101,2.3101,2.3101,2.3101,2.3335,2.4121,2.459,2.5682,2.8034,2.9059,3.1054,3.5111,3.6229,3.7425,3.9251,3.9585,3.92,3.807,3.7227,3.6885,3.7176,3.7036,3.6351,3.5014,3.4165,3.3729,3.3604,3.115,3.0575,3.1822,2.9387,2.7915,2.7251,2.6721,2.5661,2.4249,2.3542,2.3055,0.0,2.2255,2.2106,2.2106,2.2106,2.1909,2.1687,2.1687,2.1687,2.1687,0.0,0.0,0.0,0.0,0.0,0.0,0.1686,0.1756,0.1838,0.196,0.2027,0.2642,0.4056,0.4065,0.5095,0.7848,0.7943,0.0,0.0,0.0,0.0,0.0,0.0,0.0,0.0,0.0,1.0688,1.0688,1.1045,1.1126,1.0964,1.0964,1.0769,1.0366,0.0,0.0,0.0,0.0,0.0,0.0,0.0,0.0,1.0366,0.0,0.0,0.0,0.0,0.0,0.0,0.0,0.0,0.0,0.0,1.6737,1.7898,2.1177,2.4861,2.8295,3.0152,3.209,3.3695,3.4018,3.2109,2.9863,2.8574,2.6289,2.418,2.3276,2.3101,2.3101,2.3101,2.3101,2.3237,2.373,2.4141,2.535,2.809,2.9985,3.1917,3.4243,3.5643,3.66,3.718,3.7685,3.7998,3.7974,3.7974,3.7757,3.7228,3.6699,3.569,3.4083,3.3476,3.3201,3.3201,3.1,3.0764,3.2368,2.9219,2.7751,2.7827,2.6357,2.5218,2.4278,2.3445,2.293,0.0,2.2255,2.2106,2.2106,2.2106,2.1909,2.1687,2.1687,2.1687,2.1687,0.0,0.0,0.0,0.0,0.0,0.0,0.1605,0.2262,0.2848,0.3083,0.3728,0.4817,0.6403,0.658,0.7362,0.9394,0.8875,0.0,0.0,0.0,0.0,0.0,0.0,0.0,0.0,1.0574,1.0875,1.1248,1.1484,1.1573,1.1516,1.1395,1.1078,1.0599,1.0428,1.0249,0.0,0.0,0.0,0.0,0.0,1.0745,1.0904,0.0,0.0,0.0,0.0,0.0,0.0,0.0,0.0,0.0,0.0,0.0,0.0,1.9861,2.2708,2.5634,2.8033,2.9565,3.045,3.0216,2.8633,2.7051,2.659,2.4933,2.3413,2.3159,2.3101,2.3101,2.3101,2.3101,2.3335,2.4102,2.4336,2.5132,2.7325,2.874,3.0708,3.3851,3.6814,3.8527,3.831,3.8455,3.8383,3.8022,3.7974,3.7589,3.6699,3.6507,3.5994,3.5118,3.4596,3.4262,3.4262,3.184,3.1196,3.2345,2.9275,2.7684,2.7407,2.6452,2.5117,2.3445,2.2997,2.2535,2.2005,2.1876,2.182,2.182,2.182,2.1776,2.1687,2.1687,2.1687,2.1687,0.0,0.0,0.0,0.0,0.0,0.0,0.2079,0.2726,0.342,0.4071,0.4775,0.5876,0.7643,0.7856,0.8545,1.0361,0.9968,0.0,0.0,0.0,0.0,0.0,0.0,0.0,1.0639,1.0802,1.1126,1.1606,1.1784,1.1906,1.1971,1.1784,1.1484,1.1086,1.0777,1.0534,0.0,0.0,0.0,0.0,1.0818,1.0867,1.0978,0.0,0.0,0.0,0.0,0.0,0.0,0.0,0.0,0.0,0.0,0.0,0.0,0.0,2.1042,2.3017,2.6098,2.773,2.8416,2.831,2.7012,2.5693,2.5693,2.4348,2.3101,2.3101,2.3218,2.3296,2.312,2.3237,2.3688,2.4581,2.5031,2.5982,2.8107,2.9445,3.1268,3.4047,3.6768,3.8262,3.795,3.8262,3.8359,3.7998,3.7805,3.73,3.6459,3.6218,3.5785,3.504,3.4655,3.4486,3.4486,3.1909,3.1229,3.2369,2.8785,2.7215,2.7471,2.5895,2.4415,2.3066,2.267,2.2195,0.0,2.1687,2.1687,2.1687,2.1687,2.1687,2.1687,2.1687,2.1687,2.1687,0.0,0.0,0.0,0.0,0.0,0.0,0.0,0.3289,0.3843,0.4962,0.5306,0.6168,0.7971,0.8254,0.897,1.068,1.114,0.0,0.0,0.0,0.0,0.0,0.0,0.0,1.098,1.1143,1.1411,1.1792,1.1963,1.2142,1.232,1.2134,1.1955,1.1752,1.124,1.0899,1.072,1.055,1.0582,1.0745,1.0704,1.0759,0.0,0.0,0.0,0.0,0.0,0.0,0.0,0.0,0.0,0.0,0.0,0.0,0.0,0.0,0.0,0.0,0.0,2.6229,2.7264,2.7791,2.6738,2.5499,2.5499,2.4251,0.0,2.3101,2.3457,2.3633,2.3198,2.3496,2.4108,2.5168,2.6052,2.7497,2.9942,3.1737,3.3375,3.4773,3.5905,3.6507,3.6459,3.7372,3.7974,3.7926,3.7469,3.694,3.6386,3.5833,3.5039,3.403,3.391,3.391,3.3934,3.1459,3.0936,3.2445,2.7931,2.6574,2.7939,2.4801,2.3274,2.3009,2.2389,2.1972,2.1687,2.1687,2.1687,2.1687,2.1687,2.1687,2.1687,2.1687,2.1687,2.1687,0.0,0.0,0.0,0.0,0.0,0.0,0.0,0.0,0.0,0.0,0.7293,0.831,0.8999,0.9516,1.0077,0.0,0.0,0.0,0.0,0.0,0.0,0.0,0.0,0.0,1.1159,1.12,1.1468,1.1971,1.215,1.2328,1.2499,1.232,1.2077,1.176,1.1492,1.1273,1.1086,1.0915,1.1021,1.1273,1.0858,1.1407,0.0,0.0,0.0,0.0,1.5417,1.6305,0.0,0.0,0.0,0.0,0.0,0.0,0.0,0.0,1.9302,2.0079,2.2474,0.0,2.4526,2.4373,2.3997,2.3705,0.0,2.3393,2.3101,2.3101,2.3179,2.3315,2.3594,2.3437,2.3806,2.5406,2.5899,2.7043,2.9851,3.2935,3.5344,3.6531,3.7204,3.7445,3.7036,3.7589,3.7805,3.7397,3.7252,3.6795,3.5857,3.5304,3.4655,3.4006,3.326,3.3068,3.3452,3.1692,3.1368,3.2445,2.834,2.6802,2.748,2.4661,2.3102,2.2529,2.2232,2.1972,2.1687,2.1687,2.1687,2.1687,2.1687,2.1687,2.1687,2.1687,2.1687,2.1687,0.0,0.0,0.0,0.0,0.0,0.0,0.0,0.0,0.0,0.0,0.8539,0.9292,0.9779,1.022,1.0647,0.0,0.0,0.0,0.0,0.0,0.0,0.0,0.0,1.1062,1.1346,1.1354,1.1614,1.2158,1.2174,1.2353,1.2686,1.2507,1.228,1.2004,1.1654,1.1395,1.1208,1.1037,1.1126,1.1388,1.1424,0.0,0.0,0.0,0.0,0.0,1.5914,1.6529,0.0,1.7168,1.7235,1.73,0.0,0.0,0.0,0.0,1.8897,1.9571,2.1491,2.296,2.3937,2.3771,2.3686,2.3627,2.3477,2.3081,2.275,2.2598,2.2828,2.3101,2.3203,2.383,2.4876,2.6288,2.7536,2.9301,3.2277,3.4149,3.5737,3.7036,3.7445,3.7613,3.7565,3.7589,3.7493,3.7204,3.6531,3.5857,3.528,3.4535,3.3885,3.3356,3.2803,3.2406,3.2252,3.1182,3.0765,3.1052,2.7822,2.6544,2.6955,2.4319,2.2872,2.2397,2.2176,2.1972,2.1687,2.1687,2.1687,2.1687,2.1687,2.1687,2.1687,2.1687,2.1687,2.1687,0.0,0.0,0.0,0.0,0.0,0.0,0.0,0.0,0.0,0.0,0.0,0.0,0.0,0.0,0.0,0.0,0.0,0.0,0.0,0.0,0.0,0.0,1.1338,1.1321,1.1541,1.1516,1.1736,1.2223,1.2117,1.2304,1.2685,1.2653,1.2627,1.2595,1.2095,1.1888,1.1868,1.1745,1.1771,1.19,1.2478,0.0,0.0,0.0,0.0,0.0,0.0,0.0,0.0,1.7194,1.7259,1.7112,1.6589,0.0,0.0,0.0,0.0,0.0,2.1142,2.2955,2.4307,2.414,2.4219,2.4219,2.3789,2.3086,2.2422,2.2129,2.2598,2.2988,2.3047,2.4544,2.6241,2.7613,2.9897,3.2535,3.5349,3.5425,3.5689,3.7036,3.7252,3.7421,3.7709,3.7397,3.7084,3.6843,3.5593,3.4703,3.4607,3.3693,3.2971,3.2515,3.2346,3.1774,3.0767,3.0466,3.0072,2.9589,2.7191,2.6232,2.6518,2.3958,2.2662,2.2397,2.2176,0.0,2.1687,2.1687,2.1687,2.1687,2.1687,2.1687,2.1687,2.1687,2.1687,2.1687,0.0,0.0,0.0,0.0,0.0,0.0,0.0,0.0,0.0,0.0,0.0,0.0,0.0,0.0,0.0,0.0,0.0,0.0,0.0,0.0,0.0,1.1736,1.1403,1.1378,1.1727,1.1581,1.1614,1.1857,1.2134,1.2304,1.2393,1.267,1.3195,1.3904,1.3637,1.407,1.4911,1.474,1.4771,1.4869,1.4438,0.0,0.0,0.0,0.0,0.0,0.0,0.0,0.0,1.5885,1.6415,1.6988,1.5581,0.0,0.0,0.0,0.0,0.0,2.1627,2.3484,2.4313,2.3096,2.3359,2.3769,2.3296,2.2828,2.2598,2.2847,2.273,2.3169,2.5026,2.5399,2.636,2.9263,3.1902,3.4174,3.5999,3.6603,3.6916,3.7156,3.7589,3.7541,3.6723,3.6988,3.6627,3.5304,3.4968,3.4438,3.3573,3.2947,3.2587,3.2491,3.1601,3.066,2.9665,3.039,3.0735,3.0639,2.7803,2.6519,2.6518,2.3958,2.2662,2.2397,0.0,2.1972,2.1687,2.1687,2.1687,2.1687,2.1687,2.1687,2.1687,2.1687,2.1687,2.1687,0.0,0.0,0.0,0.0,0.0,0.0,0.0,0.0,0.0,0.0,0.0,0.0,0.0,0.0,0.0,0.0,0.0,0.0,0.0,0.0,1.1776,1.1776,1.1614,1.1606,1.1776,1.1784,1.1874,1.206,1.232,1.2499,1.2588,1.3255,1.4215,1.5318,1.4983,1.5139,1.5618,1.5369,1.5401,1.5622,0.0,0.0,0.0,0.0,0.0,0.0,0.0,0.0,0.0,0.0,1.6088,1.6516,1.5631,0.0,0.0,0.0,0.0,0.0,2.0916,2.2481,2.3421,2.3008,2.4043,2.5019,2.4336,2.3848,2.3457,2.314,2.3315,2.3945,2.5331,2.6692,2.8844,3.251,3.3863,3.4871,3.6218,3.6362,3.6435,3.6723,3.6988,3.694,3.6459,3.6362,3.605,3.5304,3.4679,3.4078,3.3332,3.2779,3.237,3.2058,3.1597,3.097,3.0248,3.0353,3.0048,2.9207,2.7446,2.6451,2.6104,2.3944,2.275,2.2397,0.0,2.2043,2.1687,2.1687,2.1687,2.1687,2.1687,2.1687,2.1668,2.1475,2.1401,2.1321,0.0,0.0,0.0,0.0,0.0,0.0,0.0,0.0,0.0,0.0,0.0,0.0,0.0,0.0,0.0,0.0,0.0,0.0,0.0,1.163,1.1736,1.1776,1.1776,1.1792,1.1833,1.1963,1.2101,1.2239,1.2458,1.2848,1.3284,1.428,1.5452,1.6741,1.632,1.6216,1.6503,1.6309,1.6332,1.6516,0.0,0.0,0.0,0.0,0.0,0.0,0.0,0.0,0.0,0.0,0.0,0.0,0.0,0.0,0.0,1.7888,1.8411,1.8982,2.0404,2.1619,2.2617,2.3047,2.4394,2.5586,2.541,2.4805,2.4219,2.4036,2.4579,2.5324,2.6124,2.8574,3.1565,3.4866,3.5304,3.5521,3.6459,3.6242,3.6098,3.6362,3.6411,3.6362,3.6218,3.5857,3.5521,3.5207,3.4342,3.3645,3.314,3.2587,3.2106,3.1717,3.1476,3.1139,3.073,3.0037,2.9184,2.8129,2.6984,2.619,2.5735,2.393,2.2882,2.2485,2.2441,2.2176,2.1776,2.1731,2.1687,2.1687,2.1687,2.1687,2.165,2.1321,2.1126,2.0943,0.0,0.0,0.0,0.0,0.0,0.0,0.0,0.0,0.0,0.0,0.0,0.0,0.0,0.0,0.0,0.0,0.0,0.0,0.0,1.1508,1.1598,1.1768,1.1776,1.1849,1.2012,1.202,1.2036,1.2052,1.2393,1.3358,1.4772,1.5829,1.6923,1.8055,1.7708,1.8111,1.9127,1.91,1.9113,1.91,1.8814,0.0,0.0,0.0,0.0,0.0,0.0,0.0,0.0,0.0,0.0,0.0,0.0,0.0,1.7414,1.8002,1.8708,1.9574,2.1034,2.1942,2.2617,2.3003,2.3262,2.3951,2.5859,2.5019,2.4394,2.6328,2.6947,2.7552,2.8808,3.1202,3.3456,3.4655,3.5689,3.6483,3.706,3.7108,3.6916,3.6459,3.6411,3.6218,3.5713,3.5641,3.5208,3.4174,3.3645,3.3116,3.2587,3.2034,3.1741,3.1717,3.0711,3.0182,3.0134,2.9124,2.8819,2.9169,2.6941,2.5863,2.5735,2.393,2.2969,2.275,2.253,2.2264,2.2043,2.1776,2.1687,2.1687,2.1687,2.1687,2.1687,2.165,2.1174,2.0668,0.0,0.0,0.0,0.0,0.0,0.0,0.0,0.0,0.0,0.0,0.0,1.1265,1.1378,0.0,0.0,0.0,0.0,0.0,0.0,1.1435,1.1581,1.1768,1.1776,1.1857,1.2028,1.2142,1.2255,1.2361,1.35,1.5284,1.7641,1.7559,1.8301,1.9702,1.9226,1.9279,1.9649,1.9649,1.9533,1.939,1.8851,1.8584,0.0,0.0,0.0,0.0,0.0,0.0,0.0,0.0,1.517,1.5599,1.5404,1.6206,1.7366,1.7912,1.8642,1.9524,2.0639,2.1675,2.2617,2.2984,2.3101,2.3652,2.5547,2.5879,2.6035,2.6855,2.8319,2.9931,3.152,3.2652,3.3741,3.5088,3.5665,3.6098,3.6627,3.6699,3.6507,3.5978,3.5905,3.5713,3.5184,3.5087,3.4823,3.4054,3.3814,3.338,3.2539,3.1961,3.1717,3.1717,3.0639,3.0086,3.0086,2.9364,2.8648,2.7976,2.649,2.5526,2.4956,2.3691,2.3013,2.2794,2.253,2.2264,2.2106,2.182,2.1687,2.1668,2.1394,2.1346,2.1291,2.0753,2.0369,2.0113,0.0,0.0,0.0,0.0,0.0,0.0,0.0,0.0,1.0761,0.0,0.0,0.0,0.0,1.1289,0.0,0.0,0.0,0.0,1.1135,1.1265,1.1411,1.1589,1.1606,1.1711,1.1947,1.2077,1.2523,1.3264,1.5252,1.7282,1.9362,1.9085,1.958,2.0851,2.0211,1.9958,1.9945,1.9869,1.956,1.9223,1.8861,1.8645,0.0,0.0,0.0,0.0,0.0,0.0,0.0,0.0,1.5135,1.5447,1.539,1.635,1.7531,1.8016,1.8905,1.9863,2.045,2.1251,2.2012,2.2379,2.2808,2.3594,2.5284,2.6289,2.7051,2.7851,2.953,3.149,3.3469,3.3553,3.3741,3.5136,3.5497,3.5737,3.6098,3.6146,3.5954,3.5425,3.5376,3.5232,3.4871,3.4631,3.439,3.4006,3.3694,3.326,3.2539,3.1817,3.1452,3.1452,3.0398,2.9845,2.9845,2.9316,2.8454,2.7185,2.6257,2.5316,2.4445,2.3517,2.3013,2.2882,2.253,2.2309,2.2176,2.182,2.1687,2.1668,2.142,2.1218,2.1034,2.0461,2.0095,1.9857,0.0,0.0,0.0,0.0,0.0,0.0,0.0,0.0,1.0761,1.0948,1.1028,0.0,0.0,0.0,0.0,0.0,0.0,0.0,1.0956,1.102,1.1045,1.1208,1.1224,1.1395,1.1768,1.1837,1.2759,1.4645,1.7554,1.9208,1.961,2.0347,2.0879,2.1152,2.0536,2.0322,2.0278,1.9946,1.9459,1.8919,1.9181,1.8914,1.8422,0.0,0.0,0.0,0.0,0.0,0.0,0.0,1.5163,1.5204,1.582,1.6931,1.8083,1.8401,1.9524,2.0625,2.0605,2.0625,2.0684,2.1093,2.2227,2.3677,2.5304,2.6094,2.7109,2.9668,3.081,3.2022,3.436,3.3982,3.3621,3.4655,3.5256,3.5593,3.5593,3.5593,3.54,3.4823,3.4775,3.4775,3.4775,3.4294,3.3982,3.3982,3.3068,3.2491,3.2491,3.1456,3.0898,3.0898,2.9845,2.9292,2.9292,2.8787,2.8059,2.7185,2.6235,2.5316,2.4445,2.3517,2.3101,2.3057,2.2618,2.2397,2.2353,2.1909,2.1687,2.1687,2.1687,2.1431,2.1108,2.1089,2.0594,1.993,0.0,0.0,0.0,0.0,0.0,0.0,0.0,0.0,1.0761,1.0948,1.1028,0.0,0.0,0.0,0.0,0.0,0.0,0.0,1.0769,1.0777,1.0858,1.1037,1.1159,1.1454,1.1929,1.4015,1.5332,1.575,1.7966,1.9501,2.0387,2.0855,2.101,2.0828,2.0644,2.0344,1.9935,1.9862,1.9555,1.9167,1.9054,1.8786,1.838,0.0,0.0,0.0,0.0,0.0,0.0,0.0,0.0,0.0,1.6244,1.7627,1.8908,1.9039,2.0211,2.1407,2.0781,2.123,2.2031,2.248,2.3599,2.4883,2.6309,2.6738,2.7542,3.0066,3.0758,3.1523,3.333,3.3481,3.3501,3.4126,3.4102,3.4102,3.4414,3.4198,3.3933,3.3765,3.4054,3.4078,3.3789,3.3886,3.3694,3.302,3.2683,3.2178,3.1408,3.0711,3.0326,3.0326,2.9292,2.8931,2.9292,2.8787,2.7713,2.6216,2.5944,2.5316,2.4445,2.3517,2.3101,2.3101,2.2794,2.2574,2.2353,2.1909,2.1687,2.1668,2.142,2.1053,2.0649,2.0374,1.9952,1.9512,0.0,0.0,0.0,0.0,0.0,0.0,1.0688,1.0688,1.0729,1.0842,1.0858,1.0923,0.0,0.0,0.0,0.0,0.0,0.0,0.0,1.0765,1.0855,1.085,1.1181,1.1811,1.2767,1.5696,1.7135,1.6891,1.8635,2.0064,2.1085,2.1158,2.1247,2.1292,2.1278,2.0944,2.0344,2.0212,1.9771,1.9076,1.9053,1.8764,1.8323,0.0,0.0,0.0,0.0,0.0,0.0,0.0,0.0,0.0,1.6427,1.7648,1.8828,1.9199,2.0301,2.1289,2.0918,2.1523,2.2402,2.3008,2.4258,2.5684,2.6973,2.7539,2.8542,3.1314,3.1417,3.1683,3.3757,3.3838,3.3693,3.3934,3.3742,3.3621,3.3717,3.3477,3.3284,3.3284,3.3549,3.3621,3.3308,3.338,3.3164,3.2539,3.2106,3.1577,3.0903,3.0182,2.9773,2.9773,2.8955,2.8667,2.8979,2.8667,2.7794,2.634,2.5986,2.5316,2.4445,2.3517,2.3101,2.3101,2.2882,2.2574,2.2264,2.1954,2.1776,2.1668,2.1412,2.0973,2.0442,2.0204,1.9787,1.9292,0.0,0.0,0.986,0.9705,0.0,0.0,1.0688,1.0688,1.0688,1.0688,1.0688,1.0753,0.0,0.0,0.0,1.0907,1.0824,1.0653,1.0444,1.0837,1.0975,1.0781,1.1481,1.2673,1.438,1.7069,1.8311,1.8131,1.9551,2.0715,2.1525,2.135,2.1523,2.2052,2.2081,2.1773,2.1089,2.071,1.9856,1.8769,1.908,1.8774,1.8174,1.8203,0.0,0.0,0.0,0.0,0.0,0.0,0.0,0.0,1.6535,1.7465,1.8365,1.9192,2.0019,2.0801,2.1093,2.1621,2.2207,2.3003,2.4524,2.6172,2.7441,2.8281,2.9659,3.2598,3.2249,3.225,3.4831,3.4582,3.3982,3.3934,3.3886,3.3694,3.3284,3.3164,3.314,3.314,3.3188,3.3188,3.314,3.2755,3.2466,3.237,3.1432,3.0874,3.0778,2.9821,2.9268,2.922,2.8763,2.8522,2.8522,2.8522,2.8018,2.7062,2.6216,2.5274,2.4317,2.3474,2.3101,2.3101,2.2882,2.2555,2.2138,2.2031,2.1917,2.1676,2.1632,2.1156,2.0521,2.0521,2.0008,1.9292,0.0,0.0,1.0147,1.0106,0.0,0.0,1.0688,1.0688,1.0688,1.0688,1.0688,1.0655,1.0558,1.0631,0.0,1.0558,1.0671,1.0799,1.0811,1.0754,1.0869,1.1183,1.293,1.5082,1.7712,1.8168,1.8959,2.0102,2.0413,2.0436,2.0263,2.1161,2.1409,2.1042,2.1306,2.1029,2.0376,1.9526,1.8884,1.8411,1.8511,1.7969,1.724,1.7443,1.7135,0.0,0.0,0.0,0.0,0.0,0.0,0.0,1.7432,1.8778,2.0076,2.0289,2.0935,2.1543,2.1268,2.199,2.3023,2.3926,2.5449,2.6992,2.7949,2.8047,2.839,2.9891,3.1206,3.2244,3.2951,3.3598,3.3862,3.3525,3.3092,3.2803,3.2683,3.2298,3.2054,3.2054,3.2394,3.2491,3.2102,3.2298,3.2154,3.1288,3.1043,3.0518,2.9677,2.9436,2.91,2.8691,2.857,2.8522,2.8522,2.8522,2.7672,2.6069,2.5902,2.4935,2.3387,2.3188,2.3101,2.3101,2.2882,2.2577,2.2141,2.1776,2.1559,2.1429,2.1298,2.0943,2.0521,2.0521,2.0008,1.9292,0.0,0.0,0.0,0.0,0.0,0.0,0.0,0.0,1.0794,1.0704,1.0688,1.059,1.0331,1.0486,0.0,0.0,1.0491,1.0707,1.0673,1.1435,1.2456,1.3632,1.5087,1.6685,1.8384,1.8837,1.9408,2.0033,2.0179,2.0164,2.0003,2.0676,2.0896,2.0679,2.1057,2.0764,1.9974,1.9477,1.8979,1.8525,1.8364,1.7911,1.7311,1.7326,1.6843,1.6126,1.5979,0.0,0.0,0.0,0.0,0.0,0.0,0.0,2.0046,2.0488,2.0938,2.125,2.119,2.2126,2.3516,2.5,2.6191,2.7129,2.7578,2.7519,2.7807,2.9371,3.068,3.186,3.2948,3.3458,3.3501,3.2996,3.2683,3.2418,3.213,3.1886,3.1717,3.1717,3.1958,3.203,3.1741,3.1697,3.148,3.0927,3.0398,2.9893,2.934,2.9051,2.8787,2.8522,2.8522,2.8522,2.8522,2.8522,2.7834,2.6464,2.5986,2.4851,2.3101,2.3101,2.3101,2.3081,2.28,2.2573,2.2448,2.1769,2.1475,2.1429,2.1299,2.0955,2.0539,2.0741,2.0301,1.9604,0.0,0.0,0.0,0.0,0.0,0.0,0.0,0.0,0.0,1.0672,1.0702,1.0563,1.0256,1.0526,1.062,0.0,0.0,0.0,1.1049,1.2751,1.4559,1.638,1.7146,1.7767,1.8319,1.9202,1.9573,1.9184,1.9403,1.9696,2.0077,2.0124,2.0358,2.0735,2.0896,2.0626,2.0006,1.9724,1.9352,1.8919,1.8574,1.8213,1.7791,1.7612,1.6996,1.6244,1.6244,1.6552,1.6903,1.6903,0.0,0.0,0.0,0.0,1.9648,2.0411,2.0605,2.0703,2.1073,2.2227,2.3814,2.5859,2.6602,2.6836,2.6973,2.6953,2.7432,2.933,3.0258,3.1305,3.3339,3.3428,3.2947,3.2322,3.2298,3.2154,3.1645,3.1645,3.1717,3.1717,3.1717,3.1717,3.1717,3.1235,3.0874,3.0759,2.9845,2.9268,2.9172,2.8739,2.8522,2.8522,2.8522,2.8522,2.8522,2.8522,2.8059,2.7185,2.6091,2.4701,2.3101,2.3023,2.2984,2.2964,2.2578,2.2431,2.2472,2.1717,2.137,2.1395,2.131,2.0916,2.0508,2.0894,2.0503,1.9783,0.0,0.0,0.0,0.0,0.0,0.0,0.0,0.0,0.0,0.0,1.063,1.0648,1.0229,1.1176,1.1657,1.1268,1.2496,1.3333,1.3512,0.0,0.0,1.6961,1.7581,1.8427,1.9541,1.9424,1.9184,1.8847,1.8613,1.8803,1.9418,1.9974,2.0358,2.0706,2.0179,2.0354,2.0903,1.9408,1.9046,1.9457,1.9062,1.8538,1.7995,1.8263,1.8079,1.7718,1.7718,1.7765,1.7836,1.7836,1.8399,0.0,0.0,0.0,2.045,2.0566,2.0605,2.0703,2.1073,2.2441,2.4141,2.5937,2.6152,2.6044,2.6855,2.6738,2.6814,2.8035,2.9321,3.0704,3.2412,3.2659,3.2274,3.1308,3.1524,3.1645,3.1091,3.1428,3.1717,3.1717,3.1717,3.1717,3.1717,3.1235,3.073,3.023,2.9629,2.91,2.8643,2.8546,2.8522,2.8522,2.8522,2.8522,2.8522,2.8522,2.8059,2.7185,2.5505,2.4122,2.3081,2.2711,2.2598,2.2578,2.2148,2.1736,2.1403,2.1105,2.0984,2.096,2.0797,2.0536,2.029,2.068,2.0245,1.9439,0.0,0.0,0.0,0.0,0.0,0.0,0.0,0.0,0.0,0.0,0.0,1.2677,1.2113,1.2622,1.2719,1.1968,1.2768,1.3727,1.4659,1.5114,1.5996,1.741,1.7596,1.7882,1.8394,1.8262,1.8028,1.7754,1.7925,1.8452,1.9286,1.9564,1.9974,2.0428,2.0786,2.0808,2.0597,2.0005,1.9841,1.9815,1.9237,1.8974,1.888,1.8623,1.8418,1.8312,1.8066,1.8318,1.8736,1.8736,1.9292,2.002,2.002,0.0,0.0,0.0,2.0605,2.0801,2.1699,2.25,2.3496,2.5215,2.5508,2.5527,2.6103,2.6103,2.629,2.7318,2.804,2.9098,3.1275,3.1865,3.1769,3.1043,3.1356,3.1524,3.0995,3.138,3.1597,3.1308,3.1259,3.1139,3.0807,3.0302,2.9893,2.9653,2.9148,2.8763,2.8522,2.8522,2.8522,2.8522,2.8522,2.8522,2.8522,2.8522,2.7794,2.6423,2.5126,2.3993,2.3081,2.2652,2.2519,2.248,2.1816,2.1543,2.1582,2.1207,2.1124,2.1233,2.1441,2.1218,2.0799,2.1086,2.0588,1.9798,0.0,0.0,0.0,0.0,0.0,0.0,0.0,0.0,0.0,0.0,0.0,1.4127,1.3421,0.0,0.0,0.0,1.3361,1.4255,1.549,1.5645,1.6262,1.7498,1.7413,1.7296,1.7208,1.7208,1.7047,1.6771,1.7296,1.8116,1.9155,1.9628,2.0249,2.0953,2.1479,2.1515,2.1164,2.1015,2.0909,2.0801,1.9893,1.9759,1.9954,1.9519,1.9425,1.9395,1.898,1.9239,1.9757,1.9645,2.0059,2.0605,2.0605,2.0605,0.0,0.0,0.0,2.082,2.1758,2.2187,2.2676,2.4082,2.4636,2.4883,2.5449,2.5566,2.5779,2.6607,2.6954,2.7636,2.9522,3.0672,3.1216,3.0951,3.1259,3.138,3.097,3.1139,3.1211,3.0946,3.0802,3.0518,3.0134,2.9605,2.9292,2.9292,2.8811,2.8522,2.8522,2.8522,2.8522,2.8522,2.8522,2.8522,2.8522,2.8259,2.7389,2.5777,2.4914,2.3993,2.3081,2.2652,2.2519,2.2461,2.1561,2.1348,2.1543,2.1288,2.1285,2.1472,2.1935,2.1771,2.1294,2.1448,2.0983,2.0283,0.0,0.0,0.0,0.0,0.0,0.0,0.0,0.0,0.0,0.0,0.0,0.0,1.3043,1.4005,1.4533,1.4066,1.5063,1.5922,1.633,1.6637,1.6872,1.6947,1.7179,0.0,1.6932,1.6917,1.6771,1.6433,1.6785,1.7607,1.8869,2.0602,2.1926,2.2823,2.1932,2.2382,2.3803,2.23,2.2157,2.2853,2.1613,2.1109,2.1167,2.1576,2.1731,2.1673,2.1186,2.1071,2.1053,2.0664,2.0566,2.0605,2.0605,2.0605,2.0605,0.0,0.0,0.0,2.0683,2.131,2.2031,2.2519,2.3262,2.4082,2.4949,2.5145,2.5262,2.5693,2.6229,2.6651,2.6831,2.8717,3.0413,3.0822,3.0946,3.0946,3.0922,3.0513,3.035,3.0807,3.0422,3.011,3.0086,2.9605,2.9292,2.9292,2.8811,2.8522,2.8522,2.8522,2.8522,2.8522,2.8522,2.8522,2.8522,2.7672,2.6753,2.5777,2.4914,2.3993,2.3081,2.2652,2.2519,2.2461,2.1561,2.1016,2.0703,2.1074,2.121,2.1268,2.1758,2.1729,2.1505,2.1521,2.1129,2.0526,0.0,0.0,0.0,0.0,0.0,0.0,0.0,0.0,0.0,0.0,0.0,0.0,0.0,1.5659,1.5658,1.5291,1.5446,1.5643,1.576,1.5877,1.5935,1.5935,1.6052,1.6052,1.5935,1.5935,1.5877,1.576,1.6096,1.6696,1.7607,1.9313,2.0897,2.238,2.3375,2.3888,2.387,2.2704,2.2279,2.2246,2.1211,2.0977,2.121,2.1406,2.1465,2.1484,2.1602,2.1289,2.082,2.0957,2.0801,2.0605,2.0605,2.0605,2.0605,2.0605,2.0605,2.0664,2.0918,2.1016,2.131,2.2266,2.2539,2.2793,2.3633,2.4043,2.4297,2.4453,2.4848,2.5416,2.6036,2.7832,2.9219,2.9075,2.9796,3.0254,2.9917,2.9989,3.0037,2.9893,2.9701,2.9436,2.91,2.8907,2.8787,2.8787,2.8619,2.8522,2.8522,2.8522,2.8522,2.8522,2.8522,2.8522,2.8522,2.7632,2.6712,2.5777,2.4914,2.3993,2.3081,2.2945,2.273,2.25,2.2187,2.1816,2.1486,2.1875,2.2009,2.2109,2.2519,2.2349,2.1909,2.1453,2.0885,2.0286,0.0,0.0,0.0,1.5395,0.0,1.6756,1.5617,1.6419,1.6901,1.6155,0.0,0.0,0.0,0.0,1.6404,1.595,1.5571,1.5382,1.5382,1.5382,1.5382,1.5382,1.5382,1.5382,1.5382,1.5382,1.5382,1.5382,1.6147,1.6814,1.7357,1.9358,2.1057,2.2474,2.3815,2.4442,2.4447,2.3505,2.291,2.2441,2.1466,2.1269,2.1619,2.1619,2.1717,2.1834,2.1875,2.1544,2.1055,2.1016,2.0918,2.0762,2.0644,2.0703,2.0762,2.0644,2.0703,2.082,2.0977,2.0801,2.086,2.1836,2.1875,2.1894,2.2691,2.3144,2.3437,2.373,2.3906,2.425,2.5067,2.6365,2.7512,2.8172,2.8883,2.9457,2.9539,2.9556,2.9484,2.9316,2.9148,2.8907,2.8546,2.8522,2.8522,2.8522,2.8522,2.8522,2.8522,2.8522,2.8522,2.8522,2.8522,2.8339,2.8059,2.7185,2.6299,2.5358,2.4445,2.3691,2.3101,2.3101,2.2945,2.2672,2.2578,2.2266,2.1914,2.2344,2.2519,2.2559,2.2925,2.2761,2.2206,2.1553,2.0907,2.0348,1.5105,1.638,1.7147,1.713,1.7809,1.7984,1.7049,1.6903,1.658,1.5584,0.0,0.0,0.0,0.0,0.0,1.5965,1.5586,1.5396,1.5382,1.5382,1.5382,1.5382,1.5382,1.5382,1.5382,1.5382,1.5423,1.5423,1.7013,1.795,1.8271,2.1003,2.2638,2.3256,2.3133,2.4036,2.5557,2.4707,2.4102,2.3613,2.2363,2.2109,2.25,2.25,2.2754,2.2964,2.2207,2.1914,2.1758,2.0938,2.0898,2.1132,2.0762,2.0879,2.1093,2.0684,2.0879,2.1113,0.0,0.0,0.0,2.1073,2.1171,2.1385,2.2266,2.2461,2.2715,2.3555,2.3398,2.3286,2.3652,2.4126,2.5338,2.8191,2.8261,2.8459,2.9882,2.9172,2.8715,2.9244,2.8859,2.8546,2.8546,2.8522,2.8522,2.8522,2.8522,2.8522,2.8522,2.8522,2.8522,2.8522,2.8522,2.8099,2.7226,2.6299,2.54,2.4467,2.3541,2.3105,2.3062,2.3081,2.3081,2.3042,2.2695,2.2285,2.1914,2.2344,2.2519,2.2578,2.2925,2.2828,2.2418,2.1742,2.1236,2.0792,1.6858,1.7884,1.8513,1.8074,1.8354,1.8247,1.7094,1.7047,1.693,0.0,0.0,0.0,1.6653,1.68,1.6653,1.5965,1.5833,1.5687,1.5411,1.5382,1.5382,1.5382,1.5382,1.5382,1.5382,1.5382,1.5699,1.6345,1.7143,1.7839,1.8549,2.0558,2.1784,2.2326,2.2903,2.3418,2.3789,2.2617,2.2227,2.2363,2.168,2.168,2.209,2.2402,2.2402,2.2285,2.2656,2.2402,2.1855,2.1602,2.1602,2.1621,2.1191,2.0918,2.0723,2.0644,2.0703,2.0723,2.0644,0.0,0.0,0.0,0.0,0.0,2.1055,2.1348,2.1619,2.1853,2.2109,2.2266,2.2402,2.2515,2.3181,2.4892,2.6448,2.7766,2.881,2.9027,2.9124,2.9292,2.9508,2.9508,2.9124,2.9076,2.8931,2.8546,2.8522,2.8522,2.8522,2.8522,2.8522,2.8522,2.8522,2.8099,2.7226,2.694,2.5873,2.3991,2.3739,2.3135,2.2246,2.2539,2.2519,2.2266,2.2711,2.2559,2.1914,2.2344,2.2695,2.2906,2.2754,2.2489,2.2206,2.1701,2.1154,2.0685,1.7936,1.8755,1.9111,1.8599,1.8774,1.8599,1.7428,1.753,1.7501,0.0,0.0,0.0,1.7047,1.7047,1.6843,1.6345,1.6067,1.5833,1.56,1.5469,1.5382,1.5382,1.5382,1.5455,1.5628,1.5816,1.6257,1.6921,1.7946,1.86,1.8912,2.0467,2.1377,2.1646,2.1939,2.2229,2.2305,2.1348,2.1309,2.1855,2.1602,2.1758,2.2168,2.2422,2.2461,2.2441,2.2711,2.2559,2.2109,2.1953,2.1758,2.1562,2.1268,2.1055,2.0801,2.0664,2.0742,2.0801,2.0664,2.0605,2.0644,2.0801,0.0,0.0,2.0801,2.0898,2.1016,2.1151,2.1445,2.168,2.1855,2.1894,2.2243,2.3371,2.4992,2.6505,2.7753,2.8944,2.9532,2.9316,2.9773,2.9965,2.9653,2.9436,2.9172,2.8859,2.8643,2.8522,2.8522,2.8522,2.8522,2.8522,2.8522,2.782,2.6377,2.6517,2.5518,2.3241,2.3422,2.3048,2.2168,2.2578,2.2539,2.2168,2.248,2.2441,2.2148,2.2227,2.25,2.2789,2.2422,2.2162,2.2016,2.1643,2.1154,2.0745,0.0,1.9052,1.9125,1.8833,1.9096,1.8994,1.8013,1.8174,1.8174,0.0,1.7522,1.7584,1.7628,1.7695,1.7563,1.7295,1.6668,1.6251,1.6206,1.5767,1.559,1.5673,1.559,1.5723,1.6104,1.6583,1.7064,1.7411,1.9118,1.985,1.9617,2.0849,2.1405,2.1385,2.0937,2.0937,2.1229,2.0781,2.1094,2.1816,2.1875,2.2168,2.2578,2.2578,2.2769,2.3042,2.2672,2.2578,2.2519,2.2148,2.1699,2.1268,2.1268,2.1229,2.1112,2.0762,2.0898,2.1094,2.0742,2.0683,2.0723,2.1074,2.0937,0.0,2.1094,2.0898,2.0781,2.1094,2.1112,2.1249,2.166,2.1779,2.2025,2.2818,2.3784,2.5041,2.6726,2.8621,2.9576,2.9052,2.9505,2.9833,2.9792,2.9415,2.9193,2.9148,2.8739,2.8522,2.8522,2.8522,2.8522,2.8522,2.8403,2.7335,2.5223,2.5518,2.4556,2.2441,2.2828,2.2808,2.2461,2.2828,2.2789,2.2422,2.209,2.2109,2.2344,2.2031,2.2109,2.2402,2.2031,2.1855,2.1816,2.1629,2.1277,2.0966,1.9008,1.9023,1.8862,1.8803,1.9272,1.933,1.835,1.8701,1.8847,1.8203,1.8865,1.9491,1.9773,2.002,2.0071,1.9748,1.8973,1.8379,1.8079,1.7054,1.6739,1.7472,1.6821,1.6812,1.7588,1.7668,1.8112,1.8883,1.9939,2.0772,2.1395,2.2318,2.273,2.2691,2.1973,2.168,2.1699,2.0938,2.0879,2.1346,2.1738,2.2344,2.2984,2.2984,2.3023,2.3081,2.3003,2.2984,2.2964,2.2886,2.2383,2.1758,2.1758,2.1523,2.1171,2.1093,2.0918,2.0762,2.1035,2.1073,2.1035,2.0762,2.1212,0.0,2.0879,2.0898,2.1035,2.0762,2.0742,2.0762,2.084,2.086,2.1017,2.149,2.3002,2.4449,2.5477,2.6899,2.7653,2.7205,2.7919,2.8315,2.7805,2.8356,2.8537,2.8035,2.833,2.8522,2.8522,2.8522,2.8522,2.8522,2.7794,2.673,2.5201,2.4892,2.3842,2.2012,2.2441,2.2422,2.2031,2.2441,2.2402,2.2031,2.2285,2.2051,2.1463,2.1777,2.1934,2.1992,2.1914,2.168,2.1366,2.1717,2.152,2.1265,1.8482,1.8803,1.8979,1.8818,1.933,1.9746,1.9623,2.001,2.0354,2.0382,2.0834,2.1048,2.0684,2.0962,2.0903,2.0365,1.9771,1.9273,1.8895,1.8104,1.7737,1.7997,1.7594,1.772,1.8545,1.8609,1.9053,1.9857,2.0345,2.0809,2.125,2.1894,2.2029,2.1836,2.1641,2.1445,2.1231,2.1211,2.1606,2.2151,2.2002,2.2266,2.2808,2.3023,2.3101,2.3101,2.3101,2.3101,2.3062,2.2847,2.2539,2.2168,2.1953,2.1738,2.1523,2.1268,2.1074,2.0898,2.0898,2.0898,2.0898,2.0898,2.1074,0.0,0.0,2.0898,2.084,2.0644,2.0605,2.0605,2.0605,2.0605,2.0683,2.0859,2.2069,2.3002,2.3184,2.5594,2.7173,2.6669,2.7107,2.7435,2.7332,2.744,2.7598,2.7699,2.769,2.7945,2.8474,2.8258,2.8036,2.7834,2.7429,2.6322,2.4507,2.4514,2.3632,2.1894,2.2519,2.234,2.1582,2.2441,2.2363,2.1582,2.2012,2.1836,2.121,2.1424,2.1426,2.129,2.1465,2.1385,2.1249,2.1719,2.1758,2.1678,1.8093,1.8597,1.9114,1.9115,1.9692,2.0352,2.0982,2.1441,2.1898,2.2434,2.2685,2.2487,2.1613,2.1789,2.1796,2.132,2.0695,2.0236,2.0016,1.9267,1.8778,1.8602,1.8371,1.8615,1.9393,1.9502,1.9823,2.043,2.0619,2.0742,2.0703,2.1152,2.1172,2.0879,2.1273,2.1313,2.1153,2.1845,2.273,2.351,2.2798,2.2665,2.2913,2.3268,2.3343,2.3387,2.356,2.3647,2.3544,2.3034,2.2893,2.2771,2.219,2.2012,2.1934,2.1541,2.1385,2.1289,2.1016,2.0977,2.0977,2.1151,2.1094,2.0977,0.0,0.0,0.0,2.0625,2.0605,2.0605,2.0605,2.0605,2.0605,2.0605,2.1271,2.1641,2.1249,2.4157,2.6217,2.583,2.5937,2.613,2.6541,2.6359,2.6495,2.7175,2.6975,2.7094,2.7806,2.7688,2.7411,2.6958,2.6917,2.5931,2.3805,2.4091,2.3461,2.2012,2.2652,2.2438,2.1463,2.2418,2.2301,2.1327,2.1641,2.1562,2.119,2.119,2.0977,2.0644,2.1015,2.119,2.1249,2.1719,2.1934,2.2109,1.8894,1.8598,1.8764,2.0138,2.0995,2.1561,2.1758,2.235,2.2707,2.2535,2.3335,2.3894,2.3748,2.3928,2.4313,2.5035,2.332,2.251,2.3204,2.1043,2.0083,2.0792,1.9734,1.9545,2.0429,2.0449,2.0489,2.0586,2.0936,2.1112,2.1132,2.1602,2.1797,2.176,2.213,2.2508,2.2916,2.3341,2.4059,2.4952,2.4892,2.4596,2.4255,2.4296,2.4317,2.4445,2.521,2.5484,2.5358,2.4554,2.4255,2.4045,2.2814,2.2441,2.2441,2.2383,2.2109,2.1875,2.2207,2.2285,2.2129,2.1366,2.1758,2.2012,2.0938,0.0,2.1055,2.0683,0.0,2.0605,2.0605,0.0,0.0,2.0605,2.0977,2.1249,2.121,2.1963,2.2621,2.2958,2.2978,2.3135,2.3535,2.4493,2.5188,2.5458,2.6103,2.6183,2.5613,2.6621,2.6871,2.5986,2.5944,2.5268,2.3805,2.3428,2.2997,2.2441,2.2539,2.25,2.2363,2.2129,2.1953,2.1797,2.1465,2.1249,2.119,2.119,2.0977,2.0644,2.1015,2.119,2.1249,2.1719,2.2129,2.25,1.9369,1.9274,1.9331,1.9822,2.0323,2.0998,2.1914,2.3299,2.4221,2.4344,2.4549,2.4688,2.4688,2.4484,2.457,2.4894,2.3926,2.3301,2.3418,2.2159,2.1524,2.1784,2.1142,2.1086,2.169,2.1194,2.0997,2.1095,2.0958,2.084,2.0859,2.1309,2.1367,2.1153,2.2006,2.2642,2.3063,2.4012,2.5057,2.6103,2.5966,2.5958,2.6008,2.5442,2.5253,2.5274,2.5652,2.5777,2.5735,2.5358,2.5253,2.5168,2.4598,2.4409,2.4283,2.3469,2.3119,2.2875,2.2335,2.2148,2.2129,2.2012,2.1834,2.1699,2.1406,2.1074,2.0801,2.0644,0.0,0.0,0.0,0.0,0.0,0.0,2.0723,2.084,2.084,2.0996,2.1407,2.207,2.1914,2.1907,2.2319,2.3019,2.3677,2.4264,2.4393,2.4676,2.5157,2.5458,2.5414,2.5062,2.5041,2.4512,2.341,2.3221,2.2886,2.2519,2.2519,2.2246,2.1736,2.1855,2.1602,2.1153,2.1191,2.1094,2.084,2.084,2.0742,2.0625,2.0781,2.0996,2.1249,2.1719,2.2148,2.2578,2.0346,2.0184,1.9956,1.9981,2.035,2.1123,2.2572,2.3929,2.5016,2.5536,2.5321,2.5165,2.5234,2.491,2.4781,2.5016,2.452,2.4112,2.3915,2.3284,2.2755,2.2486,2.2243,2.2205,2.2533,2.1769,2.1471,2.159,2.0977,2.0683,2.0702,2.0977,2.0958,2.0741,2.2214,2.3108,2.3643,2.5082,2.6308,2.7325,2.7151,2.7305,2.7551,2.6547,2.6318,2.6547,2.6547,2.6547,2.6483,2.6235,2.6152,2.611,2.5861,2.5777,2.5628,2.4618,2.4367,2.4158,2.3205,2.2958,2.2957,2.2864,2.2363,2.1906,2.1877,2.1427,2.0977,2.0977,2.0977,0.0,0.0,0.0,2.0918,2.0801,0.0,2.0742,2.0625,2.0605,2.0899,2.1621,2.1385,2.1392,2.1781,2.2076,2.247,2.3002,2.2895,2.3191,2.4081,2.4181,2.4152,2.3961,2.4298,2.4036,2.3101,2.3101,2.2886,2.2519,2.2402,2.1953,2.121,2.1445,2.1212,2.0625,2.0918,2.0859,2.0605,2.0605,2.0605,2.0625,2.0742,2.1016,2.1405,2.1758,2.2227,2.2734,2.2164,2.1197,2.0464,2.129,2.1988,2.2828,2.4107,2.4192,2.4439,2.529,2.522,2.5234,2.5615,2.5571,2.5773,2.6557,2.5704,2.5329,2.5685,2.4565,2.3639,2.3197,2.2774,2.2594,2.2594,2.211,2.1869,2.1889,2.1232,2.0896,2.0896,2.0877,2.0877,2.0955,2.3084,2.4464,2.526,2.6877,2.8047,2.8727,2.8727,2.8752,2.8633,2.7551,2.7672,2.8419,2.8419,2.8419,2.8259,2.7429,2.7144,2.7021,2.6091,2.5777,2.5777,2.5755,2.5755,2.5714,2.5692,2.565,2.5375,2.4075,2.3743,2.3412,2.218,2.1855,2.1855,2.1855,2.1855,2.1855,2.1855,2.1855,2.1699,2.1249,2.1171,0.0,0.0,2.0605,2.0742,2.1171,2.121,2.1387,2.1838,2.1845,2.1675,2.1311,2.1987,2.2126,2.139,2.292,2.343,2.2582,2.3813,2.4036,2.3101,2.3101,2.2886,2.25,2.2109,2.168,2.1171,2.0801,2.0625,2.0605,2.0625,2.0625,2.0605,2.0605,2.0605,2.0644,2.1055,2.1484,2.1875,2.1875,2.2402,2.3081,2.2872,2.2388,2.1809,2.137,2.1469,2.209,2.3396,2.4035,2.4891,2.642,2.6264,2.6415,2.7451,2.7252,2.7091,2.7061,2.6428,2.5993,2.5785,2.4867,2.4311,2.43,2.3725,2.3404,2.3453,2.3,2.2534,2.2107,2.1728,2.139,2.1089,2.1089,2.1377,2.1928,2.317,2.4619,2.6197,2.7155,2.818,2.9184,2.9028,2.8855,2.8578,2.8219,2.8219,2.8522,2.8522,2.8522,2.8459,2.8179,2.8059,2.8018,2.7672,2.7592,2.747,2.6876,2.6712,2.6588,0.0,0.0,2.5692,2.5248,2.4949,2.4465,2.3412,2.2961,2.2594,2.1999,2.1894,2.1894,2.1894,2.1894,2.1738,2.1268,2.119,2.1074,0.0,2.0605,2.0742,2.1132,2.0977,2.0879,2.1036,2.0996,2.0975,2.082,2.1055,2.1233,2.1211,2.2065,2.2542,2.25,2.3212,2.343,2.3101,2.3101,2.2886,2.25,2.209,2.166,2.1171,2.0762,2.0605,2.0605,2.0605,2.0605,2.0605,2.0605,2.0605,2.0644,2.1015,2.1504,2.1914,2.2207,2.2656,2.3101,2.3001,2.2676,2.2266,2.1663,2.1602,2.2025,2.3042,2.3892,2.5002,2.662,2.6625,2.6878,2.7905,2.8036,2.7823,2.7398,2.7142,2.6764,2.6107,2.5422,2.4917,2.4743,2.4306,2.4063,2.4115,2.3698,2.3165,2.255,2.2188,2.1902,2.1721,2.1721,2.2155,2.2957,2.3889,2.5215,2.6764,2.748,2.8434,2.938,2.917,2.8973,2.8816,2.8657,2.8538,2.8522,2.8522,2.8522,2.8522,2.8522,2.8522,2.8522,2.8522,2.8522,2.8379,2.7857,2.7672,2.7551,2.6917,2.6753,0.0,2.6381,2.6095,2.5587,2.4347,2.3867,2.3412,2.2493,2.2324,2.2324,2.2324,2.2207,2.1973,2.1543,2.1288,2.1074,0.0,2.0605,2.0703,2.0957,2.0742,2.0664,2.0781,2.0703,2.0605,2.0605,2.0605,2.0684,2.0977,2.1562,2.2012,2.2285,2.2808,2.3101,2.3101,2.3101,2.2808,2.2285,2.2012,2.1582,2.0996,2.0742,2.0605,2.0605,2.0605,2.0703,2.0801,2.0801,2.0898,2.1114,2.1523,2.1855,2.2148,2.2402,2.273,2.3101,2.2668,2.2208,2.2025,2.2284,2.2463,2.2687,2.3143,2.3865,2.4805,2.6156,2.654,2.6891,2.7377,2.7982,2.8193,2.777,2.7875,2.7552,2.6755,2.619,2.5502,2.4611,2.4528,2.4507,2.4507,2.4136,2.3681,2.3225,2.259,2.2467,2.2756,2.2771,2.3158,2.3913,2.5211,2.6247,2.7037,2.796,2.8755,2.938,2.9209,2.9248,2.9341,2.8949,2.8697,2.8522,2.8498,2.8498,2.8522,2.8522,2.8522,2.8522,2.8522,2.8522,2.8522,2.8522,2.8498,2.8498,2.8498,2.8498,2.8299,2.747,2.7267,0.0,2.5041,2.4616,2.436,2.343,2.3212,2.3188,2.3188,2.2812,2.2402,2.1953,2.1504,2.1055,2.0664,2.0605,2.0605,2.0625,2.0625,2.0742,2.1112,2.082,2.0605,2.0605,2.0605,2.0605,2.0605,2.1447,2.1894,2.1894,2.2695,2.3101,2.3101,2.3101,2.2715,2.1894,2.1894,2.1426,2.0644,2.0644,2.0644,2.0644,2.0644,2.084,2.119,2.119,2.1484,2.1934,2.2344,2.2519,2.2539,2.2539,2.275,2.3101,2.306,2.343,2.3967,2.4363,2.3649,2.3163,2.366,2.5041,2.6518,2.7893,2.9036,3.0008,3.0825,3.0454,3.0095,2.9989,2.8705,2.7965,2.8175,2.6722,2.5771,2.5544,2.4859,2.4507,2.4507,2.4383,2.4157,2.3701,2.3748,2.3651,2.3444,2.3631,2.4168,2.4969,2.5708,2.6676,2.7828,2.8475,2.8998,2.9419,2.9585,2.9468,2.917,2.9223,2.9106,2.8934,2.8776,2.8816,2.8934,2.8934,2.8934,2.8934,2.8934,2.8934,2.8934,2.8934,2.8855,2.8736,2.8736,2.8618,2.8443,2.8219,2.8179,2.7874,0.0,0.0,0.0,2.5274,2.4573,2.4166,2.4166,2.3481,2.2734,2.2012,2.125,2.0742,2.0625,2.0605,2.0723,2.1016,2.0762,2.0644,2.0723,2.0664,2.0605,2.0605,2.0605,2.0605,2.0605,0.0,2.1894,2.1894,2.2695,2.3101,2.3101,2.3101,2.2715,2.1894,2.1894,2.1602,2.1055,2.1055,2.1055,2.1055,2.1055,2.1093,2.119,2.119,2.1484,2.1934,2.2344,2.2695,2.2945,2.2945,2.3003,2.3101,2.3496,2.45,2.5577,2.6053,2.5669,2.5341,2.5365,2.6417,2.7607,2.8812,2.9851,3.0651,3.1175,3.115,3.1009,3.0834,2.9581,2.8852,2.8967,2.759,2.665,2.6433,2.5913,2.5653,2.5653,2.5653,2.5456,2.5041,2.4918,2.4835,2.4754,2.4653,2.5028,2.584,2.638,2.7173,2.8147,2.8976,2.9401,2.9599,2.974,2.9624,0.0,2.938,2.9404,2.939,2.9145,2.9091,2.9091,2.9091,2.9091,2.9091,2.9091,2.9091,2.9091,2.9091,2.9013,2.8934,2.8934,2.8776,2.8618,2.8618,2.8578,2.8259,2.7389,2.7185,2.6917,0.0,2.54,2.5084,0.0,2.4152,2.3105,2.2075,2.1505,2.1192,2.1192,2.0977,2.0957,2.1171,2.084,2.0605,2.0605,2.0605,2.0605,2.0605,2.0605,2.0605,2.0605,2.1447,2.1894,2.1894,2.2695,2.3101,2.3101,2.3101,2.2769,2.2168,2.2168,2.1934,2.1523,2.1523,2.1523,2.1523,2.1523,2.1621,2.1756,2.1756,2.2051,2.2461,2.2652,2.2886,2.3101,2.3101,2.3101,2.3101,2.4473,2.5734,2.7039,2.754,2.8058,2.8298,2.7906,2.8032,2.8464,2.9314,2.9981,3.0395,3.028,3.1044,3.1389,3.1113,3.0445,2.9895,2.95,2.8517,2.7698,2.7236,2.7144,2.7098,2.7098,2.7098,2.6932,2.6599,2.6039,2.5911,2.619,2.5695,2.5851,2.6524,2.7153,2.7745,2.8398,2.9377,2.9804,2.9804,2.9804,2.9804,2.9779,2.956,2.9599,2.974,2.956,2.9365,2.917,2.917,2.917,2.917,2.917,2.917,2.917,2.917,2.917,2.9131,2.9131,2.8988,2.8831,2.8791,2.8657,2.8339,2.7551,2.7389,2.7144,2.634,2.6069,2.5986,2.5986,2.4889,2.3598,2.2509,2.2203,2.2081,2.2122,2.1644,2.1288,2.1328,2.0918,0.0,2.0703,2.0644,2.0605,2.0605,2.0605,2.0605,0.0,0.0,2.1894,2.1894,2.2695,2.3101,2.3101,2.3101,2.2886,2.2519,2.2519,2.2324,2.1973,2.1973,2.1973,2.1973,2.1973,2.2168,2.2519,2.2519,2.2754,2.3101,2.3101,2.3101,2.3101,2.3101,2.3101,2.3101,2.7622,2.8116,2.8499,2.9397,2.9878,3.0307,3.0629,3.05,3.0233,2.9995,3.1455,3.2395,3.1882,3.1704,3.1865,3.263,3.1116,3.0254,3.0509,2.9293,2.8287,2.7721,2.7286,2.7098,2.7098,2.7098,2.7075,2.6984,2.6705,2.6603,2.6657,2.6399,2.6336,2.6524,2.7519,2.8524,2.9503,2.9704,2.9804,2.9804,2.9804,2.9804,2.9779,2.974,2.974,2.9779,2.974,2.9702,2.9663,2.9663,2.9663,2.9663,2.9663,2.9663,2.9663,2.9663,2.9521,2.9341,2.9341,2.9184,2.9013,2.8831,2.8752,2.8633,2.8339,2.8259,2.8219,2.8035,2.747,2.6958,2.6958,0.0,2.4895,2.4645,2.3717,2.3021,2.3183,2.2371,2.186,2.2004,2.1467,2.1073,2.1073,2.0781,2.0605,2.0605,2.0605,2.0605,0.0,0.0,2.1894,0.0,2.2695,0.0,0.0,0.0,2.2886,2.2519,2.2519,2.248,2.2402,2.2402,2.2402,2.2402,2.2402,2.2441,2.2519,2.2519,2.2754,2.3101,2.3101,2.3101,2.3101,2.3101,2.3101,2.3101,2.9922,3.0157,3.0269,3.0999,3.1323,3.1436,3.1386,3.1506,3.1361,3.0819,3.1365,3.1687,3.1411,3.1447,3.166,3.219,3.1118,3.0513,3.0687,2.9779,2.9164,2.8859,2.8595,2.8514,2.8514,2.8514,2.8514,2.8514,2.7811,2.7484,2.7459,2.6826,2.6499,2.6549,2.762,2.8725,2.9804,2.9804,2.9804,2.9804,2.9804,2.9804,2.9804,2.9804,2.9804,2.9804,2.9804,2.9804,2.9804,2.9804,2.9804,2.9804,2.9804,2.9804,2.9804,2.9804,2.9702,2.9599,2.9599,2.9443,2.9223,2.9145,2.9028,2.8934,2.8816,2.8736,2.8657,2.8657,2.8259,2.7713,2.7267,2.6653,0.0,2.5716,2.5049,2.4611,2.4835,2.3722,2.2837,2.2737,2.1808,2.1112,2.0918,2.0684,2.0605,2.0605,2.0605,2.0605,2.0605,0.0,2.1894,0.0,0.0,0.0,2.3101,0.0,2.2984,2.2789,2.2789,2.2789,2.2789,2.2789,2.2789,2.2789,2.2789,2.2789,2.2789,2.2789,2.2906,2.3101,2.3101,2.3101,2.3101,2.3101,2.3101,2.3101,3.1641,3.1833,3.1838,3.2164,3.2215,3.2014,3.1461,3.1662,3.1712,3.1286,3.0959,3.0733,3.0633,3.1085,3.1386,3.1386,3.1009,3.0733,3.0633,3.0206,2.9905,2.9804,2.9804,2.9804,2.9804,2.9804,2.9804,2.9804,2.8775,2.8273,2.8273,2.7268,2.6901,2.7052,2.7896,2.885,2.9804,0.0,2.9804,2.9804,2.9804,2.9804,2.9804,2.9804,2.9804,2.9804,2.9804,2.9804,2.9804,2.9804,2.9804,2.9804,2.9804,2.9804,2.9804,2.9804,2.9804,2.9804,2.9804,2.9663,2.9457,2.9419,2.9263,2.917,2.9091,2.8973,2.887,2.887,2.8697,2.8339,2.7592,2.747,0.0,2.6707,2.6359,2.6235,2.6419,2.5222,2.4115,2.3649,2.2432,2.1431,2.0916,2.0722,2.0605,2.0605,2.0605,2.0605,2.0605,0.0,0.0,0.0,0.0,2.3101,2.3101,0.0,2.3101,2.3101,2.3101,2.3101,2.3101,2.3101,2.3101,2.3101,2.3101,2.3101,2.3101,2.3101,2.3101,2.3101,2.3101,2.3101,2.3101,2.3101,2.3101,2.3101,3.2757,3.295,3.2767,3.229,3.2215,3.2014,3.1461,3.1035,3.0758,3.0683,3.106,3.1135,3.0658,3.1085,3.1386,3.1386,3.1336,3.111,3.0658,3.0557,3.0306,2.9804,2.9804,2.9804,2.9804,2.9804,2.9804,2.9804,2.9176,2.8813,2.8787,2.8222,2.8222,2.8662,0.0,0.0,0.0,2.9804,2.9804,2.9804,2.9804,2.9804,2.9804,2.9804,2.9804,2.9804,2.9804,2.9804,2.9804,2.9804,2.9804,2.9804,2.9804,2.9804,2.9804,2.9804,2.9804,2.9804,2.9804,2.9779,2.9702,2.9457,2.938,2.9302,2.9131,2.9091,2.9052,2.9052,2.8934,2.8673,2.8419,2.8379,2.8339,0.0,2.773,2.7424,2.7585,2.6621,2.5628,2.4982,2.3783,2.2649,2.1762,2.1011,2.0605,2.0605,2.0605,2.0605,2.0605,0.0,0.0,2.1894,2.2695,2.3101,2.3101,2.3101,2.3101,2.3101,2.3101,2.3101,2.3101,2.3101,2.3101,2.3101,2.3101,2.3101,2.3101,2.3101,2.3101,2.3101,2.3101,2.3101,2.3101,2.3101,2.3101,2.3101,3.2114,3.2064,3.1989,3.1763,3.1461,3.1185,3.0959,3.0758,3.0507,3.0156,3.0306,3.0357,3.0156,3.0306,3.0432,3.0432,3.0432,3.0357,3.0131,3.0131,3.003,2.9804,2.9804,2.9804,2.9804,2.9804,2.9804,2.9804,2.9227,2.8888,2.8888,0.0,0.0,0.0,0.0,2.9252,2.9804,2.9804,2.9804,2.9804,2.9804,2.9804,2.9804,2.9804,2.9804,2.9804,2.9804,2.9804,2.9804,2.9804,2.9804,2.9804,2.9804,2.9804,2.9804,2.9804,2.9804,2.9804,2.9804,2.9804,2.9779,2.9663,2.9638,2.9624,2.9546,2.9404,2.9263,2.9263,2.9028,2.8791,2.8697,2.8697,2.8736,2.8855,2.8633,2.8554,2.8727,2.7827,2.6789,2.5916,2.4809,2.3733,2.2724,2.1832,2.142,2.1664,2.1015,2.0723,0.0,0.0,0.0,2.2246,0.0,2.2847,2.3101,2.3101,2.3101,2.3101,2.3101,2.3101,2.3101,2.3101,2.3101,2.3101,2.3101,2.3101,2.3101,2.3101,2.3101,2.3101,2.3101,2.3101,2.3101,2.3101,2.3101,2.3101,3.1512,3.1512,3.1587,3.1411,3.1085,3.0783,3.0633,3.0482,3.0231,2.9854,2.9804,2.9804,2.9804,2.9804,2.9804,2.9804,2.9804,2.9804,2.9804,2.9804,2.9804,2.9804,2.9804,2.9804,2.9804,2.9804,2.9804,2.9804,2.9377,2.9176,2.9176,0.0,0.0,0.0,2.9176,2.9402,2.9804,2.9804,2.9804,2.9804,2.9804,2.9804,2.9804,2.9804,2.9804,2.9804,2.9804,2.9804,2.9804,2.9804,2.9804,2.9804,2.9804,2.9804,2.9804,2.9804,2.9804,2.9804,2.9804,2.9804,2.9804,2.9804,2.9804,2.9804,2.9804,2.9638,2.9521,2.9419,2.9184,2.8949,2.887,2.887,2.8934,2.9091,0.0,2.9248,2.938,2.8688,2.7838,2.6971,2.5892,2.4825,2.3802,2.3021,2.2657,2.279,2.1903,2.1392,0.0,0.0,0.0,0.0,0.0,0.0,2.3081,2.3101,2.3101,2.3101,2.3101,2.3101,2.3101,2.3101,2.3101,2.3101,2.3101,2.3101,2.3101,2.3101,2.3101,2.3101,2.3101,2.3101,2.312,2.3237,2.3198,2.312,3.1286,3.1838,3.2039,3.1486,3.1386,3.121,3.0683,3.0156,2.9804,2.9804,2.9804,2.9804,2.9804,2.9804,2.9804,2.9804,2.9804,2.9804,2.9804,2.9804,2.9804,2.9804,2.9804,2.9804,2.9804,2.9804,2.9804,2.9804,2.9779,2.9779,2.9779,0.0,2.9779,2.9779,2.9779,2.9779,2.9804,2.9804,2.9804,2.9804,2.9804,2.9804,2.9804,2.9804,2.9804,2.9804,2.9804,2.9804,2.9804,2.9804,2.9804,2.9804,2.9804,2.9804,2.9804,2.9804,2.9804,2.9804,2.9804,2.9804,2.9804,2.9804,2.9804,2.9804,2.9804,2.9804,2.9702,2.9457,2.9419,2.9341,2.9131,2.9091,2.9091,2.9091,0.0,0.0,2.9419,2.9248,2.8895,2.833,2.7215,2.6069,2.4995,2.4636,2.4259,2.3717,2.3369,0.0,0.0,0.0,0.0,2.2519,2.2867,0.0,2.3101,2.3101,2.3101,2.3101,2.3101,2.3101,2.3101,2.3101,2.3101,2.3101,2.3101,2.3101,2.3101,2.3101,2.3101,2.3101,2.3101,2.3101,2.314,2.3633,2.3516,2.3159,3.0407,3.0733,3.0959,3.0407,3.0306,3.0256,3.008,2.9905,2.9804,2.9804,2.9804,2.9804,2.9804,2.9804,2.9804,2.9804,2.9804,2.9804,2.9804,2.9804,2.9804,2.9804,2.9804,2.9804,2.9804,2.9804,2.9804,2.9804,0.0,0.0,0.0,2.9804,2.9804,2.9804,2.9804,2.9804,2.9804,2.9804,2.9804,2.9804,2.9804,2.9804,2.9804,2.9804,2.9804,2.9804,2.9804,2.9804,2.9804,2.9804,2.9804,2.9804,2.9804,2.9804,2.9804,2.9804,2.9804,2.9804,2.9804,2.9804,2.9804,2.9804,2.9804,2.9804,2.9804,2.9804,2.9779,2.9702,2.9521,2.938,2.9302,2.9302,2.9302,2.9302,2.9521,0.0,2.9663,2.9624,2.9386,2.8774,2.8281,2.7645,2.6732,2.5975,2.5266,2.4618,2.3985,0.0,0.0,0.0,0.0,0.0,2.275,0.0,2.3101,2.3101,2.3101,2.3101,2.3101,2.3101,2.3101,2.3437,2.3418,2.312,2.3705,2.3627,2.312,2.3457,2.3574,2.3555,2.3218,2.3452,2.3919,2.3516,2.3588,2.3984,2.993,3.008,3.0206,2.9854,2.9804,2.9804,2.9804,2.9804,2.9804,2.9804,2.9804,2.9804,2.9804,2.9804,0.0,2.9804,2.9804,2.9804,2.9804,2.9804,2.9804,2.9804,2.9804,2.9804,2.9804,2.9804,0.0,2.9804,2.9804,2.9804,2.9804,2.9804,2.9804,2.9804,2.9804,2.9804,2.9804,2.9804,2.9804,2.9804,2.9804,2.9804,2.9804,2.9804,2.9804,2.9804,2.9804,2.9804,2.9804,2.9804,2.9804,2.9804,2.9804,2.9804,2.9804,2.9804,2.9804,2.9804,2.9804,2.9804,2.9804,2.9804,2.9804,2.9804,2.9804,2.9804,2.9804,2.9804,2.9663,2.956,2.956,2.956,2.956,2.956,2.9702,2.9804,2.9804,2.9702,2.9474,2.901,2.8807,2.8418,2.7651,2.7177,2.6659,2.6086,2.5436,0.0,0.0,0.0,0.0,2.3081,2.2847,2.2828,2.3101,2.3101,2.3101,2.3101,2.3257,2.3379,2.3398,2.3828,2.3867,2.3588,2.4023,2.3867,2.3398,2.3672,2.3789,2.3769,2.3627,2.39,2.4355,2.3764,2.3919,2.4375,2.9804,2.9804,2.9804,2.9804,2.9804,2.9804,2.9804,2.9804,2.9804,2.9804,2.9804,2.9804,2.9804,2.9804,2.9804,2.9804,0.0,0.0,2.9804,2.9804,2.9804,2.9804,2.9804,2.9804,2.9804,2.9804,2.9804,2.9804,2.9804,2.9804,2.9804,2.9804,2.9804,2.9804,2.9804,2.9804,2.9804,2.9804,2.9804,2.9804,2.9804,2.9804,2.9804,2.9804,2.9804,2.9804,2.9804,2.9804,2.9804,2.9804,2.9804,2.9804,2.9804,2.9804,2.9804,2.9804,2.9804,2.9804,2.9804,2.9804,2.9804,2.9804,2.9804,2.9804,2.9804,2.9804,2.9804,2.9804,2.9804,2.9804,2.9804,2.9804,2.9804,2.9804,2.9804,2.9804,2.9804,2.9599,2.9341,2.917,0.0,0.0,2.7903,2.8249,2.8306,0.0,2.7375,0.0,0.0,0.0,2.3256,2.3188,2.3144,2.3101,2.3101,2.3101,2.3101,2.3101,2.3574,2.3789,2.3809,2.4258,2.4453,2.4394,2.4043,2.3848,2.3789,2.3828,2.3828,2.3867,2.4258,2.4453,2.4492,2.4434,2.4453,2.4512,0.0,2.9804,2.9804,2.9804,2.9804,2.9804,2.9804,2.9804,2.9804,2.9804,2.9804,2.9804,2.9804,2.9804,2.9804,2.9804,2.9804,2.9804,2.9804,2.9804,2.9804,2.9804,2.9804,2.9804,2.9804,2.9804,2.9804,2.9804,2.9804,2.9804,2.9804,2.9804,2.9804,2.9804,2.9804,2.9804,2.9804,2.9804,2.9804,2.9804,2.9804,2.9804,2.9804,2.9804,2.9804,2.9804,2.9804,2.9804,2.9804,2.9804,2.9804,2.9804,2.9804,2.9804,2.9804,2.9804,2.9804,2.9804,2.9804,2.9804,2.9804,2.9804,2.9804,2.9804,2.9804,2.9804,2.9804,2.9804,2.9804,2.9804,2.9804,2.9804,2.9804,2.9804,2.9804,2.9804,2.9804,2.974,2.9702,0.0,2.9585,2.9394,2.9012,2.8978,2.8545,0.0,0.0,2.6876,2.6152,2.5526,2.4872,2.4209,2.3474,2.3101,2.3101,2.3101,2.3101,2.3101,2.3574,2.3789,2.3809,2.457,2.4727,2.4434,2.4668,2.4394,2.3809,2.4141,2.4277,2.4277,2.4375,2.4824,2.5284,2.4668,2.4844,2.5323,2.9804,2.9804,2.9804,2.9804,2.9804,2.9804,2.9804,2.9804,2.9804,2.9804,2.9804,2.9804,2.9804,2.9804,2.9804,2.9804,2.9804,2.9804,2.9804,2.9804,2.9804,2.9804,2.9804,2.9804,2.9804,2.9804,2.9804,2.9804,2.9804,2.9804,2.9804,2.9804,2.9804,2.9804,2.9804,2.9804,2.9804,2.9804,2.9804,2.9804,2.9804,2.9804,2.9804,2.9804,2.9804,2.9804,2.9804,2.9804,2.9804,2.9804,2.9804,2.9804,2.9804,2.9804,2.9804,2.9804,2.9804,2.9804,2.9804,2.9804,2.9804,2.9804,2.9804,2.9804,2.9804,2.9804,2.9804,2.9804,2.9804,2.9804,2.9804,2.9804,2.9804,2.9804,2.9804,2.9804,2.9804,2.9804,2.974,2.9638,2.9599,2.9521,2.9287,2.917,2.8831,2.8131,2.7971,0.0,2.708,2.667,2.6049,2.5126,2.4188,2.3834,2.4015,2.3595,2.3535,2.3686,2.3965,2.418,2.4394,2.5078,2.5254,2.5019,2.5059,2.4851,2.4394,2.4629,2.4707,2.4727,2.4941,2.5265,2.5596,2.4961,2.5156,2.5615,2.9804,2.9804,2.9804,2.9804,2.9804,2.9804,2.9804,2.9804,2.9804,2.9804,2.9804,2.9804,2.9804,2.9804,2.9804,2.9804,2.9804,2.9804,2.9804,2.9804,2.9804,2.9804,2.9804,2.9804,2.9804,2.9804,2.9804,2.9804,2.9804,2.9804,2.9804,2.9804,2.9804,2.9804,2.9804,2.9804,2.9804,2.9804,2.9804,2.9804,2.9804,2.9804,2.9804,2.9804,2.9804,2.9804,2.9804,2.9804,2.9804,2.9804,2.9804,2.9804,2.9804,2.9804,2.9804,2.9804,2.9804,2.9804,2.9804,2.9804,2.9804,2.9804,2.9804,2.9804,2.9804,2.9804,2.9804,2.9804,2.9804,2.9804,2.9804,2.9804,2.9829,2.9905,2.9854,2.9829,2.9905,0.0,2.9702,2.9482,2.9457,2.9429,2.9332,2.9219,2.9077,2.8992,2.8879,2.8736,2.8498,2.7817,2.704,2.6235,2.521,2.4845,2.5106,2.4456,2.4199,2.4414,2.4473,2.4707,2.5125,2.5527,2.5693,2.5674,2.5254,2.5106,2.5106,2.5106,2.5106,2.5165,2.5566,2.5693,2.5635,2.5312,2.541,2.5635,2.9804,2.9804,2.9804,2.9804,2.9804,2.9804,2.9804,2.9804,2.9804,2.9804,2.9804,2.9804,2.9804,2.9804,2.9804,2.9804,2.9804,2.9804,2.9804,2.9804,2.9804,2.9804,2.9804,2.9804,2.9804,2.9804,2.9804,2.9804,2.9804,2.9804,2.9804,2.9804,2.9804,2.9804,2.9804,2.9804,2.9804,2.9804,2.9804,2.9804,2.9804,2.9804,2.9804,2.9804,2.9804,2.9804,2.9804,2.9804,2.9804,2.9804,2.9804,2.9804,2.9804,2.9804,2.9804,2.9804,2.9804,2.9804,2.9804,2.9804,2.9804,2.9804,2.9804,2.9804,2.9804,2.9804,2.9804,2.9804,2.9804,2.9804,2.9804,2.9804,2.9955,3.0407,3.0105,2.9955,3.0432,0.0,2.9779,2.974,2.974,2.9877,3.0313,2.9756,2.946,2.9794,2.9178,2.8736,2.8498,2.8379,2.8219,2.8099,2.6464,2.5424,2.5106,2.541,2.5204,2.4414,2.4785,2.5047,2.5125,2.5527,2.5693,2.5674,2.5254,2.5106,2.5106,2.5106,2.5106,2.5165,2.5566,2.5693,2.5674,2.5615,2.5635,2.5674,2.9804,2.9804,2.9804,2.9804,2.9804,2.9804,2.9804,2.9804,2.9804,2.9804,2.9804,2.9804,2.9804,2.9804,2.9804,2.9804,2.9804,2.9804,2.9804,2.9804,2.9804,2.9804,2.9804,2.9804,2.9804,2.9804,2.9804,2.9804,2.9804,2.9804,2.9804,2.9804,2.9804,2.9804,2.9804,2.9804,2.9804,2.9804,2.9804,2.9804,2.9804,2.9804,2.9804,2.9804,2.9804,2.9804,2.9804,2.9804,2.9804,2.9804,2.9804,2.9804,2.9804,2.9804,2.9804,2.9804,2.9804,2.9804,2.9804,3.0005,3.0156,2.9854,3.0231,3.0583,3.0306,3.0457,3.0583,3.0306,3.0231,3.0156,2.9854,2.9804,2.998,3.0532,3.0156,0.0,3.0532,3.0407,3.0231,3.0231,3.0482,3.0758,3.1009,3.0333,3.0034,3.0401,2.9666,2.9149,2.8931,2.8931,2.8811,2.8522,2.7732,2.7127,2.6728,2.6421,2.6146,2.5879,2.5362,2.5195,2.543,2.5644,2.5693,2.5674,2.5527,2.543,2.543,2.543,2.543,2.5449,2.5615,2.5693,2.5693,2.5693,2.5693,2.5693,2.9804,2.9804,2.9804,2.9804,2.9804,2.9804,2.9804,2.9804,2.9804,2.9804,2.9804,2.9804,2.9804,2.9804,2.9804,2.9804,2.9804,2.9804,2.9804,2.9804,2.9804,2.9804,2.9804,2.9804,2.9804,2.9804,2.9804,2.9804,2.9804,2.9804,2.9804,2.9804,2.9804,2.9804,2.9804,2.9804,2.9804,2.9804,2.9804,2.9804,2.9804,2.9804,2.9804,2.9804,2.9804,2.9804,2.9804,2.9804,2.9804,2.993,2.9905,2.9804,2.9955,2.9905,2.9804,2.9955,3.0055,3.0131,3.0005,3.0382,3.0708,3.0256,3.0783,3.1286,3.0884,3.111,3.1286,3.0884,3.0809,3.0658,3.0256,3.0156,3.0357,3.0884,0.0,3.0357,3.0909,3.0884,3.0809,3.0809,3.116,3.1436,3.1562,3.0963,3.0686,3.105,3.0351,2.9821,2.9479,2.9535,2.9422,2.9157,2.9009,2.8646,2.8072,2.7405,2.6988,2.6819,2.5754,2.541,2.5693,2.5693,2.5693,2.5693,2.5693,2.5693,2.5693,2.5693,2.5693,2.5693,2.5693,2.5693,2.5693,2.5693,2.5693,2.5693,2.9804,2.9804,2.9804,2.9804,2.9804,2.9804,2.9804,2.9804,2.9804,2.9804,2.9804,2.9804,2.9804,2.9804,2.9804,2.9804,2.9804,2.9804,2.9804,2.9804,2.9804,2.9804,2.9804,2.9804,2.9804,2.9804,2.9804,2.9804,2.9804,2.9804,2.9804,2.9804,2.9804,2.9804,2.9804,2.9804,2.9804,2.9804,2.9804,2.9804,2.9804,2.9804,2.9804,2.9804,2.9804,2.9804,2.9804,2.9804,2.988,3.0382,3.0206,2.988,3.0382,3.0206,2.9905,3.0407,3.0884,3.116,3.0683,3.0934,3.1311,3.1286,3.1336,3.1386,3.1336,3.1361,3.1386,3.1336,3.1336,3.1311,3.1286,3.126,3.1461,3.2014,0.0,0.0,3.2014,3.1662,3.1336,3.1336,3.1361,3.1587,3.2114,3.1662,3.1439,3.1804,3.129,3.0687,2.9991,3.0162,3.0542,3.1004,3.032,2.932,2.7914,2.8305,2.7631,2.582,2.5703,2.5654,2.5693,2.5693,2.5693,2.5693,2.5693,2.5693,2.5693,2.5693,2.5693,2.5693,2.5693,2.5693,2.5693,2.5693,2.5693,2.5693,2.9804,2.9804,2.9804,2.9804,2.9804,2.9804,2.9804,2.9804,2.9804,2.9804,2.9804,2.9804,2.9804,2.9804,2.9804,2.9804,2.9804,2.9804,2.9804,2.9804,2.9804,2.9804,2.9804,2.9804,2.9804,2.9804,2.9804,2.9804,2.9804,2.9804,2.9804,2.9804,2.9804,2.9804,2.9804,2.9804,2.9804,2.9804,2.9804,2.9804,2.9804,2.9804,2.9804,2.9804,2.9804,2.9829,3.0181,3.0306,3.0382,3.0909,3.0733,3.0331,3.0557,3.0482,3.0407,3.0934,3.1486,3.1863,3.1662,3.1763,3.1813,3.1461,3.1913,3.234,3.1989,3.219,3.234,3.1964,3.1913,3.1788,3.1461,3.1386,3.1562,3.2114,0.0,3.1587,3.2139,3.2039,3.1913,3.1913,3.2215,3.2516,3.2742,3.2114,3.1888,3.235,3.1776,3.128,3.1041,3.0785,3.0891,3.1412,3.1156,3.0917,3.0696,3.028,2.9692,2.8912,2.7531,2.6887,2.6839,2.6062,2.5693,2.5693,2.5693,2.5693,2.5693,2.5693,2.5693,2.5693,2.5693,2.5693,2.5693,2.5693,2.5693,2.5693,2.9804,2.9804,2.9804,2.9804,2.9804,2.9804,2.9804,2.9804,2.9804,2.9804,2.9804,2.9804,2.9804,2.9804,2.9804,2.9804,2.9804,2.9804,2.9804,2.9804,2.9804,2.9804,2.9804,2.9804,2.9804,2.9804,2.9804,2.9804,2.9804,2.9804,2.9804,2.9804,2.9804,2.9804,2.9804,2.9804,2.9804,2.9804,2.9804,2.9804,2.9804,2.9804,2.9804,2.9804,2.9905,3.0105,3.0482,3.0708,3.0934,3.1461,3.1286,3.0884,3.106,3.111,3.1185,3.1537,3.2039,3.2491,3.2491,3.2491,3.239,3.2014,3.2491,3.2968,3.2566,3.2792,3.2968,3.2566,3.2491,3.2365,3.1989,3.1913,3.2039,3.2416,3.2164,3.2039,3.2441,3.2491,3.2491,3.2491,3.2842,3.3111,3.3111,3.2589,3.2454,3.2785,3.2332,3.2049,3.1963,3.1504,3.1455,3.1938,3.2006,3.2222,3.2618,3.1492,3.0756,3.0441,2.8866,2.8207,2.8263,2.7282,2.7002,2.7199,2.6597,2.6363,2.6483,2.5927,2.5693,2.5693,2.5693,2.5693,2.5693,2.5693,2.5693,2.5693,2.9804,2.9804,2.9804,2.9804,2.9804,2.9804,2.9804,2.9804,2.9804,2.9804,2.9804,2.9804,2.9804,2.9804,2.9804,2.9804,2.9804,2.9804,2.9804,2.9804,2.9804,2.9804,2.9804,2.9804,2.9804,2.9804,2.9804,2.9804,2.9804,2.9804,2.9804,2.9804,2.9804,2.9804,2.9804,2.9804,2.9804,2.9804,2.9804,2.9804,2.9804,2.9804,2.9804,2.9804,3.0131,3.0608,3.0633,3.0959,3.1486,3.2039,3.1863,3.1486,3.2039,3.2215,3.2215,3.2215,3.2641,3.3136,3.3136,3.3093,3.3136,3.3111,3.3111,3.3136,3.3111,3.3111,3.3136,3.3111,3.3111,3.3136,3.3136,3.3136,3.3136,3.3136,3.3111,3.3111,3.3111,3.3111,3.3111,3.3111,3.3111,3.3111,3.3111,3.3111,3.3111,3.3111,3.3111,3.2982,3.2723,3.2389,3.2339,3.2698,3.2982,3.3136,3.3136,3.1669,3.0441,2.9464,2.9418,2.9594,2.9806,2.955,2.9862,3.0563,2.8502,2.7899,2.825,2.6435,2.5693,2.5693,2.5693,2.5693,2.5693,2.5693,2.5693,2.5693,2.9804,2.9804,2.9804,2.9804,2.9804,2.9804,2.9804,2.9804,2.9804,2.9804,2.9804,2.9804,2.9804,2.9804,2.9804,2.9804,2.9804,2.9804,2.9804,2.9804,2.9804,2.9804,2.9804,2.9804,2.9804,2.9804,2.9804,2.9804,2.9804,2.9804,2.9804,2.9804,2.9804,2.9804,2.9804,2.9804,2.9804,2.9804,2.9804,2.9804,2.9804,2.9804,2.9829,3.0231,3.0482,3.0708,3.1461,3.1838,3.2064,3.2616,3.2441,3.1989,3.2164,3.2215,3.2365,3.3169,3.352,3.3746,3.4123,3.4223,3.4048,3.3269,3.337,3.3545,3.3212,3.337,3.3545,3.3169,3.3395,3.3646,3.3646,3.3646,3.3646,3.3646,3.3345,3.3111,3.3111,3.3111,3.3111,3.3111,3.3111,3.3111,3.3111,3.3111,3.3111,3.3111,3.3111,3.3068,3.2982,3.2918,3.2893,3.2982,3.3401,3.3646,3.3646,3.3226,3.2872,3.2536,3.2059,3.1903,3.1926,3.0579,3.0317,3.0782,2.8718,2.8021,2.8277,2.6657,2.5868,2.5693,2.5693,2.5693,2.5693,2.5693,2.5693,2.5693,2.9804,2.9804,2.9804,2.9804,2.9804,2.9804,2.9804,2.9804,2.9804,2.9804,2.9804,2.9804,2.9804,2.9804,2.9804,2.9804,2.9804,2.9804,2.9804,2.9804,2.9804,2.9804,2.9804,2.9804,2.9804,2.9804,2.9804,2.9804,2.9804,2.9804,2.9804,2.9804,2.9804,2.9804,2.9804,2.9804,2.9804,2.9804,2.9804,2.9804,2.9804,2.993,3.0156,3.0482,3.0884,3.1336,3.1989,3.2365,3.2616,3.3011,3.2842,3.2566,3.2566,3.2717,3.3018,3.3696,3.4048,3.4299,3.4625,3.468,3.453,3.3897,3.3972,3.4073,3.352,3.3822,3.4073,3.352,3.3847,3.4223,3.4223,3.4048,3.3897,3.3897,3.3621,3.3395,3.3395,3.3596,3.3646,3.342,3.3395,3.3319,3.3093,3.3111,3.3111,3.3111,3.3294,3.3294,3.3136,3.3495,3.3621,3.3395,3.3947,3.4223,3.4223,3.4449,3.4449,3.4223,3.3801,3.3703,3.3758,3.2439,3.2207,3.2695,3.0593,2.9701,2.9586,2.7924,2.7073,2.6766,2.6173,2.6395,2.6935,2.6476,2.66,2.6935,2.9804,2.9804,2.9804,2.9804,2.9804,2.9804,2.9804,2.9804,2.9804,2.9804,2.9804,2.9804,2.9804,2.9804,2.9804,2.9804,2.9804,2.9804,2.9804,2.9804,2.9804,2.9804,2.9804,2.9804,2.9804,2.9804,2.9804,2.9804,2.9804,2.9804,2.9804,2.9804,2.9804,2.9804,2.9804,2.9804,2.9804,2.9804,2.9804,2.9804,2.9854,3.0156,3.0633,3.0733,3.1361,3.2215,3.2265,3.2616,3.3111,3.3111,3.3119,3.3144,3.3144,3.352,3.3972,3.4022,3.4399,3.4756,3.4851,3.4876,3.4876,3.4876,3.4876,3.47,3.4098,3.4399,3.465,3.4098,3.4399,3.4756,3.4756,3.4424,3.4098,3.4048,3.4048,3.4022,3.3972,3.4399,3.4525,3.4022,3.3972,3.3771,3.3269,3.3219,3.3219,3.3219,3.3696,3.3746,3.3244,3.4173,3.45,3.3997,3.45,3.4756,3.4756,3.5307,3.5307,3.4756,3.4851,3.5015,3.5304,3.4686,3.487,3.5547,3.3481,3.2296,3.1739,2.9925,2.9013,2.8588,2.7189,2.7634,2.8932,2.7857,2.8139,2.891,2.9804,2.9804,2.9804,2.9804,2.9804,2.9804,2.9804,2.9804,2.9804,2.9804,2.9804,2.9804,2.9804,2.9804,2.9804,2.9804,2.9804,2.9804,2.9804,2.9804,2.9804,2.9804,2.9804,2.9804,2.9804,2.9804,2.9804,2.9804,2.9804,2.9804,2.9804,2.9804,2.9804,2.9804,2.9804,2.9804,2.9804,2.9804,2.9804,2.9829,3.0256,3.0507,3.0708,3.1537,3.2014,3.2265,3.2717,3.2968,3.3111,3.3111,3.337,3.3721,3.3721,3.4098,3.4625,3.5006,3.5232,3.5408,3.5881,3.6053,3.6053,3.6053,3.6053,3.5755,3.4776,3.4931,3.5157,3.465,3.4931,3.5332,3.5332,3.5629,3.568,3.5207,3.5132,3.4981,3.46,3.465,3.4675,3.455,3.455,3.45,3.4374,3.4374,3.4374,3.4374,3.4474,3.45,3.4374,3.46,3.4675,3.455,3.5031,3.5332,3.5332,3.5906,3.5906,3.5332,3.5805,3.6081,3.6135,3.5537,3.559,3.6118,3.4044,3.3195,3.3099,3.1318,3.0201,2.9569,2.9041,2.9215,2.965,2.9415,2.9557,2.984,2.9804,2.9804,2.9804,2.9804,2.9804,2.9804,2.9804,2.9804,2.9804,2.9804,2.9804,2.9804,2.9804,2.9804,2.9804,2.9804,2.9804,2.9804,2.9804,2.9804,2.9804,2.9804,2.9804,2.9804,2.9804,2.9804,2.9804,2.9804,2.9804,2.9804,2.9804,2.9804,2.9804,2.9804,2.9804,2.9804,2.9804,2.9804,2.9955,3.0206,3.0507,3.0909,3.1436,3.2014,3.239,3.2667,3.3011,3.3111,3.3111,3.3111,3.3445,3.3897,3.3897,3.4449,3.5132,3.5408,3.5683,3.6006,3.6329,3.6405,3.6405,3.6405,3.6405,3.6179,3.5303,3.5529,3.578,3.5182,3.5554,3.5931,3.5931,3.5956,3.5881,3.5533,3.5508,3.5408,3.5107,3.5328,3.5403,3.5107,3.5082,3.4956,3.4705,3.468,3.468,3.468,3.4931,3.4956,3.468,3.5228,3.5378,3.5082,3.5655,3.5931,3.5931,3.6254,3.6254,3.5931,3.6279,3.6405,3.6405,3.594,3.5918,3.6143,3.5053,3.4364,3.3957,3.3023,3.2316,3.1759,3.0923,3.1011,3.1551,3.0997,3.0651,3.0514,2.9804,2.9804,2.9804,2.9804,2.9804,2.9804,2.9804,2.9804,2.9804,2.9804,2.9804,2.9804,2.9804,2.9804,2.9804,2.9804,2.9804,2.9804,2.9804,2.9804,2.9804,2.9804,2.9804,2.9804,2.9804,2.9804,2.9804,2.9804,2.9804,2.9804,2.9804,2.9804,2.9804,2.9804,2.9804,2.9804,2.9804,2.9905,3.0206,3.0633,3.0809,3.1411,3.2215,3.2315,3.2667,3.3111,3.3111,3.3111,3.3119,3.3294,3.3671,3.4048,3.4148,3.4831,3.5633,3.5633,3.6006,3.6405,3.6405,3.6405,3.6405,3.6405,3.6405,3.6279,3.578,3.6031,3.6279,3.578,3.6031,3.6405,3.6405,3.6056,3.5759,3.5658,3.5708,3.5734,3.5658,3.6081,3.6182,3.5683,3.5633,3.5458,3.5052,3.5002,3.5002,3.5002,3.5382,3.5433,3.5027,3.5881,3.6157,3.5658,3.6132,3.6405,3.6405,3.6405,3.6405,3.6405,3.6405,3.6405,3.6405,3.6193,3.6051,3.6051,3.6051,3.5548,3.4727,3.4678,3.4463,3.4076,3.276,3.2818,3.3534,3.2442,3.1934,3.1672,2.9804,2.9804,2.9804,2.9804,2.9804,2.9804,2.9804,2.9804,2.9804,2.9804,2.9804,2.9804,2.9804,2.9804,2.9804,2.9804,2.9804,2.9804,2.9804,2.9804,2.9804,2.9804,2.9804,2.9804,2.9804,2.9804,2.9804,2.9804,2.9804,2.9804,2.9804,2.9804,2.9804,2.9804,2.9804,2.9804,2.9829,3.0306,3.0557,3.0708,3.1612,3.2089,3.2265,3.2767,3.3061,3.3111,3.3111,3.3111,3.3219,3.4173,3.455,3.4655,3.5132,3.5755,3.6304,3.6304,3.6355,3.6405,3.6405,3.6405,3.6405,3.6405,3.6405,3.638,3.6329,3.6355,3.638,3.6329,3.6355,3.6405,3.6405,3.6684,3.681,3.638,3.6659,3.6784,3.6355,3.6355,3.638,3.6304,3.6304,3.6279,3.6204,3.6179,3.6179,3.6179,3.6254,3.6279,3.6179,3.6329,3.638,3.6304,3.638,3.6405,3.6405,3.6405,3.6405,3.6405,3.6405,3.6405,3.6405,3.6358,3.6358,3.6358,3.6358,3.6263,3.6121,3.5883,3.5466,3.4994,3.455,3.4323,3.4214,3.3762,3.4135,3.4732,2.9804,2.9804,2.9804,2.9804,2.9804,2.9804,2.9804,2.9804,2.9804,2.9804,2.9804,2.9804,2.9804,2.9804,2.9804,2.9804,2.9804,2.9804,2.9804,2.9804,2.9804,2.9804,2.9804,2.9804,2.9804,2.9804,2.9804,2.9804,2.9804,2.9804,2.9804,2.9804,2.9804,2.9804,2.9804,2.9804,2.9829,3.0382,3.0783,3.111,3.1888,3.2416,3.2717,3.2993,3.3111,3.3162,3.342,3.3746,3.4073,3.455,3.4881,3.5182,3.5433,3.5906,3.6405,3.6405,3.6405,3.6405,3.6405,3.6405,3.6405,3.6405,3.6405,3.6405,3.6405,3.6405,3.6405,3.6405,3.6405,3.6405,3.6405,3.6606,3.6681,3.6455,3.6606,3.6681,3.643,3.6405,3.6405,3.6405,3.6405,3.6405,3.6405,3.6405,3.6405,3.6405,3.6405,3.6405,3.6405,3.6405,3.6405,3.6405,3.6405,3.6405,3.6405,3.6405,3.6405,3.6405,3.6405,3.6405,3.6405,3.6405,3.6405,3.6405,3.6405,3.6405,3.6405,3.6288,3.6066,3.584,3.5724,3.5401,3.4894,3.4179,3.4399,3.4881]}]]